<?xml version="1.0" encoding="UTF-8" standalone="no" ?>
<gpx xmlns="http://www.topografix.com/GPX/1/1" xmlns:xsi="http://www.w3.org/2001/XMLSchema-instance" xsi:schemaLocation="http://www.topografix.com/GPX/1/1 http://www.topografix.com/GPX/1/1/gpx.xsd" version="1.1" creator="VisuGPX - https://www.visugpx.com">
  <metadata>
    <name>02-JUIN-22 17:23:50</name>
  </metadata>
  <trk>
    <name><![CDATA[02-JUIN-22 17:23:50]]></name>
    <trkseg>
      <trkpt lat="42.9135" lon="0.13698">
        <ele>1904.51</ele>
        <time>2022-06-02T05:45:22Z</time>
      </trkpt>
      <trkpt lat="42.91332" lon="0.1371">
        <ele>1904.99</ele>
        <time>2022-06-02T05:45:23Z</time>
      </trkpt>
      <trkpt lat="42.91336" lon="0.13727">
        <ele>1904.99</ele>
        <time>2022-06-02T05:45:48Z</time>
      </trkpt>
      <trkpt lat="42.9135" lon="0.13702">
        <ele>1908.83</ele>
        <time>2022-06-02T05:46:05Z</time>
      </trkpt>
      <trkpt lat="42.91349" lon="0.13701">
        <ele>1908.83</ele>
        <time>2022-06-02T05:46:06Z</time>
      </trkpt>
      <trkpt lat="42.91349" lon="0.13701">
        <ele>1911.72</ele>
        <time>2022-06-02T05:46:12Z</time>
      </trkpt>
      <trkpt lat="42.91349" lon="0.137">
        <ele>1915.56</ele>
        <time>2022-06-02T05:46:16Z</time>
      </trkpt>
      <trkpt lat="42.91348" lon="0.137">
        <ele>1915.56</ele>
        <time>2022-06-02T05:46:17Z</time>
      </trkpt>
      <trkpt lat="42.91348" lon="0.137">
        <ele>1919.41</ele>
        <time>2022-06-02T05:46:22Z</time>
      </trkpt>
      <trkpt lat="42.91348" lon="0.137">
        <ele>1922.77</ele>
        <time>2022-06-02T05:46:27Z</time>
      </trkpt>
      <trkpt lat="42.91347" lon="0.137">
        <ele>1922.77</ele>
        <time>2022-06-02T05:46:28Z</time>
      </trkpt>
      <trkpt lat="42.91349" lon="0.137">
        <ele>1926.14</ele>
        <time>2022-06-02T05:46:36Z</time>
      </trkpt>
      <trkpt lat="42.9135" lon="0.13699">
        <ele>1929.02</ele>
        <time>2022-06-02T05:46:43Z</time>
      </trkpt>
      <trkpt lat="42.91351" lon="0.13698">
        <ele>1932.39</ele>
        <time>2022-06-02T05:46:49Z</time>
      </trkpt>
      <trkpt lat="42.91351" lon="0.13698">
        <ele>1933.35</ele>
        <time>2022-06-02T05:46:51Z</time>
      </trkpt>
      <trkpt lat="42.9135" lon="0.13697">
        <ele>1936.71</ele>
        <time>2022-06-02T05:46:59Z</time>
      </trkpt>
      <trkpt lat="42.9135" lon="0.13697">
        <ele>1936.71</ele>
        <time>2022-06-02T05:47:00Z</time>
      </trkpt>
      <trkpt lat="42.91352" lon="0.13699">
        <ele>1940.08</ele>
        <time>2022-06-02T05:47:14Z</time>
      </trkpt>
      <trkpt lat="42.91351" lon="0.13702">
        <ele>1940.56</ele>
        <time>2022-06-02T05:47:16Z</time>
      </trkpt>
      <trkpt lat="42.91348" lon="0.13709">
        <ele>1942.96</ele>
        <time>2022-06-02T05:47:27Z</time>
      </trkpt>
      <trkpt lat="42.91353" lon="0.13708">
        <ele>1944.4</ele>
        <time>2022-06-02T05:47:41Z</time>
      </trkpt>
      <trkpt lat="42.9136" lon="0.13707">
        <ele>1943.92</ele>
        <time>2022-06-02T05:47:54Z</time>
      </trkpt>
      <trkpt lat="42.91374" lon="0.13705">
        <ele>1944.88</ele>
        <time>2022-06-02T05:48:11Z</time>
      </trkpt>
      <trkpt lat="42.91383" lon="0.13699">
        <ele>1943.92</ele>
        <time>2022-06-02T05:48:25Z</time>
      </trkpt>
      <trkpt lat="42.91392" lon="0.13692">
        <ele>1943.92</ele>
        <time>2022-06-02T05:48:37Z</time>
      </trkpt>
      <trkpt lat="42.91394" lon="0.13688">
        <ele>1944.4</ele>
        <time>2022-06-02T05:48:41Z</time>
      </trkpt>
      <trkpt lat="42.91396" lon="0.13685">
        <ele>1944.88</ele>
        <time>2022-06-02T05:48:45Z</time>
      </trkpt>
      <trkpt lat="42.914" lon="0.13679">
        <ele>1945.36</ele>
        <time>2022-06-02T05:48:50Z</time>
      </trkpt>
      <trkpt lat="42.91403" lon="0.13671">
        <ele>1946.33</ele>
        <time>2022-06-02T05:48:57Z</time>
      </trkpt>
      <trkpt lat="42.91407" lon="0.13661">
        <ele>1946.33</ele>
        <time>2022-06-02T05:49:05Z</time>
      </trkpt>
      <trkpt lat="42.91406" lon="0.13648">
        <ele>1945.85</ele>
        <time>2022-06-02T05:49:13Z</time>
      </trkpt>
      <trkpt lat="42.91407" lon="0.13614">
        <ele>1946.33</ele>
        <time>2022-06-02T05:49:32Z</time>
      </trkpt>
      <trkpt lat="42.91414" lon="0.13596">
        <ele>1946.81</ele>
        <time>2022-06-02T05:49:46Z</time>
      </trkpt>
      <trkpt lat="42.91416" lon="0.13587">
        <ele>1946.81</ele>
        <time>2022-06-02T05:49:51Z</time>
      </trkpt>
      <trkpt lat="42.91425" lon="0.13579">
        <ele>1946.33</ele>
        <time>2022-06-02T05:50:03Z</time>
      </trkpt>
      <trkpt lat="42.91436" lon="0.13573">
        <ele>1947.29</ele>
        <time>2022-06-02T05:50:19Z</time>
      </trkpt>
      <trkpt lat="42.91452" lon="0.1356">
        <ele>1947.29</ele>
        <time>2022-06-02T05:50:36Z</time>
      </trkpt>
      <trkpt lat="42.91453" lon="0.13558">
        <ele>1947.29</ele>
        <time>2022-06-02T05:50:38Z</time>
      </trkpt>
      <trkpt lat="42.91459" lon="0.13556">
        <ele>1947.29</ele>
        <time>2022-06-02T05:50:43Z</time>
      </trkpt>
      <trkpt lat="42.91463" lon="0.13554">
        <ele>1947.29</ele>
        <time>2022-06-02T05:50:48Z</time>
      </trkpt>
      <trkpt lat="42.91473" lon="0.13551">
        <ele>1948.25</ele>
        <time>2022-06-02T05:51:02Z</time>
      </trkpt>
      <trkpt lat="42.91475" lon="0.13544">
        <ele>1948.73</ele>
        <time>2022-06-02T05:51:16Z</time>
      </trkpt>
      <trkpt lat="42.91476" lon="0.1354">
        <ele>1948.25</ele>
        <time>2022-06-02T05:51:28Z</time>
      </trkpt>
      <trkpt lat="42.91473" lon="0.13535">
        <ele>1949.69</ele>
        <time>2022-06-02T05:51:42Z</time>
      </trkpt>
      <trkpt lat="42.9147" lon="0.13533">
        <ele>1948.25</ele>
        <time>2022-06-02T05:51:47Z</time>
      </trkpt>
      <trkpt lat="42.91461" lon="0.13527">
        <ele>1947.77</ele>
        <time>2022-06-02T05:52:00Z</time>
      </trkpt>
      <trkpt lat="42.91446" lon="0.13516">
        <ele>1948.25</ele>
        <time>2022-06-02T05:52:12Z</time>
      </trkpt>
      <trkpt lat="42.91449" lon="0.13498">
        <ele>1948.73</ele>
        <time>2022-06-02T05:52:23Z</time>
      </trkpt>
      <trkpt lat="42.91457" lon="0.13479">
        <ele>1950.65</ele>
        <time>2022-06-02T05:52:38Z</time>
      </trkpt>
      <trkpt lat="42.91459" lon="0.13478">
        <ele>1950.17</ele>
        <time>2022-06-02T05:52:41Z</time>
      </trkpt>
      <trkpt lat="42.91461" lon="0.13479">
        <ele>1950.17</ele>
        <time>2022-06-02T05:52:43Z</time>
      </trkpt>
      <trkpt lat="42.91467" lon="0.13474">
        <ele>1951.13</ele>
        <time>2022-06-02T05:52:57Z</time>
      </trkpt>
      <trkpt lat="42.91463" lon="0.1347">
        <ele>1950.65</ele>
        <time>2022-06-02T05:53:10Z</time>
      </trkpt>
      <trkpt lat="42.91459" lon="0.13466">
        <ele>1951.61</ele>
        <time>2022-06-02T05:53:16Z</time>
      </trkpt>
      <trkpt lat="42.91457" lon="0.13464">
        <ele>1952.09</ele>
        <time>2022-06-02T05:53:20Z</time>
      </trkpt>
      <trkpt lat="42.91461" lon="0.13438">
        <ele>1950.65</ele>
        <time>2022-06-02T05:53:35Z</time>
      </trkpt>
      <trkpt lat="42.91467" lon="0.13422">
        <ele>1951.13</ele>
        <time>2022-06-02T05:53:48Z</time>
      </trkpt>
      <trkpt lat="42.91474" lon="0.13407">
        <ele>1952.09</ele>
        <time>2022-06-02T05:54:02Z</time>
      </trkpt>
      <trkpt lat="42.91481" lon="0.13386">
        <ele>1952.57</ele>
        <time>2022-06-02T05:54:18Z</time>
      </trkpt>
      <trkpt lat="42.91484" lon="0.13363">
        <ele>1953.06</ele>
        <time>2022-06-02T05:54:34Z</time>
      </trkpt>
      <trkpt lat="42.9149" lon="0.13352">
        <ele>1954.02</ele>
        <time>2022-06-02T05:54:48Z</time>
      </trkpt>
      <trkpt lat="42.91495" lon="0.13341">
        <ele>1954.5</ele>
        <time>2022-06-02T05:55:01Z</time>
      </trkpt>
      <trkpt lat="42.91494" lon="0.13338">
        <ele>1954.02</ele>
        <time>2022-06-02T05:55:07Z</time>
      </trkpt>
      <trkpt lat="42.91486" lon="0.13336">
        <ele>1953.06</ele>
        <time>2022-06-02T05:55:18Z</time>
      </trkpt>
      <trkpt lat="42.91472" lon="0.13331">
        <ele>1952.57</ele>
        <time>2022-06-02T05:55:33Z</time>
      </trkpt>
      <trkpt lat="42.91455" lon="0.1333">
        <ele>1951.13</ele>
        <time>2022-06-02T05:55:46Z</time>
      </trkpt>
      <trkpt lat="42.91452" lon="0.1333">
        <ele>1951.13</ele>
        <time>2022-06-02T05:55:49Z</time>
      </trkpt>
      <trkpt lat="42.9144" lon="0.13341">
        <ele>1951.13</ele>
        <time>2022-06-02T05:56:00Z</time>
      </trkpt>
      <trkpt lat="42.91433" lon="0.13342">
        <ele>1951.61</ele>
        <time>2022-06-02T05:56:07Z</time>
      </trkpt>
      <trkpt lat="42.91414" lon="0.13337">
        <ele>1951.13</ele>
        <time>2022-06-02T05:56:23Z</time>
      </trkpt>
      <trkpt lat="42.91401" lon="0.13328">
        <ele>1950.17</ele>
        <time>2022-06-02T05:56:37Z</time>
      </trkpt>
      <trkpt lat="42.91398" lon="0.13323">
        <ele>1951.13</ele>
        <time>2022-06-02T05:56:42Z</time>
      </trkpt>
      <trkpt lat="42.91392" lon="0.13308">
        <ele>1950.17</ele>
        <time>2022-06-02T05:56:54Z</time>
      </trkpt>
      <trkpt lat="42.91398" lon="0.13293">
        <ele>1952.09</ele>
        <time>2022-06-02T05:57:07Z</time>
      </trkpt>
      <trkpt lat="42.914" lon="0.13282">
        <ele>1953.06</ele>
        <time>2022-06-02T05:57:19Z</time>
      </trkpt>
      <trkpt lat="42.91401" lon="0.13269">
        <ele>1954.02</ele>
        <time>2022-06-02T05:57:30Z</time>
      </trkpt>
      <trkpt lat="42.914" lon="0.1326">
        <ele>1954.02</ele>
        <time>2022-06-02T05:57:35Z</time>
      </trkpt>
      <trkpt lat="42.91387" lon="0.13245">
        <ele>1954.98</ele>
        <time>2022-06-02T05:57:51Z</time>
      </trkpt>
      <trkpt lat="42.91386" lon="0.1324">
        <ele>1955.46</ele>
        <time>2022-06-02T05:57:55Z</time>
      </trkpt>
      <trkpt lat="42.91387" lon="0.13227">
        <ele>1956.9</ele>
        <time>2022-06-02T05:58:05Z</time>
      </trkpt>
      <trkpt lat="42.91382" lon="0.1322">
        <ele>1956.42</ele>
        <time>2022-06-02T05:58:13Z</time>
      </trkpt>
      <trkpt lat="42.91373" lon="0.13207">
        <ele>1957.86</ele>
        <time>2022-06-02T05:58:29Z</time>
      </trkpt>
      <trkpt lat="42.91368" lon="0.13184">
        <ele>1958.34</ele>
        <time>2022-06-02T05:58:45Z</time>
      </trkpt>
      <trkpt lat="42.91371" lon="0.13169">
        <ele>1959.3</ele>
        <time>2022-06-02T05:58:56Z</time>
      </trkpt>
      <trkpt lat="42.91373" lon="0.13153">
        <ele>1961.23</ele>
        <time>2022-06-02T05:59:10Z</time>
      </trkpt>
      <trkpt lat="42.9137" lon="0.13146">
        <ele>1961.71</ele>
        <time>2022-06-02T05:59:15Z</time>
      </trkpt>
      <trkpt lat="42.91369" lon="0.13141">
        <ele>1961.71</ele>
        <time>2022-06-02T05:59:19Z</time>
      </trkpt>
      <trkpt lat="42.91365" lon="0.13134">
        <ele>1962.19</ele>
        <time>2022-06-02T05:59:24Z</time>
      </trkpt>
      <trkpt lat="42.9136" lon="0.13109">
        <ele>1963.15</ele>
        <time>2022-06-02T05:59:41Z</time>
      </trkpt>
      <trkpt lat="42.91356" lon="0.13086">
        <ele>1965.07</ele>
        <time>2022-06-02T05:59:58Z</time>
      </trkpt>
      <trkpt lat="42.91352" lon="0.13063">
        <ele>1966.99</ele>
        <time>2022-06-02T06:00:14Z</time>
      </trkpt>
      <trkpt lat="42.91351" lon="0.13055">
        <ele>1967.48</ele>
        <time>2022-06-02T06:00:19Z</time>
      </trkpt>
      <trkpt lat="42.9135" lon="0.13048">
        <ele>1967.96</ele>
        <time>2022-06-02T06:00:24Z</time>
      </trkpt>
      <trkpt lat="42.91341" lon="0.13023">
        <ele>1968.44</ele>
        <time>2022-06-02T06:00:41Z</time>
      </trkpt>
      <trkpt lat="42.91333" lon="0.12996">
        <ele>1969.88</ele>
        <time>2022-06-02T06:00:57Z</time>
      </trkpt>
      <trkpt lat="42.9133" lon="0.12972">
        <ele>1970.84</ele>
        <time>2022-06-02T06:01:12Z</time>
      </trkpt>
      <trkpt lat="42.9133" lon="0.12945">
        <ele>1972.28</ele>
        <time>2022-06-02T06:01:28Z</time>
      </trkpt>
      <trkpt lat="42.91327" lon="0.12913">
        <ele>1974.2</ele>
        <time>2022-06-02T06:01:46Z</time>
      </trkpt>
      <trkpt lat="42.91328" lon="0.12886">
        <ele>1976.13</ele>
        <time>2022-06-02T06:02:02Z</time>
      </trkpt>
      <trkpt lat="42.91331" lon="0.12863">
        <ele>1978.53</ele>
        <time>2022-06-02T06:02:18Z</time>
      </trkpt>
      <trkpt lat="42.91334" lon="0.12844">
        <ele>1980.93</ele>
        <time>2022-06-02T06:02:33Z</time>
      </trkpt>
      <trkpt lat="42.91338" lon="0.12826">
        <ele>1983.34</ele>
        <time>2022-06-02T06:02:46Z</time>
      </trkpt>
      <trkpt lat="42.9134" lon="0.12815">
        <ele>1985.74</ele>
        <time>2022-06-02T06:03:00Z</time>
      </trkpt>
      <trkpt lat="42.9134" lon="0.12813">
        <ele>1985.26</ele>
        <time>2022-06-02T06:03:01Z</time>
      </trkpt>
      <trkpt lat="42.91339" lon="0.12791">
        <ele>1987.66</ele>
        <time>2022-06-02T06:03:16Z</time>
      </trkpt>
      <trkpt lat="42.91337" lon="0.12779">
        <ele>1988.62</ele>
        <time>2022-06-02T06:03:24Z</time>
      </trkpt>
      <trkpt lat="42.91339" lon="0.12761">
        <ele>1991.03</ele>
        <time>2022-06-02T06:03:38Z</time>
      </trkpt>
      <trkpt lat="42.91344" lon="0.12748">
        <ele>1992.95</ele>
        <time>2022-06-02T06:03:50Z</time>
      </trkpt>
      <trkpt lat="42.91348" lon="0.12733">
        <ele>1993.91</ele>
        <time>2022-06-02T06:04:05Z</time>
      </trkpt>
      <trkpt lat="42.91348" lon="0.12732">
        <ele>1994.39</ele>
        <time>2022-06-02T06:04:06Z</time>
      </trkpt>
      <trkpt lat="42.91347" lon="0.12721">
        <ele>1995.35</ele>
        <time>2022-06-02T06:04:14Z</time>
      </trkpt>
      <trkpt lat="42.91351" lon="0.12699">
        <ele>1996.8</ele>
        <time>2022-06-02T06:04:29Z</time>
      </trkpt>
      <trkpt lat="42.91351" lon="0.12679">
        <ele>1997.76</ele>
        <time>2022-06-02T06:04:44Z</time>
      </trkpt>
      <trkpt lat="42.91354" lon="0.12657">
        <ele>1999.2</ele>
        <time>2022-06-02T06:04:58Z</time>
      </trkpt>
      <trkpt lat="42.91357" lon="0.12632">
        <ele>1999.2</ele>
        <time>2022-06-02T06:05:13Z</time>
      </trkpt>
      <trkpt lat="42.91363" lon="0.12617">
        <ele>2000.64</ele>
        <time>2022-06-02T06:05:26Z</time>
      </trkpt>
      <trkpt lat="42.91365" lon="0.12596">
        <ele>2003.04</ele>
        <time>2022-06-02T06:05:40Z</time>
      </trkpt>
      <trkpt lat="42.91367" lon="0.12574">
        <ele>2002.56</ele>
        <time>2022-06-02T06:05:56Z</time>
      </trkpt>
      <trkpt lat="42.91367" lon="0.12554">
        <ele>2003.52</ele>
        <time>2022-06-02T06:06:10Z</time>
      </trkpt>
      <trkpt lat="42.91373" lon="0.12523">
        <ele>2003.04</ele>
        <time>2022-06-02T06:06:28Z</time>
      </trkpt>
      <trkpt lat="42.91383" lon="0.12507">
        <ele>2003.52</ele>
        <time>2022-06-02T06:06:42Z</time>
      </trkpt>
      <trkpt lat="42.91389" lon="0.12492">
        <ele>2003.52</ele>
        <time>2022-06-02T06:06:52Z</time>
      </trkpt>
      <trkpt lat="42.91398" lon="0.12471">
        <ele>2003.52</ele>
        <time>2022-06-02T06:07:08Z</time>
      </trkpt>
      <trkpt lat="42.91411" lon="0.12448">
        <ele>2002.08</ele>
        <time>2022-06-02T06:07:24Z</time>
      </trkpt>
      <trkpt lat="42.91425" lon="0.12425">
        <ele>2002.08</ele>
        <time>2022-06-02T06:07:41Z</time>
      </trkpt>
      <trkpt lat="42.91425" lon="0.12423">
        <ele>2002.08</ele>
        <time>2022-06-02T06:07:42Z</time>
      </trkpt>
      <trkpt lat="42.91427" lon="0.12415">
        <ele>2001.6</ele>
        <time>2022-06-02T06:07:47Z</time>
      </trkpt>
      <trkpt lat="42.91428" lon="0.12412">
        <ele>2002.56</ele>
        <time>2022-06-02T06:07:49Z</time>
      </trkpt>
      <trkpt lat="42.91435" lon="0.12399">
        <ele>2002.56</ele>
        <time>2022-06-02T06:08:02Z</time>
      </trkpt>
      <trkpt lat="42.91438" lon="0.12393">
        <ele>2002.56</ele>
        <time>2022-06-02T06:08:09Z</time>
      </trkpt>
      <trkpt lat="42.91442" lon="0.12384">
        <ele>2004.01</ele>
        <time>2022-06-02T06:08:20Z</time>
      </trkpt>
      <trkpt lat="42.91446" lon="0.12377">
        <ele>2004.97</ele>
        <time>2022-06-02T06:08:29Z</time>
      </trkpt>
      <trkpt lat="42.91453" lon="0.12366">
        <ele>2005.45</ele>
        <time>2022-06-02T06:08:38Z</time>
      </trkpt>
      <trkpt lat="42.91461" lon="0.12352">
        <ele>2006.89</ele>
        <time>2022-06-02T06:08:52Z</time>
      </trkpt>
      <trkpt lat="42.9147" lon="0.12342">
        <ele>2004.01</ele>
        <time>2022-06-02T06:09:08Z</time>
      </trkpt>
      <trkpt lat="42.91476" lon="0.12329">
        <ele>2005.93</ele>
        <time>2022-06-02T06:09:22Z</time>
      </trkpt>
      <trkpt lat="42.91478" lon="0.1232">
        <ele>2003.52</ele>
        <time>2022-06-02T06:09:35Z</time>
      </trkpt>
      <trkpt lat="42.91474" lon="0.12307">
        <ele>2001.6</ele>
        <time>2022-06-02T06:09:48Z</time>
      </trkpt>
      <trkpt lat="42.91481" lon="0.12288">
        <ele>2001.6</ele>
        <time>2022-06-02T06:10:03Z</time>
      </trkpt>
      <trkpt lat="42.9148" lon="0.12287">
        <ele>2001.6</ele>
        <time>2022-06-02T06:10:22Z</time>
      </trkpt>
      <trkpt lat="42.91484" lon="0.12283">
        <ele>2002.08</ele>
        <time>2022-06-02T06:10:38Z</time>
      </trkpt>
      <trkpt lat="42.91485" lon="0.12279">
        <ele>2001.6</ele>
        <time>2022-06-02T06:10:57Z</time>
      </trkpt>
      <trkpt lat="42.91486" lon="0.12277">
        <ele>2002.56</ele>
        <time>2022-06-02T06:10:59Z</time>
      </trkpt>
      <trkpt lat="42.91489" lon="0.12266">
        <ele>2000.16</ele>
        <time>2022-06-02T06:11:13Z</time>
      </trkpt>
      <trkpt lat="42.91491" lon="0.12257">
        <ele>2000.16</ele>
        <time>2022-06-02T06:11:26Z</time>
      </trkpt>
      <trkpt lat="42.91492" lon="0.12251">
        <ele>1999.68</ele>
        <time>2022-06-02T06:11:41Z</time>
      </trkpt>
      <trkpt lat="42.91494" lon="0.12249">
        <ele>2000.64</ele>
        <time>2022-06-02T06:11:57Z</time>
      </trkpt>
      <trkpt lat="42.91494" lon="0.12248">
        <ele>2002.56</ele>
        <time>2022-06-02T06:12:14Z</time>
      </trkpt>
      <trkpt lat="42.91494" lon="0.12244">
        <ele>2000.64</ele>
        <time>2022-06-02T06:12:28Z</time>
      </trkpt>
      <trkpt lat="42.91499" lon="0.12238">
        <ele>2003.52</ele>
        <time>2022-06-02T06:12:43Z</time>
      </trkpt>
      <trkpt lat="42.91501" lon="0.12235">
        <ele>2003.52</ele>
        <time>2022-06-02T06:12:57Z</time>
      </trkpt>
      <trkpt lat="42.91501" lon="0.12234">
        <ele>2000.16</ele>
        <time>2022-06-02T06:13:17Z</time>
      </trkpt>
      <trkpt lat="42.91501" lon="0.12234">
        <ele>2007.85</ele>
        <time>2022-06-02T06:13:18Z</time>
      </trkpt>
      <trkpt lat="42.91501" lon="0.12235">
        <ele>2004.49</ele>
        <time>2022-06-02T06:13:19Z</time>
      </trkpt>
      <trkpt lat="42.91501" lon="0.12236">
        <ele>2001.12</ele>
        <time>2022-06-02T06:13:21Z</time>
      </trkpt>
      <trkpt lat="42.91501" lon="0.12235">
        <ele>2005.45</ele>
        <time>2022-06-02T06:13:22Z</time>
      </trkpt>
      <trkpt lat="42.91501" lon="0.12235">
        <ele>2001.12</ele>
        <time>2022-06-02T06:13:25Z</time>
      </trkpt>
      <trkpt lat="42.915" lon="0.12236">
        <ele>2005.45</ele>
        <time>2022-06-02T06:13:26Z</time>
      </trkpt>
      <trkpt lat="42.91502" lon="0.12237">
        <ele>2001.6</ele>
        <time>2022-06-02T06:13:36Z</time>
      </trkpt>
      <trkpt lat="42.91502" lon="0.12237">
        <ele>2005.45</ele>
        <time>2022-06-02T06:13:37Z</time>
      </trkpt>
      <trkpt lat="42.915" lon="0.12237">
        <ele>2004.49</ele>
        <time>2022-06-02T06:13:57Z</time>
      </trkpt>
      <trkpt lat="42.91497" lon="0.12241">
        <ele>2003.52</ele>
        <time>2022-06-02T06:14:18Z</time>
      </trkpt>
      <trkpt lat="42.91495" lon="0.12245">
        <ele>2002.56</ele>
        <time>2022-06-02T06:14:35Z</time>
      </trkpt>
      <trkpt lat="42.91493" lon="0.1225">
        <ele>2002.08</ele>
        <time>2022-06-02T06:14:50Z</time>
      </trkpt>
      <trkpt lat="42.91493" lon="0.1225">
        <ele>2001.6</ele>
        <time>2022-06-02T06:15:03Z</time>
      </trkpt>
      <trkpt lat="42.91492" lon="0.12256">
        <ele>2000.16</ele>
        <time>2022-06-02T06:15:24Z</time>
      </trkpt>
      <trkpt lat="42.9149" lon="0.12266">
        <ele>2000.16</ele>
        <time>2022-06-02T06:15:40Z</time>
      </trkpt>
      <trkpt lat="42.9149" lon="0.12273">
        <ele>2001.6</ele>
        <time>2022-06-02T06:15:53Z</time>
      </trkpt>
      <trkpt lat="42.91485" lon="0.12281">
        <ele>2003.04</ele>
        <time>2022-06-02T06:16:02Z</time>
      </trkpt>
      <trkpt lat="42.91482" lon="0.12288">
        <ele>2002.56</ele>
        <time>2022-06-02T06:16:13Z</time>
      </trkpt>
      <trkpt lat="42.91481" lon="0.12294">
        <ele>2002.08</ele>
        <time>2022-06-02T06:16:17Z</time>
      </trkpt>
      <trkpt lat="42.91476" lon="0.1231">
        <ele>2002.56</ele>
        <time>2022-06-02T06:16:31Z</time>
      </trkpt>
      <trkpt lat="42.91478" lon="0.12322">
        <ele>2004.01</ele>
        <time>2022-06-02T06:16:45Z</time>
      </trkpt>
      <trkpt lat="42.91475" lon="0.12333">
        <ele>2006.89</ele>
        <time>2022-06-02T06:16:57Z</time>
      </trkpt>
      <trkpt lat="42.91474" lon="0.12336">
        <ele>2006.41</ele>
        <time>2022-06-02T06:17:00Z</time>
      </trkpt>
      <trkpt lat="42.91461" lon="0.12353">
        <ele>2007.37</ele>
        <time>2022-06-02T06:17:19Z</time>
      </trkpt>
      <trkpt lat="42.91455" lon="0.12367">
        <ele>2006.89</ele>
        <time>2022-06-02T06:17:34Z</time>
      </trkpt>
      <trkpt lat="42.91445" lon="0.12382">
        <ele>2005.45</ele>
        <time>2022-06-02T06:17:50Z</time>
      </trkpt>
      <trkpt lat="42.91444" lon="0.12383">
        <ele>2004.97</ele>
        <time>2022-06-02T06:17:52Z</time>
      </trkpt>
      <trkpt lat="42.91441" lon="0.12391">
        <ele>2004.49</ele>
        <time>2022-06-02T06:18:06Z</time>
      </trkpt>
      <trkpt lat="42.91435" lon="0.12401">
        <ele>2004.01</ele>
        <time>2022-06-02T06:18:21Z</time>
      </trkpt>
      <trkpt lat="42.91428" lon="0.12418">
        <ele>2004.01</ele>
        <time>2022-06-02T06:18:36Z</time>
      </trkpt>
      <trkpt lat="42.91425" lon="0.12425">
        <ele>2004.01</ele>
        <time>2022-06-02T06:18:41Z</time>
      </trkpt>
      <trkpt lat="42.91423" lon="0.12432">
        <ele>2003.52</ele>
        <time>2022-06-02T06:18:46Z</time>
      </trkpt>
      <trkpt lat="42.9141" lon="0.12452">
        <ele>2004.49</ele>
        <time>2022-06-02T06:19:03Z</time>
      </trkpt>
      <trkpt lat="42.91399" lon="0.12469">
        <ele>2004.97</ele>
        <time>2022-06-02T06:19:19Z</time>
      </trkpt>
      <trkpt lat="42.91394" lon="0.1248">
        <ele>2005.45</ele>
        <time>2022-06-02T06:19:29Z</time>
      </trkpt>
      <trkpt lat="42.91393" lon="0.12484">
        <ele>2004.97</ele>
        <time>2022-06-02T06:19:32Z</time>
      </trkpt>
      <trkpt lat="42.91384" lon="0.12505">
        <ele>2006.41</ele>
        <time>2022-06-02T06:19:48Z</time>
      </trkpt>
      <trkpt lat="42.91374" lon="0.12526">
        <ele>2005.93</ele>
        <time>2022-06-02T06:20:04Z</time>
      </trkpt>
      <trkpt lat="42.91369" lon="0.1255">
        <ele>2005.93</ele>
        <time>2022-06-02T06:20:22Z</time>
      </trkpt>
      <trkpt lat="42.91368" lon="0.12562">
        <ele>2004.97</ele>
        <time>2022-06-02T06:20:31Z</time>
      </trkpt>
      <trkpt lat="42.91367" lon="0.12582">
        <ele>2004.01</ele>
        <time>2022-06-02T06:20:47Z</time>
      </trkpt>
      <trkpt lat="42.91366" lon="0.12586">
        <ele>2003.04</ele>
        <time>2022-06-02T06:20:50Z</time>
      </trkpt>
      <trkpt lat="42.91365" lon="0.12606">
        <ele>2004.01</ele>
        <time>2022-06-02T06:21:04Z</time>
      </trkpt>
      <trkpt lat="42.9136" lon="0.1263">
        <ele>2002.08</ele>
        <time>2022-06-02T06:21:20Z</time>
      </trkpt>
      <trkpt lat="42.91358" lon="0.12633">
        <ele>1999.68</ele>
        <time>2022-06-02T06:21:23Z</time>
      </trkpt>
      <trkpt lat="42.91357" lon="0.12649">
        <ele>2001.6</ele>
        <time>2022-06-02T06:21:37Z</time>
      </trkpt>
      <trkpt lat="42.91353" lon="0.12671">
        <ele>2000.64</ele>
        <time>2022-06-02T06:21:52Z</time>
      </trkpt>
      <trkpt lat="42.91353" lon="0.12686">
        <ele>2000.64</ele>
        <time>2022-06-02T06:22:03Z</time>
      </trkpt>
      <trkpt lat="42.91357" lon="0.12707">
        <ele>2000.16</ele>
        <time>2022-06-02T06:22:19Z</time>
      </trkpt>
      <trkpt lat="42.91358" lon="0.12723">
        <ele>2003.52</ele>
        <time>2022-06-02T06:22:31Z</time>
      </trkpt>
      <trkpt lat="42.9136" lon="0.12734">
        <ele>2003.52</ele>
        <time>2022-06-02T06:22:39Z</time>
      </trkpt>
      <trkpt lat="42.91361" lon="0.12742">
        <ele>2004.01</ele>
        <time>2022-06-02T06:22:45Z</time>
      </trkpt>
      <trkpt lat="42.91364" lon="0.12757">
        <ele>2006.89</ele>
        <time>2022-06-02T06:23:02Z</time>
      </trkpt>
      <trkpt lat="42.91365" lon="0.12774">
        <ele>2009.29</ele>
        <time>2022-06-02T06:23:17Z</time>
      </trkpt>
      <trkpt lat="42.91366" lon="0.12776">
        <ele>2009.77</ele>
        <time>2022-06-02T06:23:19Z</time>
      </trkpt>
      <trkpt lat="42.91372" lon="0.12795">
        <ele>2011.7</ele>
        <time>2022-06-02T06:23:33Z</time>
      </trkpt>
      <trkpt lat="42.91376" lon="0.12807">
        <ele>2013.62</ele>
        <time>2022-06-02T06:23:46Z</time>
      </trkpt>
      <trkpt lat="42.91376" lon="0.12809">
        <ele>2014.1</ele>
        <time>2022-06-02T06:23:48Z</time>
      </trkpt>
      <trkpt lat="42.9138" lon="0.12822">
        <ele>2016.5</ele>
        <time>2022-06-02T06:24:01Z</time>
      </trkpt>
      <trkpt lat="42.91386" lon="0.12838">
        <ele>2017.46</ele>
        <time>2022-06-02T06:24:14Z</time>
      </trkpt>
      <trkpt lat="42.91391" lon="0.12855">
        <ele>2018.91</ele>
        <time>2022-06-02T06:24:28Z</time>
      </trkpt>
      <trkpt lat="42.91396" lon="0.12868">
        <ele>2020.35</ele>
        <time>2022-06-02T06:24:42Z</time>
      </trkpt>
      <trkpt lat="42.91403" lon="0.12881">
        <ele>2022.27</ele>
        <time>2022-06-02T06:24:56Z</time>
      </trkpt>
      <trkpt lat="42.91406" lon="0.12887">
        <ele>2022.75</ele>
        <time>2022-06-02T06:25:00Z</time>
      </trkpt>
      <trkpt lat="42.91407" lon="0.12893">
        <ele>2023.71</ele>
        <time>2022-06-02T06:25:05Z</time>
      </trkpt>
      <trkpt lat="42.91417" lon="0.12904">
        <ele>2025.64</ele>
        <time>2022-06-02T06:25:20Z</time>
      </trkpt>
      <trkpt lat="42.91429" lon="0.12918">
        <ele>2028.52</ele>
        <time>2022-06-02T06:25:36Z</time>
      </trkpt>
      <trkpt lat="42.91432" lon="0.12921">
        <ele>2029</ele>
        <time>2022-06-02T06:25:39Z</time>
      </trkpt>
      <trkpt lat="42.91434" lon="0.12927">
        <ele>2029.48</ele>
        <time>2022-06-02T06:25:44Z</time>
      </trkpt>
      <trkpt lat="42.91445" lon="0.12936">
        <ele>2031.88</ele>
        <time>2022-06-02T06:26:01Z</time>
      </trkpt>
      <trkpt lat="42.91449" lon="0.12941">
        <ele>2033.33</ele>
        <time>2022-06-02T06:26:08Z</time>
      </trkpt>
      <trkpt lat="42.91457" lon="0.12948">
        <ele>2034.77</ele>
        <time>2022-06-02T06:26:18Z</time>
      </trkpt>
      <trkpt lat="42.91469" lon="0.12953">
        <ele>2036.69</ele>
        <time>2022-06-02T06:26:32Z</time>
      </trkpt>
      <trkpt lat="42.91475" lon="0.12957">
        <ele>2040.05</ele>
        <time>2022-06-02T06:26:43Z</time>
      </trkpt>
      <trkpt lat="42.91484" lon="0.12967">
        <ele>2041.5</ele>
        <time>2022-06-02T06:26:58Z</time>
      </trkpt>
      <trkpt lat="42.9149" lon="0.12963">
        <ele>2041.5</ele>
        <time>2022-06-02T06:27:10Z</time>
      </trkpt>
      <trkpt lat="42.91498" lon="0.1297">
        <ele>2042.94</ele>
        <time>2022-06-02T06:27:25Z</time>
      </trkpt>
      <trkpt lat="42.9151" lon="0.12974">
        <ele>2045.34</ele>
        <time>2022-06-02T06:27:39Z</time>
      </trkpt>
      <trkpt lat="42.9152" lon="0.12985">
        <ele>2046.78</ele>
        <time>2022-06-02T06:27:55Z</time>
      </trkpt>
      <trkpt lat="42.91532" lon="0.12996">
        <ele>2048.23</ele>
        <time>2022-06-02T06:28:11Z</time>
      </trkpt>
      <trkpt lat="42.91544" lon="0.13006">
        <ele>2051.11</ele>
        <time>2022-06-02T06:28:27Z</time>
      </trkpt>
      <trkpt lat="42.9155" lon="0.13013">
        <ele>2052.07</ele>
        <time>2022-06-02T06:28:38Z</time>
      </trkpt>
      <trkpt lat="42.9156" lon="0.13022">
        <ele>2055.44</ele>
        <time>2022-06-02T06:28:55Z</time>
      </trkpt>
      <trkpt lat="42.9157" lon="0.13031">
        <ele>2056.4</ele>
        <time>2022-06-02T06:29:09Z</time>
      </trkpt>
      <trkpt lat="42.9158" lon="0.13038">
        <ele>2058.8</ele>
        <time>2022-06-02T06:29:23Z</time>
      </trkpt>
      <trkpt lat="42.91592" lon="0.13048">
        <ele>2061.2</ele>
        <time>2022-06-02T06:29:39Z</time>
      </trkpt>
      <trkpt lat="42.91602" lon="0.13056">
        <ele>2061.68</ele>
        <time>2022-06-02T06:29:53Z</time>
      </trkpt>
      <trkpt lat="42.91609" lon="0.13064">
        <ele>2065.05</ele>
        <time>2022-06-02T06:30:07Z</time>
      </trkpt>
      <trkpt lat="42.9162" lon="0.13068">
        <ele>2066.01</ele>
        <time>2022-06-02T06:30:21Z</time>
      </trkpt>
      <trkpt lat="42.91633" lon="0.13081">
        <ele>2067.93</ele>
        <time>2022-06-02T06:30:36Z</time>
      </trkpt>
      <trkpt lat="42.9164" lon="0.13091">
        <ele>2070.82</ele>
        <time>2022-06-02T06:30:51Z</time>
      </trkpt>
      <trkpt lat="42.91647" lon="0.13099">
        <ele>2073.22</ele>
        <time>2022-06-02T06:31:05Z</time>
      </trkpt>
      <trkpt lat="42.91653" lon="0.13095">
        <ele>2073.7</ele>
        <time>2022-06-02T06:31:14Z</time>
      </trkpt>
      <trkpt lat="42.91668" lon="0.13096">
        <ele>2075.62</ele>
        <time>2022-06-02T06:31:32Z</time>
      </trkpt>
      <trkpt lat="42.91672" lon="0.13104">
        <ele>2077.07</ele>
        <time>2022-06-02T06:31:46Z</time>
      </trkpt>
      <trkpt lat="42.91675" lon="0.13103">
        <ele>2076.59</ele>
        <time>2022-06-02T06:32:09Z</time>
      </trkpt>
      <trkpt lat="42.91684" lon="0.13112">
        <ele>2077.55</ele>
        <time>2022-06-02T06:32:20Z</time>
      </trkpt>
      <trkpt lat="42.91696" lon="0.13121">
        <ele>2079.95</ele>
        <time>2022-06-02T06:32:34Z</time>
      </trkpt>
      <trkpt lat="42.91704" lon="0.13128">
        <ele>2082.83</ele>
        <time>2022-06-02T06:32:50Z</time>
      </trkpt>
      <trkpt lat="42.91714" lon="0.13137">
        <ele>2084.28</ele>
        <time>2022-06-02T06:33:02Z</time>
      </trkpt>
      <trkpt lat="42.91715" lon="0.13139">
        <ele>2085.24</ele>
        <time>2022-06-02T06:33:05Z</time>
      </trkpt>
      <trkpt lat="42.91724" lon="0.13147">
        <ele>2087.64</ele>
        <time>2022-06-02T06:33:20Z</time>
      </trkpt>
      <trkpt lat="42.91734" lon="0.13156">
        <ele>2089.56</ele>
        <time>2022-06-02T06:33:33Z</time>
      </trkpt>
      <trkpt lat="42.91741" lon="0.13164">
        <ele>2092.45</ele>
        <time>2022-06-02T06:33:43Z</time>
      </trkpt>
      <trkpt lat="42.91746" lon="0.1318">
        <ele>2094.37</ele>
        <time>2022-06-02T06:33:59Z</time>
      </trkpt>
      <trkpt lat="42.91747" lon="0.13192">
        <ele>2096.77</ele>
        <time>2022-06-02T06:34:15Z</time>
      </trkpt>
      <trkpt lat="42.91749" lon="0.13199">
        <ele>2098.7</ele>
        <time>2022-06-02T06:34:22Z</time>
      </trkpt>
      <trkpt lat="42.91742" lon="0.13206">
        <ele>2101.58</ele>
        <time>2022-06-02T06:34:35Z</time>
      </trkpt>
      <trkpt lat="42.91736" lon="0.13214">
        <ele>2103.5</ele>
        <time>2022-06-02T06:34:50Z</time>
      </trkpt>
      <trkpt lat="42.91732" lon="0.13226">
        <ele>2104.94</ele>
        <time>2022-06-02T06:35:07Z</time>
      </trkpt>
      <trkpt lat="42.91738" lon="0.13224">
        <ele>2107.83</ele>
        <time>2022-06-02T06:35:21Z</time>
      </trkpt>
      <trkpt lat="42.91748" lon="0.1322">
        <ele>2109.27</ele>
        <time>2022-06-02T06:35:35Z</time>
      </trkpt>
      <trkpt lat="42.91752" lon="0.1322">
        <ele>2110.23</ele>
        <time>2022-06-02T06:35:41Z</time>
      </trkpt>
      <trkpt lat="42.91763" lon="0.13218">
        <ele>2111.67</ele>
        <time>2022-06-02T06:35:56Z</time>
      </trkpt>
      <trkpt lat="42.9177" lon="0.13218">
        <ele>2113.12</ele>
        <time>2022-06-02T06:36:08Z</time>
      </trkpt>
      <trkpt lat="42.91776" lon="0.13202">
        <ele>2115.04</ele>
        <time>2022-06-02T06:36:23Z</time>
      </trkpt>
      <trkpt lat="42.91778" lon="0.13182">
        <ele>2116.48</ele>
        <time>2022-06-02T06:36:40Z</time>
      </trkpt>
      <trkpt lat="42.91779" lon="0.13176">
        <ele>2117.44</ele>
        <time>2022-06-02T06:36:52Z</time>
      </trkpt>
      <trkpt lat="42.91777" lon="0.13158">
        <ele>2119.36</ele>
        <time>2022-06-02T06:37:05Z</time>
      </trkpt>
      <trkpt lat="42.91781" lon="0.13143">
        <ele>2121.29</ele>
        <time>2022-06-02T06:37:18Z</time>
      </trkpt>
      <trkpt lat="42.91791" lon="0.13142">
        <ele>2123.21</ele>
        <time>2022-06-02T06:37:32Z</time>
      </trkpt>
      <trkpt lat="42.91796" lon="0.13137">
        <ele>2124.17</ele>
        <time>2022-06-02T06:37:44Z</time>
      </trkpt>
      <trkpt lat="42.91802" lon="0.1313">
        <ele>2125.13</ele>
        <time>2022-06-02T06:37:58Z</time>
      </trkpt>
      <trkpt lat="42.9181" lon="0.13125">
        <ele>2127.53</ele>
        <time>2022-06-02T06:38:13Z</time>
      </trkpt>
      <trkpt lat="42.91815" lon="0.13135">
        <ele>2128.98</ele>
        <time>2022-06-02T06:38:27Z</time>
      </trkpt>
      <trkpt lat="42.91811" lon="0.13154">
        <ele>2130.42</ele>
        <time>2022-06-02T06:38:44Z</time>
      </trkpt>
      <trkpt lat="42.91809" lon="0.13165">
        <ele>2131.38</ele>
        <time>2022-06-02T06:38:56Z</time>
      </trkpt>
      <trkpt lat="42.91814" lon="0.13181">
        <ele>2133.3</ele>
        <time>2022-06-02T06:39:11Z</time>
      </trkpt>
      <trkpt lat="42.91819" lon="0.13185">
        <ele>2134.74</ele>
        <time>2022-06-02T06:39:24Z</time>
      </trkpt>
      <trkpt lat="42.9183" lon="0.13186">
        <ele>2136.67</ele>
        <time>2022-06-02T06:39:40Z</time>
      </trkpt>
      <trkpt lat="42.91838" lon="0.13182">
        <ele>2139.07</ele>
        <time>2022-06-02T06:39:56Z</time>
      </trkpt>
      <trkpt lat="42.91849" lon="0.13183">
        <ele>2140.03</ele>
        <time>2022-06-02T06:40:10Z</time>
      </trkpt>
      <trkpt lat="42.91857" lon="0.13185">
        <ele>2141.47</ele>
        <time>2022-06-02T06:40:23Z</time>
      </trkpt>
      <trkpt lat="42.91866" lon="0.13184">
        <ele>2142.44</ele>
        <time>2022-06-02T06:40:33Z</time>
      </trkpt>
      <trkpt lat="42.91878" lon="0.1318">
        <ele>2145.32</ele>
        <time>2022-06-02T06:40:48Z</time>
      </trkpt>
      <trkpt lat="42.91885" lon="0.13181">
        <ele>2146.76</ele>
        <time>2022-06-02T06:41:01Z</time>
      </trkpt>
      <trkpt lat="42.91894" lon="0.13179">
        <ele>2147.72</ele>
        <time>2022-06-02T06:41:14Z</time>
      </trkpt>
      <trkpt lat="42.91898" lon="0.13182">
        <ele>2147.72</ele>
        <time>2022-06-02T06:41:19Z</time>
      </trkpt>
      <trkpt lat="42.91906" lon="0.13197">
        <ele>2149.65</ele>
        <time>2022-06-02T06:41:35Z</time>
      </trkpt>
      <trkpt lat="42.91911" lon="0.13207">
        <ele>2150.61</ele>
        <time>2022-06-02T06:41:44Z</time>
      </trkpt>
      <trkpt lat="42.9192" lon="0.1322">
        <ele>2151.09</ele>
        <time>2022-06-02T06:41:56Z</time>
      </trkpt>
      <trkpt lat="42.9193" lon="0.1323">
        <ele>2152.05</ele>
        <time>2022-06-02T06:42:11Z</time>
      </trkpt>
      <trkpt lat="42.9194" lon="0.13234">
        <ele>2153.97</ele>
        <time>2022-06-02T06:42:25Z</time>
      </trkpt>
      <trkpt lat="42.91954" lon="0.13232">
        <ele>2156.37</ele>
        <time>2022-06-02T06:42:43Z</time>
      </trkpt>
      <trkpt lat="42.91965" lon="0.13218">
        <ele>2158.78</ele>
        <time>2022-06-02T06:42:59Z</time>
      </trkpt>
      <trkpt lat="42.91975" lon="0.13213">
        <ele>2161.18</ele>
        <time>2022-06-02T06:43:14Z</time>
      </trkpt>
      <trkpt lat="42.9198" lon="0.13213">
        <ele>2162.14</ele>
        <time>2022-06-02T06:43:27Z</time>
      </trkpt>
      <trkpt lat="42.91993" lon="0.13219">
        <ele>2164.06</ele>
        <time>2022-06-02T06:43:43Z</time>
      </trkpt>
      <trkpt lat="42.92007" lon="0.13217">
        <ele>2165.99</ele>
        <time>2022-06-02T06:43:59Z</time>
      </trkpt>
      <trkpt lat="42.9201" lon="0.13217">
        <ele>2166.95</ele>
        <time>2022-06-02T06:44:06Z</time>
      </trkpt>
      <trkpt lat="42.92026" lon="0.13218">
        <ele>2168.87</ele>
        <time>2022-06-02T06:44:22Z</time>
      </trkpt>
      <trkpt lat="42.92035" lon="0.13217">
        <ele>2171.27</ele>
        <time>2022-06-02T06:44:37Z</time>
      </trkpt>
      <trkpt lat="42.92036" lon="0.13217">
        <ele>2171.76</ele>
        <time>2022-06-02T06:44:38Z</time>
      </trkpt>
      <trkpt lat="42.92042" lon="0.1322">
        <ele>2171.27</ele>
        <time>2022-06-02T06:44:45Z</time>
      </trkpt>
      <trkpt lat="42.92056" lon="0.13235">
        <ele>2170.79</ele>
        <time>2022-06-02T06:45:00Z</time>
      </trkpt>
      <trkpt lat="42.9207" lon="0.13238">
        <ele>2172.72</ele>
        <time>2022-06-02T06:45:14Z</time>
      </trkpt>
      <trkpt lat="42.9208" lon="0.13246">
        <ele>2171.76</ele>
        <time>2022-06-02T06:45:27Z</time>
      </trkpt>
      <trkpt lat="42.92093" lon="0.13252">
        <ele>2170.79</ele>
        <time>2022-06-02T06:45:40Z</time>
      </trkpt>
      <trkpt lat="42.92094" lon="0.13253">
        <ele>2170.31</ele>
        <time>2022-06-02T06:45:41Z</time>
      </trkpt>
      <trkpt lat="42.92106" lon="0.1326">
        <ele>2169.83</ele>
        <time>2022-06-02T06:45:55Z</time>
      </trkpt>
      <trkpt lat="42.92115" lon="0.13266">
        <ele>2168.87</ele>
        <time>2022-06-02T06:46:06Z</time>
      </trkpt>
      <trkpt lat="42.92126" lon="0.13268">
        <ele>2169.83</ele>
        <time>2022-06-02T06:46:22Z</time>
      </trkpt>
      <trkpt lat="42.92138" lon="0.13272">
        <ele>2170.31</ele>
        <time>2022-06-02T06:46:36Z</time>
      </trkpt>
      <trkpt lat="42.92152" lon="0.13273">
        <ele>2172.24</ele>
        <time>2022-06-02T06:46:51Z</time>
      </trkpt>
      <trkpt lat="42.92166" lon="0.13276">
        <ele>2174.64</ele>
        <time>2022-06-02T06:47:09Z</time>
      </trkpt>
      <trkpt lat="42.92177" lon="0.13275">
        <ele>2177.52</ele>
        <time>2022-06-02T06:47:24Z</time>
      </trkpt>
      <trkpt lat="42.92191" lon="0.1328">
        <ele>2179.93</ele>
        <time>2022-06-02T06:47:40Z</time>
      </trkpt>
      <trkpt lat="42.92204" lon="0.13281">
        <ele>2181.85</ele>
        <time>2022-06-02T06:47:56Z</time>
      </trkpt>
      <trkpt lat="42.92216" lon="0.1328">
        <ele>2184.25</ele>
        <time>2022-06-02T06:48:12Z</time>
      </trkpt>
      <trkpt lat="42.92229" lon="0.13278">
        <ele>2185.69</ele>
        <time>2022-06-02T06:48:26Z</time>
      </trkpt>
      <trkpt lat="42.92242" lon="0.13277">
        <ele>2188.1</ele>
        <time>2022-06-02T06:48:42Z</time>
      </trkpt>
      <trkpt lat="42.92254" lon="0.13276">
        <ele>2189.54</ele>
        <time>2022-06-02T06:48:55Z</time>
      </trkpt>
      <trkpt lat="42.92266" lon="0.13282">
        <ele>2191.94</ele>
        <time>2022-06-02T06:49:11Z</time>
      </trkpt>
      <trkpt lat="42.92276" lon="0.13287">
        <ele>2194.35</ele>
        <time>2022-06-02T06:49:27Z</time>
      </trkpt>
      <trkpt lat="42.92287" lon="0.13286">
        <ele>2196.75</ele>
        <time>2022-06-02T06:49:42Z</time>
      </trkpt>
      <trkpt lat="42.92303" lon="0.13289">
        <ele>2199.63</ele>
        <time>2022-06-02T06:49:59Z</time>
      </trkpt>
      <trkpt lat="42.92306" lon="0.1329">
        <ele>2200.11</ele>
        <time>2022-06-02T06:50:02Z</time>
      </trkpt>
      <trkpt lat="42.92323" lon="0.13297">
        <ele>2200.59</ele>
        <time>2022-06-02T06:50:20Z</time>
      </trkpt>
      <trkpt lat="42.92339" lon="0.13305">
        <ele>2202.04</ele>
        <time>2022-06-02T06:50:37Z</time>
      </trkpt>
      <trkpt lat="42.92352" lon="0.13313">
        <ele>2202.04</ele>
        <time>2022-06-02T06:50:53Z</time>
      </trkpt>
      <trkpt lat="42.92353" lon="0.13314">
        <ele>2202.04</ele>
        <time>2022-06-02T06:50:59Z</time>
      </trkpt>
      <trkpt lat="42.92359" lon="0.13316">
        <ele>2202.52</ele>
        <time>2022-06-02T06:51:12Z</time>
      </trkpt>
      <trkpt lat="42.92365" lon="0.13319">
        <ele>2203.96</ele>
        <time>2022-06-02T06:51:26Z</time>
      </trkpt>
      <trkpt lat="42.92368" lon="0.1332">
        <ele>2204.92</ele>
        <time>2022-06-02T06:51:42Z</time>
      </trkpt>
      <trkpt lat="42.92366" lon="0.13322">
        <ele>2204.44</ele>
        <time>2022-06-02T06:51:54Z</time>
      </trkpt>
      <trkpt lat="42.92366" lon="0.13321">
        <ele>2204.44</ele>
        <time>2022-06-02T06:52:20Z</time>
      </trkpt>
      <trkpt lat="42.92365" lon="0.1332">
        <ele>2205.4</ele>
        <time>2022-06-02T06:52:48Z</time>
      </trkpt>
      <trkpt lat="42.92364" lon="0.13322">
        <ele>2204.44</ele>
        <time>2022-06-02T06:53:20Z</time>
      </trkpt>
      <trkpt lat="42.92366" lon="0.13322">
        <ele>2204.44</ele>
        <time>2022-06-02T06:54:02Z</time>
      </trkpt>
      <trkpt lat="42.92366" lon="0.13323">
        <ele>2204.44</ele>
        <time>2022-06-02T06:54:46Z</time>
      </trkpt>
      <trkpt lat="42.92366" lon="0.13322">
        <ele>2204.92</ele>
        <time>2022-06-02T06:55:24Z</time>
      </trkpt>
      <trkpt lat="42.92367" lon="0.13321">
        <ele>2204.44</ele>
        <time>2022-06-02T06:56:05Z</time>
      </trkpt>
      <trkpt lat="42.92366" lon="0.13323">
        <ele>2205.88</ele>
        <time>2022-06-02T06:56:42Z</time>
      </trkpt>
      <trkpt lat="42.92368" lon="0.13323">
        <ele>2205.4</ele>
        <time>2022-06-02T06:57:23Z</time>
      </trkpt>
      <trkpt lat="42.92364" lon="0.13325">
        <ele>2206.36</ele>
        <time>2022-06-02T06:57:55Z</time>
      </trkpt>
      <trkpt lat="42.92366" lon="0.13326">
        <ele>2205.88</ele>
        <time>2022-06-02T06:58:35Z</time>
      </trkpt>
      <trkpt lat="42.92365" lon="0.13324">
        <ele>2206.84</ele>
        <time>2022-06-02T06:59:04Z</time>
      </trkpt>
      <trkpt lat="42.92365" lon="0.13324">
        <ele>2206.36</ele>
        <time>2022-06-02T06:59:30Z</time>
      </trkpt>
      <trkpt lat="42.92365" lon="0.13328">
        <ele>2206.36</ele>
        <time>2022-06-02T07:00:04Z</time>
      </trkpt>
      <trkpt lat="42.92367" lon="0.13324">
        <ele>2206.84</ele>
        <time>2022-06-02T07:00:41Z</time>
      </trkpt>
      <trkpt lat="42.92367" lon="0.13322">
        <ele>2206.36</ele>
        <time>2022-06-02T07:01:16Z</time>
      </trkpt>
      <trkpt lat="42.92367" lon="0.13324">
        <ele>2206.36</ele>
        <time>2022-06-02T07:02:06Z</time>
      </trkpt>
      <trkpt lat="42.92367" lon="0.13323">
        <ele>2207.32</ele>
        <time>2022-06-02T07:02:52Z</time>
      </trkpt>
      <trkpt lat="42.92366" lon="0.13324">
        <ele>2206.84</ele>
        <time>2022-06-02T07:03:25Z</time>
      </trkpt>
      <trkpt lat="42.92367" lon="0.13325">
        <ele>2207.32</ele>
        <time>2022-06-02T07:03:50Z</time>
      </trkpt>
      <trkpt lat="42.92366" lon="0.13328">
        <ele>2206.84</ele>
        <time>2022-06-02T07:04:25Z</time>
      </trkpt>
      <trkpt lat="42.92366" lon="0.13323">
        <ele>2206.84</ele>
        <time>2022-06-02T07:04:57Z</time>
      </trkpt>
      <trkpt lat="42.92369" lon="0.13323">
        <ele>2206.84</ele>
        <time>2022-06-02T07:05:12Z</time>
      </trkpt>
      <trkpt lat="42.92367" lon="0.13321">
        <ele>2208.29</ele>
        <time>2022-06-02T07:05:22Z</time>
      </trkpt>
      <trkpt lat="42.92368" lon="0.1332">
        <ele>2208.29</ele>
        <time>2022-06-02T07:05:36Z</time>
      </trkpt>
      <trkpt lat="42.92367" lon="0.13321">
        <ele>2207.81</ele>
        <time>2022-06-02T07:05:55Z</time>
      </trkpt>
      <trkpt lat="42.92367" lon="0.1332">
        <ele>2208.77</ele>
        <time>2022-06-02T07:06:18Z</time>
      </trkpt>
      <trkpt lat="42.92365" lon="0.13322">
        <ele>2208.77</ele>
        <time>2022-06-02T07:06:45Z</time>
      </trkpt>
      <trkpt lat="42.92373" lon="0.13327">
        <ele>2208.29</ele>
        <time>2022-06-02T07:07:00Z</time>
      </trkpt>
      <trkpt lat="42.92376" lon="0.13329">
        <ele>2207.32</ele>
        <time>2022-06-02T07:07:06Z</time>
      </trkpt>
      <trkpt lat="42.92377" lon="0.1333">
        <ele>2207.32</ele>
        <time>2022-06-02T07:07:07Z</time>
      </trkpt>
      <trkpt lat="42.92377" lon="0.13333">
        <ele>2207.32</ele>
        <time>2022-06-02T07:07:21Z</time>
      </trkpt>
      <trkpt lat="42.92378" lon="0.13335">
        <ele>2207.32</ele>
        <time>2022-06-02T07:07:36Z</time>
      </trkpt>
      <trkpt lat="42.92378" lon="0.13333">
        <ele>2206.84</ele>
        <time>2022-06-02T07:07:51Z</time>
      </trkpt>
      <trkpt lat="42.92377" lon="0.13335">
        <ele>2207.32</ele>
        <time>2022-06-02T07:08:06Z</time>
      </trkpt>
      <trkpt lat="42.92377" lon="0.13336">
        <ele>2206.84</ele>
        <time>2022-06-02T07:08:24Z</time>
      </trkpt>
      <trkpt lat="42.92379" lon="0.13335">
        <ele>2206.36</ele>
        <time>2022-06-02T07:08:53Z</time>
      </trkpt>
      <trkpt lat="42.92379" lon="0.13336">
        <ele>2206.84</ele>
        <time>2022-06-02T07:09:14Z</time>
      </trkpt>
      <trkpt lat="42.92377" lon="0.13333">
        <ele>2207.81</ele>
        <time>2022-06-02T07:09:24Z</time>
      </trkpt>
      <trkpt lat="42.92376" lon="0.13335">
        <ele>2207.81</ele>
        <time>2022-06-02T07:09:41Z</time>
      </trkpt>
      <trkpt lat="42.9238" lon="0.13336">
        <ele>2208.29</ele>
        <time>2022-06-02T07:10:01Z</time>
      </trkpt>
      <trkpt lat="42.92383" lon="0.1334">
        <ele>2208.29</ele>
        <time>2022-06-02T07:10:22Z</time>
      </trkpt>
      <trkpt lat="42.9239" lon="0.13348">
        <ele>2209.25</ele>
        <time>2022-06-02T07:10:32Z</time>
      </trkpt>
      <trkpt lat="42.924" lon="0.1336">
        <ele>2210.21</ele>
        <time>2022-06-02T07:10:46Z</time>
      </trkpt>
      <trkpt lat="42.92408" lon="0.13369">
        <ele>2211.17</ele>
        <time>2022-06-02T07:10:59Z</time>
      </trkpt>
      <trkpt lat="42.92411" lon="0.1337">
        <ele>2211.17</ele>
        <time>2022-06-02T07:11:01Z</time>
      </trkpt>
      <trkpt lat="42.92421" lon="0.13383">
        <ele>2212.61</ele>
        <time>2022-06-02T07:11:16Z</time>
      </trkpt>
      <trkpt lat="42.9243" lon="0.13391">
        <ele>2214.05</ele>
        <time>2022-06-02T07:11:29Z</time>
      </trkpt>
      <trkpt lat="42.92435" lon="0.13394">
        <ele>2214.53</ele>
        <time>2022-06-02T07:11:35Z</time>
      </trkpt>
      <trkpt lat="42.92443" lon="0.13403">
        <ele>2215.01</ele>
        <time>2022-06-02T07:11:49Z</time>
      </trkpt>
      <trkpt lat="42.92454" lon="0.13416">
        <ele>2217.42</ele>
        <time>2022-06-02T07:12:03Z</time>
      </trkpt>
      <trkpt lat="42.92455" lon="0.13418">
        <ele>2217.9</ele>
        <time>2022-06-02T07:12:05Z</time>
      </trkpt>
      <trkpt lat="42.92457" lon="0.13428">
        <ele>2218.86</ele>
        <time>2022-06-02T07:12:13Z</time>
      </trkpt>
      <trkpt lat="42.92452" lon="0.13443">
        <ele>2220.78</ele>
        <time>2022-06-02T07:12:28Z</time>
      </trkpt>
      <trkpt lat="42.9244" lon="0.13454">
        <ele>2222.22</ele>
        <time>2022-06-02T07:12:44Z</time>
      </trkpt>
      <trkpt lat="42.92438" lon="0.13457">
        <ele>2225.59</ele>
        <time>2022-06-02T07:13:00Z</time>
      </trkpt>
      <trkpt lat="42.92447" lon="0.13464">
        <ele>2227.03</ele>
        <time>2022-06-02T07:13:12Z</time>
      </trkpt>
      <trkpt lat="42.92458" lon="0.13473">
        <ele>2229.92</ele>
        <time>2022-06-02T07:13:29Z</time>
      </trkpt>
      <trkpt lat="42.92468" lon="0.1348">
        <ele>2231.84</ele>
        <time>2022-06-02T07:13:45Z</time>
      </trkpt>
      <trkpt lat="42.92472" lon="0.13483">
        <ele>2232.32</ele>
        <time>2022-06-02T07:13:49Z</time>
      </trkpt>
      <trkpt lat="42.92478" lon="0.13488">
        <ele>2234.72</ele>
        <time>2022-06-02T07:14:04Z</time>
      </trkpt>
      <trkpt lat="42.92486" lon="0.13496">
        <ele>2235.68</ele>
        <time>2022-06-02T07:14:19Z</time>
      </trkpt>
      <trkpt lat="42.92492" lon="0.13503">
        <ele>2237.61</ele>
        <time>2022-06-02T07:14:31Z</time>
      </trkpt>
      <trkpt lat="42.92503" lon="0.13514">
        <ele>2239.53</ele>
        <time>2022-06-02T07:14:47Z</time>
      </trkpt>
      <trkpt lat="42.92505" lon="0.13523">
        <ele>2242.41</ele>
        <time>2022-06-02T07:15:01Z</time>
      </trkpt>
      <trkpt lat="42.92499" lon="0.13529">
        <ele>2244.82</ele>
        <time>2022-06-02T07:15:14Z</time>
      </trkpt>
      <trkpt lat="42.92501" lon="0.13526">
        <ele>2244.82</ele>
        <time>2022-06-02T07:15:32Z</time>
      </trkpt>
      <trkpt lat="42.92496" lon="0.1353">
        <ele>2244.33</ele>
        <time>2022-06-02T07:15:57Z</time>
      </trkpt>
      <trkpt lat="42.92494" lon="0.13531">
        <ele>2244.82</ele>
        <time>2022-06-02T07:16:16Z</time>
      </trkpt>
      <trkpt lat="42.92506" lon="0.13533">
        <ele>2246.26</ele>
        <time>2022-06-02T07:16:32Z</time>
      </trkpt>
      <trkpt lat="42.9251" lon="0.13533">
        <ele>2246.26</ele>
        <time>2022-06-02T07:16:46Z</time>
      </trkpt>
      <trkpt lat="42.92508" lon="0.13542">
        <ele>2248.18</ele>
        <time>2022-06-02T07:17:00Z</time>
      </trkpt>
      <trkpt lat="42.92509" lon="0.13549">
        <ele>2251.06</ele>
        <time>2022-06-02T07:17:13Z</time>
      </trkpt>
      <trkpt lat="42.92516" lon="0.13555">
        <ele>2252.51</ele>
        <time>2022-06-02T07:17:25Z</time>
      </trkpt>
      <trkpt lat="42.92525" lon="0.13558">
        <ele>2254.43</ele>
        <time>2022-06-02T07:17:42Z</time>
      </trkpt>
      <trkpt lat="42.92527" lon="0.13559">
        <ele>2254.91</ele>
        <time>2022-06-02T07:17:57Z</time>
      </trkpt>
      <trkpt lat="42.92532" lon="0.13564">
        <ele>2255.39</ele>
        <time>2022-06-02T07:18:14Z</time>
      </trkpt>
      <trkpt lat="42.92537" lon="0.13576">
        <ele>2258.27</ele>
        <time>2022-06-02T07:18:29Z</time>
      </trkpt>
      <trkpt lat="42.92542" lon="0.13584">
        <ele>2260.68</ele>
        <time>2022-06-02T07:18:43Z</time>
      </trkpt>
      <trkpt lat="42.92546" lon="0.13591">
        <ele>2263.08</ele>
        <time>2022-06-02T07:18:58Z</time>
      </trkpt>
      <trkpt lat="42.92553" lon="0.13601">
        <ele>2265.96</ele>
        <time>2022-06-02T07:19:16Z</time>
      </trkpt>
      <trkpt lat="42.92557" lon="0.13611">
        <ele>2268.37</ele>
        <time>2022-06-02T07:19:30Z</time>
      </trkpt>
      <trkpt lat="42.92563" lon="0.13619">
        <ele>2269.33</ele>
        <time>2022-06-02T07:19:45Z</time>
      </trkpt>
      <trkpt lat="42.9257" lon="0.13631">
        <ele>2272.21</ele>
        <time>2022-06-02T07:20:01Z</time>
      </trkpt>
      <trkpt lat="42.92576" lon="0.13637">
        <ele>2274.62</ele>
        <time>2022-06-02T07:20:15Z</time>
      </trkpt>
      <trkpt lat="42.92584" lon="0.13645">
        <ele>2277.02</ele>
        <time>2022-06-02T07:20:32Z</time>
      </trkpt>
      <trkpt lat="42.92586" lon="0.13647">
        <ele>2277.5</ele>
        <time>2022-06-02T07:20:36Z</time>
      </trkpt>
      <trkpt lat="42.92596" lon="0.13656">
        <ele>2279.42</ele>
        <time>2022-06-02T07:20:50Z</time>
      </trkpt>
      <trkpt lat="42.92606" lon="0.13664">
        <ele>2281.83</ele>
        <time>2022-06-02T07:21:08Z</time>
      </trkpt>
      <trkpt lat="42.92611" lon="0.13668">
        <ele>2284.23</ele>
        <time>2022-06-02T07:21:23Z</time>
      </trkpt>
      <trkpt lat="42.92621" lon="0.13672">
        <ele>2287.59</ele>
        <time>2022-06-02T07:21:40Z</time>
      </trkpt>
      <trkpt lat="42.9263" lon="0.13675">
        <ele>2289.52</ele>
        <time>2022-06-02T07:21:54Z</time>
      </trkpt>
      <trkpt lat="42.92637" lon="0.13676">
        <ele>2291.44</ele>
        <time>2022-06-02T07:22:09Z</time>
      </trkpt>
      <trkpt lat="42.92645" lon="0.1368">
        <ele>2294.8</ele>
        <time>2022-06-02T07:22:26Z</time>
      </trkpt>
      <trkpt lat="42.92651" lon="0.13685">
        <ele>2296.73</ele>
        <time>2022-06-02T07:22:41Z</time>
      </trkpt>
      <trkpt lat="42.92657" lon="0.13694">
        <ele>2299.61</ele>
        <time>2022-06-02T07:22:58Z</time>
      </trkpt>
      <trkpt lat="42.92661" lon="0.13699">
        <ele>2301.53</ele>
        <time>2022-06-02T07:23:11Z</time>
      </trkpt>
      <trkpt lat="42.92661" lon="0.13701">
        <ele>2302.01</ele>
        <time>2022-06-02T07:23:13Z</time>
      </trkpt>
      <trkpt lat="42.92651" lon="0.13712">
        <ele>2303.94</ele>
        <time>2022-06-02T07:23:30Z</time>
      </trkpt>
      <trkpt lat="42.92643" lon="0.13724">
        <ele>2306.34</ele>
        <time>2022-06-02T07:23:47Z</time>
      </trkpt>
      <trkpt lat="42.92644" lon="0.13721">
        <ele>2308.26</ele>
        <time>2022-06-02T07:23:57Z</time>
      </trkpt>
      <trkpt lat="42.92654" lon="0.13719">
        <ele>2310.19</ele>
        <time>2022-06-02T07:24:14Z</time>
      </trkpt>
      <trkpt lat="42.92663" lon="0.13721">
        <ele>2312.11</ele>
        <time>2022-06-02T07:24:29Z</time>
      </trkpt>
      <trkpt lat="42.92667" lon="0.13724">
        <ele>2313.55</ele>
        <time>2022-06-02T07:24:38Z</time>
      </trkpt>
      <trkpt lat="42.92671" lon="0.13732">
        <ele>2314.99</ele>
        <time>2022-06-02T07:24:51Z</time>
      </trkpt>
      <trkpt lat="42.92668" lon="0.13734">
        <ele>2315.47</ele>
        <time>2022-06-02T07:24:56Z</time>
      </trkpt>
      <trkpt lat="42.92656" lon="0.13738">
        <ele>2315.95</ele>
        <time>2022-06-02T07:25:11Z</time>
      </trkpt>
      <trkpt lat="42.92647" lon="0.13744">
        <ele>2316.91</ele>
        <time>2022-06-02T07:25:26Z</time>
      </trkpt>
      <trkpt lat="42.92653" lon="0.13742">
        <ele>2319.32</ele>
        <time>2022-06-02T07:25:41Z</time>
      </trkpt>
      <trkpt lat="42.92659" lon="0.13751">
        <ele>2321.72</ele>
        <time>2022-06-02T07:25:57Z</time>
      </trkpt>
      <trkpt lat="42.92669" lon="0.13756">
        <ele>2324.12</ele>
        <time>2022-06-02T07:26:14Z</time>
      </trkpt>
      <trkpt lat="42.92674" lon="0.13757">
        <ele>2325.09</ele>
        <time>2022-06-02T07:26:28Z</time>
      </trkpt>
      <trkpt lat="42.92668" lon="0.13757">
        <ele>2325.09</ele>
        <time>2022-06-02T07:26:49Z</time>
      </trkpt>
      <trkpt lat="42.92668" lon="0.13763">
        <ele>2324.12</ele>
        <time>2022-06-02T07:26:54Z</time>
      </trkpt>
      <trkpt lat="42.92667" lon="0.13764">
        <ele>2327.49</ele>
        <time>2022-06-02T07:26:56Z</time>
      </trkpt>
      <trkpt lat="42.92668" lon="0.13764">
        <ele>2327.49</ele>
        <time>2022-06-02T07:26:57Z</time>
      </trkpt>
      <trkpt lat="42.92668" lon="0.13764">
        <ele>2325.57</ele>
        <time>2022-06-02T07:26:59Z</time>
      </trkpt>
      <trkpt lat="42.92679" lon="0.13761">
        <ele>2327.01</ele>
        <time>2022-06-02T07:27:13Z</time>
      </trkpt>
      <trkpt lat="42.92688" lon="0.13764">
        <ele>2329.89</ele>
        <time>2022-06-02T07:27:27Z</time>
      </trkpt>
      <trkpt lat="42.92697" lon="0.13769">
        <ele>2331.81</ele>
        <time>2022-06-02T07:27:42Z</time>
      </trkpt>
      <trkpt lat="42.92699" lon="0.13775">
        <ele>2332.3</ele>
        <time>2022-06-02T07:27:49Z</time>
      </trkpt>
      <trkpt lat="42.92709" lon="0.13779">
        <ele>2333.74</ele>
        <time>2022-06-02T07:28:04Z</time>
      </trkpt>
      <trkpt lat="42.92708" lon="0.1378">
        <ele>2334.22</ele>
        <time>2022-06-02T07:28:17Z</time>
      </trkpt>
      <trkpt lat="42.92708" lon="0.13782">
        <ele>2333.74</ele>
        <time>2022-06-02T07:28:31Z</time>
      </trkpt>
      <trkpt lat="42.92704" lon="0.13787">
        <ele>2334.22</ele>
        <time>2022-06-02T07:28:54Z</time>
      </trkpt>
      <trkpt lat="42.92703" lon="0.13784">
        <ele>2334.22</ele>
        <time>2022-06-02T07:29:05Z</time>
      </trkpt>
      <trkpt lat="42.92709" lon="0.13781">
        <ele>2334.22</ele>
        <time>2022-06-02T07:29:18Z</time>
      </trkpt>
      <trkpt lat="42.92711" lon="0.13777">
        <ele>2334.7</ele>
        <time>2022-06-02T07:29:32Z</time>
      </trkpt>
      <trkpt lat="42.92708" lon="0.13779">
        <ele>2334.7</ele>
        <time>2022-06-02T07:29:49Z</time>
      </trkpt>
      <trkpt lat="42.92708" lon="0.13776">
        <ele>2335.66</ele>
        <time>2022-06-02T07:29:58Z</time>
      </trkpt>
      <trkpt lat="42.9271" lon="0.13777">
        <ele>2335.18</ele>
        <time>2022-06-02T07:30:18Z</time>
      </trkpt>
      <trkpt lat="42.92714" lon="0.13779">
        <ele>2336.14</ele>
        <time>2022-06-02T07:30:28Z</time>
      </trkpt>
      <trkpt lat="42.92721" lon="0.13787">
        <ele>2337.58</ele>
        <time>2022-06-02T07:30:41Z</time>
      </trkpt>
      <trkpt lat="42.92727" lon="0.13791">
        <ele>2338.06</ele>
        <time>2022-06-02T07:30:54Z</time>
      </trkpt>
      <trkpt lat="42.92729" lon="0.13796">
        <ele>2338.06</ele>
        <time>2022-06-02T07:31:09Z</time>
      </trkpt>
      <trkpt lat="42.92742" lon="0.13799">
        <ele>2339.51</ele>
        <time>2022-06-02T07:31:24Z</time>
      </trkpt>
      <trkpt lat="42.92756" lon="0.13801">
        <ele>2339.99</ele>
        <time>2022-06-02T07:31:38Z</time>
      </trkpt>
      <trkpt lat="42.92762" lon="0.13807">
        <ele>2340.47</ele>
        <time>2022-06-02T07:31:53Z</time>
      </trkpt>
      <trkpt lat="42.92769" lon="0.13812">
        <ele>2342.39</ele>
        <time>2022-06-02T07:32:06Z</time>
      </trkpt>
      <trkpt lat="42.92778" lon="0.13816">
        <ele>2344.31</ele>
        <time>2022-06-02T07:32:19Z</time>
      </trkpt>
      <trkpt lat="42.92788" lon="0.13821">
        <ele>2345.27</ele>
        <time>2022-06-02T07:32:32Z</time>
      </trkpt>
      <trkpt lat="42.92798" lon="0.13826">
        <ele>2345.75</ele>
        <time>2022-06-02T07:32:45Z</time>
      </trkpt>
      <trkpt lat="42.92808" lon="0.13828">
        <ele>2346.72</ele>
        <time>2022-06-02T07:32:59Z</time>
      </trkpt>
      <trkpt lat="42.92808" lon="0.13829">
        <ele>2346.23</ele>
        <time>2022-06-02T07:33:00Z</time>
      </trkpt>
      <trkpt lat="42.9282" lon="0.13834">
        <ele>2348.16</ele>
        <time>2022-06-02T07:33:17Z</time>
      </trkpt>
      <trkpt lat="42.92832" lon="0.1384">
        <ele>2349.6</ele>
        <time>2022-06-02T07:33:32Z</time>
      </trkpt>
      <trkpt lat="42.92842" lon="0.13846">
        <ele>2351.52</ele>
        <time>2022-06-02T07:33:49Z</time>
      </trkpt>
      <trkpt lat="42.92856" lon="0.1385">
        <ele>2352.96</ele>
        <time>2022-06-02T07:34:06Z</time>
      </trkpt>
      <trkpt lat="42.92865" lon="0.13853">
        <ele>2353.93</ele>
        <time>2022-06-02T07:34:22Z</time>
      </trkpt>
      <trkpt lat="42.92877" lon="0.13856">
        <ele>2354.41</ele>
        <time>2022-06-02T07:34:36Z</time>
      </trkpt>
      <trkpt lat="42.92888" lon="0.13856">
        <ele>2355.37</ele>
        <time>2022-06-02T07:34:49Z</time>
      </trkpt>
      <trkpt lat="42.92895" lon="0.13855">
        <ele>2354.89</ele>
        <time>2022-06-02T07:35:03Z</time>
      </trkpt>
      <trkpt lat="42.92891" lon="0.13853">
        <ele>2355.37</ele>
        <time>2022-06-02T07:35:23Z</time>
      </trkpt>
      <trkpt lat="42.92895" lon="0.13858">
        <ele>2355.85</ele>
        <time>2022-06-02T07:35:45Z</time>
      </trkpt>
      <trkpt lat="42.92903" lon="0.13852">
        <ele>2354.89</ele>
        <time>2022-06-02T07:35:57Z</time>
      </trkpt>
      <trkpt lat="42.92905" lon="0.13849">
        <ele>2354.41</ele>
        <time>2022-06-02T07:36:03Z</time>
      </trkpt>
      <trkpt lat="42.92912" lon="0.13847">
        <ele>2353.93</ele>
        <time>2022-06-02T07:36:13Z</time>
      </trkpt>
      <trkpt lat="42.92916" lon="0.13846">
        <ele>2355.37</ele>
        <time>2022-06-02T07:36:19Z</time>
      </trkpt>
      <trkpt lat="42.92928" lon="0.13844">
        <ele>2356.81</ele>
        <time>2022-06-02T07:36:32Z</time>
      </trkpt>
      <trkpt lat="42.92936" lon="0.1384">
        <ele>2357.77</ele>
        <time>2022-06-02T07:36:44Z</time>
      </trkpt>
      <trkpt lat="42.92946" lon="0.13836">
        <ele>2358.73</ele>
        <time>2022-06-02T07:36:57Z</time>
      </trkpt>
      <trkpt lat="42.92957" lon="0.13831">
        <ele>2358.73</ele>
        <time>2022-06-02T07:37:11Z</time>
      </trkpt>
      <trkpt lat="42.92967" lon="0.13831">
        <ele>2359.69</ele>
        <time>2022-06-02T07:37:24Z</time>
      </trkpt>
      <trkpt lat="42.9297" lon="0.13829">
        <ele>2359.21</ele>
        <time>2022-06-02T07:37:28Z</time>
      </trkpt>
      <trkpt lat="42.92983" lon="0.13829">
        <ele>2361.14</ele>
        <time>2022-06-02T07:37:44Z</time>
      </trkpt>
      <trkpt lat="42.92991" lon="0.13831">
        <ele>2362.1</ele>
        <time>2022-06-02T07:37:55Z</time>
      </trkpt>
      <trkpt lat="42.92995" lon="0.13829">
        <ele>2362.1</ele>
        <time>2022-06-02T07:38:02Z</time>
      </trkpt>
      <trkpt lat="42.93003" lon="0.13827">
        <ele>2362.1</ele>
        <time>2022-06-02T07:38:16Z</time>
      </trkpt>
      <trkpt lat="42.93013" lon="0.13829">
        <ele>2364.02</ele>
        <time>2022-06-02T07:38:32Z</time>
      </trkpt>
      <trkpt lat="42.93021" lon="0.13832">
        <ele>2365.46</ele>
        <time>2022-06-02T07:38:43Z</time>
      </trkpt>
      <trkpt lat="42.93031" lon="0.13836">
        <ele>2368.35</ele>
        <time>2022-06-02T07:38:58Z</time>
      </trkpt>
      <trkpt lat="42.93037" lon="0.13837">
        <ele>2369.31</ele>
        <time>2022-06-02T07:39:11Z</time>
      </trkpt>
      <trkpt lat="42.93039" lon="0.13847">
        <ele>2371.71</ele>
        <time>2022-06-02T07:39:26Z</time>
      </trkpt>
      <trkpt lat="42.93036" lon="0.13847">
        <ele>2373.63</ele>
        <time>2022-06-02T07:39:40Z</time>
      </trkpt>
      <trkpt lat="42.93041" lon="0.13853">
        <ele>2375.07</ele>
        <time>2022-06-02T07:39:53Z</time>
      </trkpt>
      <trkpt lat="42.93041" lon="0.13867">
        <ele>2375.07</ele>
        <time>2022-06-02T07:40:11Z</time>
      </trkpt>
      <trkpt lat="42.93046" lon="0.13869">
        <ele>2373.15</ele>
        <time>2022-06-02T07:40:24Z</time>
      </trkpt>
      <trkpt lat="42.93052" lon="0.13868">
        <ele>2373.63</ele>
        <time>2022-06-02T07:40:38Z</time>
      </trkpt>
      <trkpt lat="42.93056" lon="0.13873">
        <ele>2373.15</ele>
        <time>2022-06-02T07:40:58Z</time>
      </trkpt>
      <trkpt lat="42.93055" lon="0.13873">
        <ele>2373.63</ele>
        <time>2022-06-02T07:41:24Z</time>
      </trkpt>
      <trkpt lat="42.93051" lon="0.13874">
        <ele>2373.15</ele>
        <time>2022-06-02T07:41:49Z</time>
      </trkpt>
      <trkpt lat="42.93052" lon="0.13871">
        <ele>2373.63</ele>
        <time>2022-06-02T07:42:14Z</time>
      </trkpt>
      <trkpt lat="42.9305" lon="0.13884">
        <ele>2373.63</ele>
        <time>2022-06-02T07:42:35Z</time>
      </trkpt>
      <trkpt lat="42.93049" lon="0.13888">
        <ele>2373.15</ele>
        <time>2022-06-02T07:42:39Z</time>
      </trkpt>
      <trkpt lat="42.93039" lon="0.13903">
        <ele>2370.27</ele>
        <time>2022-06-02T07:42:51Z</time>
      </trkpt>
      <trkpt lat="42.93039" lon="0.139">
        <ele>2370.27</ele>
        <time>2022-06-02T07:43:04Z</time>
      </trkpt>
      <trkpt lat="42.93039" lon="0.13901">
        <ele>2371.23</ele>
        <time>2022-06-02T07:43:17Z</time>
      </trkpt>
      <trkpt lat="42.93042" lon="0.13898">
        <ele>2369.31</ele>
        <time>2022-06-02T07:43:32Z</time>
      </trkpt>
      <trkpt lat="42.93042" lon="0.139">
        <ele>2369.31</ele>
        <time>2022-06-02T07:44:00Z</time>
      </trkpt>
      <trkpt lat="42.93043" lon="0.13899">
        <ele>2370.27</ele>
        <time>2022-06-02T07:44:27Z</time>
      </trkpt>
      <trkpt lat="42.93043" lon="0.13899">
        <ele>2370.27</ele>
        <time>2022-06-02T07:44:58Z</time>
      </trkpt>
      <trkpt lat="42.93042" lon="0.13895">
        <ele>2369.79</ele>
        <time>2022-06-02T07:45:35Z</time>
      </trkpt>
      <trkpt lat="42.93042" lon="0.13895">
        <ele>2369.79</ele>
        <time>2022-06-02T07:46:06Z</time>
      </trkpt>
      <trkpt lat="42.93042" lon="0.13896">
        <ele>2365.46</ele>
        <time>2022-06-02T07:46:07Z</time>
      </trkpt>
      <trkpt lat="42.93042" lon="0.13896">
        <ele>2373.63</ele>
        <time>2022-06-02T07:46:08Z</time>
      </trkpt>
      <trkpt lat="42.93042" lon="0.13896">
        <ele>2370.27</ele>
        <time>2022-06-02T07:46:09Z</time>
      </trkpt>
      <trkpt lat="42.93043" lon="0.13896">
        <ele>2370.27</ele>
        <time>2022-06-02T07:46:42Z</time>
      </trkpt>
      <trkpt lat="42.93044" lon="0.13897">
        <ele>2370.27</ele>
        <time>2022-06-02T07:47:09Z</time>
      </trkpt>
      <trkpt lat="42.93043" lon="0.13896">
        <ele>2370.27</ele>
        <time>2022-06-02T07:47:39Z</time>
      </trkpt>
      <trkpt lat="42.93042" lon="0.13897">
        <ele>2370.75</ele>
        <time>2022-06-02T07:48:05Z</time>
      </trkpt>
      <trkpt lat="42.93042" lon="0.13894">
        <ele>2370.75</ele>
        <time>2022-06-02T07:48:27Z</time>
      </trkpt>
      <trkpt lat="42.93044" lon="0.13897">
        <ele>2370.27</ele>
        <time>2022-06-02T07:49:01Z</time>
      </trkpt>
      <trkpt lat="42.93044" lon="0.13898">
        <ele>2371.23</ele>
        <time>2022-06-02T07:49:30Z</time>
      </trkpt>
      <trkpt lat="42.93041" lon="0.13898">
        <ele>2372.67</ele>
        <time>2022-06-02T07:49:47Z</time>
      </trkpt>
      <trkpt lat="42.9304" lon="0.13903">
        <ele>2372.19</ele>
        <time>2022-06-02T07:50:10Z</time>
      </trkpt>
      <trkpt lat="42.93035" lon="0.13903">
        <ele>2372.19</ele>
        <time>2022-06-02T07:50:34Z</time>
      </trkpt>
      <trkpt lat="42.93036" lon="0.13904">
        <ele>2373.15</ele>
        <time>2022-06-02T07:51:01Z</time>
      </trkpt>
      <trkpt lat="42.93041" lon="0.13899">
        <ele>2372.19</ele>
        <time>2022-06-02T07:51:19Z</time>
      </trkpt>
      <trkpt lat="42.93043" lon="0.13898">
        <ele>2372.67</ele>
        <time>2022-06-02T07:51:37Z</time>
      </trkpt>
      <trkpt lat="42.93043" lon="0.13899">
        <ele>2373.15</ele>
        <time>2022-06-02T07:52:04Z</time>
      </trkpt>
      <trkpt lat="42.93043" lon="0.13901">
        <ele>2372.67</ele>
        <time>2022-06-02T07:52:18Z</time>
      </trkpt>
      <trkpt lat="42.9304" lon="0.13915">
        <ele>2370.75</ele>
        <time>2022-06-02T07:52:22Z</time>
      </trkpt>
      <trkpt lat="42.9304" lon="0.13939">
        <ele>2365.94</ele>
        <time>2022-06-02T07:52:26Z</time>
      </trkpt>
      <trkpt lat="42.93038" lon="0.13955">
        <ele>2364.02</ele>
        <time>2022-06-02T07:52:28Z</time>
      </trkpt>
      <trkpt lat="42.93034" lon="0.1397">
        <ele>2361.62</ele>
        <time>2022-06-02T07:52:30Z</time>
      </trkpt>
      <trkpt lat="42.93024" lon="0.13999">
        <ele>2357.29</ele>
        <time>2022-06-02T07:52:34Z</time>
      </trkpt>
      <trkpt lat="42.93019" lon="0.14022">
        <ele>2353.44</ele>
        <time>2022-06-02T07:52:37Z</time>
      </trkpt>
      <trkpt lat="42.93015" lon="0.14035">
        <ele>2351.04</ele>
        <time>2022-06-02T07:52:39Z</time>
      </trkpt>
      <trkpt lat="42.93013" lon="0.14057">
        <ele>2345.75</ele>
        <time>2022-06-02T07:52:42Z</time>
      </trkpt>
      <trkpt lat="42.93011" lon="0.14072">
        <ele>2343.35</ele>
        <time>2022-06-02T07:52:44Z</time>
      </trkpt>
      <trkpt lat="42.93009" lon="0.14086">
        <ele>2340.47</ele>
        <time>2022-06-02T07:52:46Z</time>
      </trkpt>
      <trkpt lat="42.93004" lon="0.14101">
        <ele>2339.02</ele>
        <time>2022-06-02T07:52:48Z</time>
      </trkpt>
      <trkpt lat="42.92993" lon="0.14126">
        <ele>2336.14</ele>
        <time>2022-06-02T07:52:52Z</time>
      </trkpt>
      <trkpt lat="42.92982" lon="0.1415">
        <ele>2331.81</ele>
        <time>2022-06-02T07:52:54Z</time>
      </trkpt>
      <trkpt lat="42.92976" lon="0.14162">
        <ele>2330.37</ele>
        <time>2022-06-02T07:52:55Z</time>
      </trkpt>
      <trkpt lat="42.92968" lon="0.14181">
        <ele>2330.37</ele>
        <time>2022-06-02T07:53:03Z</time>
      </trkpt>
      <trkpt lat="42.92972" lon="0.1418">
        <ele>2331.33</ele>
        <time>2022-06-02T07:53:12Z</time>
      </trkpt>
      <trkpt lat="42.9297" lon="0.14193">
        <ele>2328.93</ele>
        <time>2022-06-02T07:53:18Z</time>
      </trkpt>
      <trkpt lat="42.92966" lon="0.14196">
        <ele>2328.45</ele>
        <time>2022-06-02T07:53:23Z</time>
      </trkpt>
      <trkpt lat="42.92947" lon="0.14206">
        <ele>2328.93</ele>
        <time>2022-06-02T07:53:35Z</time>
      </trkpt>
      <trkpt lat="42.92947" lon="0.14207">
        <ele>2328.93</ele>
        <time>2022-06-02T07:53:36Z</time>
      </trkpt>
      <trkpt lat="42.9294" lon="0.14208">
        <ele>2329.89</ele>
        <time>2022-06-02T07:53:48Z</time>
      </trkpt>
      <trkpt lat="42.92935" lon="0.14202">
        <ele>2329.41</ele>
        <time>2022-06-02T07:53:59Z</time>
      </trkpt>
      <trkpt lat="42.92942" lon="0.14198">
        <ele>2329.89</ele>
        <time>2022-06-02T07:54:09Z</time>
      </trkpt>
      <trkpt lat="42.92941" lon="0.14197">
        <ele>2329.89</ele>
        <time>2022-06-02T07:54:24Z</time>
      </trkpt>
      <trkpt lat="42.92943" lon="0.14196">
        <ele>2329.89</ele>
        <time>2022-06-02T07:54:27Z</time>
      </trkpt>
      <trkpt lat="42.92967" lon="0.14186">
        <ele>2328.45</ele>
        <time>2022-06-02T07:54:41Z</time>
      </trkpt>
      <trkpt lat="42.92974" lon="0.14184">
        <ele>2328.93</ele>
        <time>2022-06-02T07:54:50Z</time>
      </trkpt>
      <trkpt lat="42.92991" lon="0.14188">
        <ele>2325.57</ele>
        <time>2022-06-02T07:55:00Z</time>
      </trkpt>
      <trkpt lat="42.92993" lon="0.1419">
        <ele>2325.57</ele>
        <time>2022-06-02T07:55:01Z</time>
      </trkpt>
      <trkpt lat="42.92994" lon="0.14211">
        <ele>2320.76</ele>
        <time>2022-06-02T07:55:05Z</time>
      </trkpt>
      <trkpt lat="42.92991" lon="0.14223">
        <ele>2317.88</ele>
        <time>2022-06-02T07:55:08Z</time>
      </trkpt>
      <trkpt lat="42.9298" lon="0.14233">
        <ele>2313.07</ele>
        <time>2022-06-02T07:55:11Z</time>
      </trkpt>
      <trkpt lat="42.92971" lon="0.14237">
        <ele>2312.11</ele>
        <time>2022-06-02T07:55:13Z</time>
      </trkpt>
      <trkpt lat="42.92968" lon="0.14242">
        <ele>2310.19</ele>
        <time>2022-06-02T07:55:16Z</time>
      </trkpt>
      <trkpt lat="42.92973" lon="0.1424">
        <ele>2307.78</ele>
        <time>2022-06-02T07:55:29Z</time>
      </trkpt>
      <trkpt lat="42.92972" lon="0.14239">
        <ele>2308.26</ele>
        <time>2022-06-02T07:55:32Z</time>
      </trkpt>
      <trkpt lat="42.92966" lon="0.14244">
        <ele>2303.46</ele>
        <time>2022-06-02T07:55:37Z</time>
      </trkpt>
      <trkpt lat="42.92961" lon="0.14254">
        <ele>2298.65</ele>
        <time>2022-06-02T07:55:40Z</time>
      </trkpt>
      <trkpt lat="42.92951" lon="0.14258">
        <ele>2295.28</ele>
        <time>2022-06-02T07:55:45Z</time>
      </trkpt>
      <trkpt lat="42.92949" lon="0.14266">
        <ele>2291.44</ele>
        <time>2022-06-02T07:55:48Z</time>
      </trkpt>
      <trkpt lat="42.92949" lon="0.14274">
        <ele>2288.56</ele>
        <time>2022-06-02T07:55:51Z</time>
      </trkpt>
      <trkpt lat="42.92947" lon="0.14275">
        <ele>2287.59</ele>
        <time>2022-06-02T07:55:53Z</time>
      </trkpt>
      <trkpt lat="42.92945" lon="0.14285">
        <ele>2283.75</ele>
        <time>2022-06-02T07:56:01Z</time>
      </trkpt>
      <trkpt lat="42.92942" lon="0.14299">
        <ele>2277.5</ele>
        <time>2022-06-02T07:56:05Z</time>
      </trkpt>
      <trkpt lat="42.92937" lon="0.1431">
        <ele>2274.62</ele>
        <time>2022-06-02T07:56:08Z</time>
      </trkpt>
      <trkpt lat="42.9293" lon="0.14331">
        <ele>2266.45</ele>
        <time>2022-06-02T07:56:13Z</time>
      </trkpt>
      <trkpt lat="42.92927" lon="0.14339">
        <ele>2263.08</ele>
        <time>2022-06-02T07:56:15Z</time>
      </trkpt>
      <trkpt lat="42.9292" lon="0.14354">
        <ele>2258.27</ele>
        <time>2022-06-02T07:56:18Z</time>
      </trkpt>
      <trkpt lat="42.92916" lon="0.1437">
        <ele>2253.47</ele>
        <time>2022-06-02T07:56:21Z</time>
      </trkpt>
      <trkpt lat="42.92906" lon="0.14386">
        <ele>2249.14</ele>
        <time>2022-06-02T07:56:24Z</time>
      </trkpt>
      <trkpt lat="42.929" lon="0.14409">
        <ele>2242.41</ele>
        <time>2022-06-02T07:56:27Z</time>
      </trkpt>
      <trkpt lat="42.92893" lon="0.14432">
        <ele>2238.57</ele>
        <time>2022-06-02T07:56:34Z</time>
      </trkpt>
      <trkpt lat="42.92898" lon="0.14417">
        <ele>2238.57</ele>
        <time>2022-06-02T07:56:51Z</time>
      </trkpt>
      <trkpt lat="42.92903" lon="0.14412">
        <ele>2239.05</ele>
        <time>2022-06-02T07:57:12Z</time>
      </trkpt>
      <trkpt lat="42.92911" lon="0.14409">
        <ele>2239.53</ele>
        <time>2022-06-02T07:57:40Z</time>
      </trkpt>
      <trkpt lat="42.92909" lon="0.14416">
        <ele>2239.05</ele>
        <time>2022-06-02T07:57:59Z</time>
      </trkpt>
      <trkpt lat="42.929" lon="0.14435">
        <ele>2236.16</ele>
        <time>2022-06-02T07:58:05Z</time>
      </trkpt>
      <trkpt lat="42.92897" lon="0.14444">
        <ele>2234.72</ele>
        <time>2022-06-02T07:58:07Z</time>
      </trkpt>
      <trkpt lat="42.92891" lon="0.1445">
        <ele>2233.76</ele>
        <time>2022-06-02T07:58:09Z</time>
      </trkpt>
      <trkpt lat="42.92886" lon="0.1448">
        <ele>2229.43</ele>
        <time>2022-06-02T07:58:14Z</time>
      </trkpt>
      <trkpt lat="42.92878" lon="0.1449">
        <ele>2227.99</ele>
        <time>2022-06-02T07:58:16Z</time>
      </trkpt>
      <trkpt lat="42.92868" lon="0.14501">
        <ele>2227.51</ele>
        <time>2022-06-02T07:58:20Z</time>
      </trkpt>
      <trkpt lat="42.92856" lon="0.14526">
        <ele>2223.67</ele>
        <time>2022-06-02T07:58:25Z</time>
      </trkpt>
      <trkpt lat="42.9285" lon="0.14544">
        <ele>2221.74</ele>
        <time>2022-06-02T07:58:28Z</time>
      </trkpt>
      <trkpt lat="42.92841" lon="0.14582">
        <ele>2218.38</ele>
        <time>2022-06-02T07:58:37Z</time>
      </trkpt>
      <trkpt lat="42.92841" lon="0.14587">
        <ele>2218.38</ele>
        <time>2022-06-02T07:58:38Z</time>
      </trkpt>
      <trkpt lat="42.92844" lon="0.14627">
        <ele>2215.01</ele>
        <time>2022-06-02T07:58:47Z</time>
      </trkpt>
      <trkpt lat="42.92844" lon="0.14631">
        <ele>2214.53</ele>
        <time>2022-06-02T07:58:48Z</time>
      </trkpt>
      <trkpt lat="42.92842" lon="0.14635">
        <ele>2214.53</ele>
        <time>2022-06-02T07:58:58Z</time>
      </trkpt>
      <trkpt lat="42.92844" lon="0.14634">
        <ele>2214.53</ele>
        <time>2022-06-02T07:59:18Z</time>
      </trkpt>
      <trkpt lat="42.92843" lon="0.14632">
        <ele>2215.01</ele>
        <time>2022-06-02T07:59:36Z</time>
      </trkpt>
      <trkpt lat="42.92842" lon="0.14632">
        <ele>2214.53</ele>
        <time>2022-06-02T07:59:55Z</time>
      </trkpt>
      <trkpt lat="42.92844" lon="0.14632">
        <ele>2214.05</ele>
        <time>2022-06-02T08:00:13Z</time>
      </trkpt>
      <trkpt lat="42.92844" lon="0.14632">
        <ele>2214.05</ele>
        <time>2022-06-02T08:00:34Z</time>
      </trkpt>
      <trkpt lat="42.92843" lon="0.14632">
        <ele>2214.05</ele>
        <time>2022-06-02T08:00:47Z</time>
      </trkpt>
      <trkpt lat="42.92843" lon="0.14634">
        <ele>2213.09</ele>
        <time>2022-06-02T08:01:03Z</time>
      </trkpt>
      <trkpt lat="42.92843" lon="0.14634">
        <ele>2214.05</ele>
        <time>2022-06-02T08:01:20Z</time>
      </trkpt>
      <trkpt lat="42.92842" lon="0.14629">
        <ele>2213.57</ele>
        <time>2022-06-02T08:01:38Z</time>
      </trkpt>
      <trkpt lat="42.92842" lon="0.14631">
        <ele>2213.09</ele>
        <time>2022-06-02T08:01:54Z</time>
      </trkpt>
      <trkpt lat="42.92842" lon="0.14631">
        <ele>2213.57</ele>
        <time>2022-06-02T08:02:21Z</time>
      </trkpt>
      <trkpt lat="42.92845" lon="0.14629">
        <ele>2212.61</ele>
        <time>2022-06-02T08:02:43Z</time>
      </trkpt>
      <trkpt lat="42.92844" lon="0.1463">
        <ele>2213.09</ele>
        <time>2022-06-02T08:03:02Z</time>
      </trkpt>
      <trkpt lat="42.92842" lon="0.1463">
        <ele>2212.61</ele>
        <time>2022-06-02T08:03:18Z</time>
      </trkpt>
      <trkpt lat="42.92841" lon="0.14633">
        <ele>2214.05</ele>
        <time>2022-06-02T08:03:36Z</time>
      </trkpt>
      <trkpt lat="42.92842" lon="0.14632">
        <ele>2212.61</ele>
        <time>2022-06-02T08:03:54Z</time>
      </trkpt>
      <trkpt lat="42.92844" lon="0.14633">
        <ele>2212.13</ele>
        <time>2022-06-02T08:04:15Z</time>
      </trkpt>
      <trkpt lat="42.92842" lon="0.14631">
        <ele>2212.61</ele>
        <time>2022-06-02T08:04:36Z</time>
      </trkpt>
      <trkpt lat="42.9284" lon="0.14632">
        <ele>2212.61</ele>
        <time>2022-06-02T08:04:58Z</time>
      </trkpt>
      <trkpt lat="42.92844" lon="0.1463">
        <ele>2212.61</ele>
        <time>2022-06-02T08:05:25Z</time>
      </trkpt>
      <trkpt lat="42.92843" lon="0.14631">
        <ele>2212.13</ele>
        <time>2022-06-02T08:05:40Z</time>
      </trkpt>
      <trkpt lat="42.92845" lon="0.14632">
        <ele>2211.65</ele>
        <time>2022-06-02T08:05:57Z</time>
      </trkpt>
      <trkpt lat="42.92844" lon="0.1463">
        <ele>2211.65</ele>
        <time>2022-06-02T08:06:02Z</time>
      </trkpt>
      <trkpt lat="42.92844" lon="0.14633">
        <ele>2210.69</ele>
        <time>2022-06-02T08:06:12Z</time>
      </trkpt>
      <trkpt lat="42.92845" lon="0.14632">
        <ele>2211.17</ele>
        <time>2022-06-02T08:06:26Z</time>
      </trkpt>
      <trkpt lat="42.92844" lon="0.14628">
        <ele>2210.21</ele>
        <time>2022-06-02T08:06:39Z</time>
      </trkpt>
      <trkpt lat="42.92843" lon="0.1463">
        <ele>2210.69</ele>
        <time>2022-06-02T08:07:08Z</time>
      </trkpt>
      <trkpt lat="42.92842" lon="0.14633">
        <ele>2210.69</ele>
        <time>2022-06-02T08:07:44Z</time>
      </trkpt>
      <trkpt lat="42.92842" lon="0.14632">
        <ele>2210.69</ele>
        <time>2022-06-02T08:08:17Z</time>
      </trkpt>
      <trkpt lat="42.92843" lon="0.14631">
        <ele>2210.69</ele>
        <time>2022-06-02T08:08:39Z</time>
      </trkpt>
      <trkpt lat="42.92845" lon="0.14632">
        <ele>2211.65</ele>
        <time>2022-06-02T08:08:42Z</time>
      </trkpt>
      <trkpt lat="42.92845" lon="0.14632">
        <ele>2211.65</ele>
        <time>2022-06-02T08:08:56Z</time>
      </trkpt>
      <trkpt lat="42.92845" lon="0.14633">
        <ele>2212.13</ele>
        <time>2022-06-02T08:09:16Z</time>
      </trkpt>
      <trkpt lat="42.92843" lon="0.14634">
        <ele>2211.65</ele>
        <time>2022-06-02T08:09:37Z</time>
      </trkpt>
      <trkpt lat="42.92843" lon="0.14631">
        <ele>2210.21</ele>
        <time>2022-06-02T08:09:50Z</time>
      </trkpt>
      <trkpt lat="42.92844" lon="0.14628">
        <ele>2210.69</ele>
        <time>2022-06-02T08:10:13Z</time>
      </trkpt>
      <trkpt lat="42.92847" lon="0.14626">
        <ele>2210.21</ele>
        <time>2022-06-02T08:10:44Z</time>
      </trkpt>
      <trkpt lat="42.92848" lon="0.14625">
        <ele>2210.69</ele>
        <time>2022-06-02T08:10:48Z</time>
      </trkpt>
      <trkpt lat="42.92843" lon="0.14632">
        <ele>2211.17</ele>
        <time>2022-06-02T08:11:01Z</time>
      </trkpt>
      <trkpt lat="42.92842" lon="0.14632">
        <ele>2211.17</ele>
        <time>2022-06-02T08:11:18Z</time>
      </trkpt>
      <trkpt lat="42.9284" lon="0.14634">
        <ele>2211.17</ele>
        <time>2022-06-02T08:11:34Z</time>
      </trkpt>
      <trkpt lat="42.92841" lon="0.14633">
        <ele>2211.65</ele>
        <time>2022-06-02T08:11:54Z</time>
      </trkpt>
      <trkpt lat="42.9284" lon="0.14634">
        <ele>2210.69</ele>
        <time>2022-06-02T08:12:17Z</time>
      </trkpt>
      <trkpt lat="42.92838" lon="0.14641">
        <ele>2212.61</ele>
        <time>2022-06-02T08:12:34Z</time>
      </trkpt>
      <trkpt lat="42.92832" lon="0.14654">
        <ele>2214.53</ele>
        <time>2022-06-02T08:12:47Z</time>
      </trkpt>
      <trkpt lat="42.92825" lon="0.14648">
        <ele>2215.98</ele>
        <time>2022-06-02T08:13:00Z</time>
      </trkpt>
      <trkpt lat="42.92818" lon="0.14644">
        <ele>2218.38</ele>
        <time>2022-06-02T08:13:16Z</time>
      </trkpt>
      <trkpt lat="42.92817" lon="0.1465">
        <ele>2219.34</ele>
        <time>2022-06-02T08:13:21Z</time>
      </trkpt>
      <trkpt lat="42.92814" lon="0.14667">
        <ele>2220.3</ele>
        <time>2022-06-02T08:13:37Z</time>
      </trkpt>
      <trkpt lat="42.92809" lon="0.14682">
        <ele>2222.71</ele>
        <time>2022-06-02T08:13:52Z</time>
      </trkpt>
      <trkpt lat="42.92805" lon="0.14694">
        <ele>2224.15</ele>
        <time>2022-06-02T08:14:04Z</time>
      </trkpt>
      <trkpt lat="42.92801" lon="0.14705">
        <ele>2224.63</ele>
        <time>2022-06-02T08:14:15Z</time>
      </trkpt>
      <trkpt lat="42.92801" lon="0.14715">
        <ele>2225.59</ele>
        <time>2022-06-02T08:14:27Z</time>
      </trkpt>
      <trkpt lat="42.92803" lon="0.1473">
        <ele>2227.51</ele>
        <time>2022-06-02T08:14:41Z</time>
      </trkpt>
      <trkpt lat="42.92795" lon="0.14723">
        <ele>2228.47</ele>
        <time>2022-06-02T08:14:54Z</time>
      </trkpt>
      <trkpt lat="42.92792" lon="0.14708">
        <ele>2231.36</ele>
        <time>2022-06-02T08:15:11Z</time>
      </trkpt>
      <trkpt lat="42.92787" lon="0.14694">
        <ele>2233.28</ele>
        <time>2022-06-02T08:15:30Z</time>
      </trkpt>
      <trkpt lat="42.92785" lon="0.14691">
        <ele>2234.72</ele>
        <time>2022-06-02T08:15:46Z</time>
      </trkpt>
      <trkpt lat="42.92789" lon="0.14692">
        <ele>2234.72</ele>
        <time>2022-06-02T08:16:05Z</time>
      </trkpt>
      <trkpt lat="42.92787" lon="0.14693">
        <ele>2234.24</ele>
        <time>2022-06-02T08:16:24Z</time>
      </trkpt>
      <trkpt lat="42.92786" lon="0.14704">
        <ele>2235.2</ele>
        <time>2022-06-02T08:16:44Z</time>
      </trkpt>
      <trkpt lat="42.92786" lon="0.14715">
        <ele>2236.64</ele>
        <time>2022-06-02T08:16:58Z</time>
      </trkpt>
      <trkpt lat="42.92786" lon="0.14717">
        <ele>2237.13</ele>
        <time>2022-06-02T08:17:03Z</time>
      </trkpt>
      <trkpt lat="42.92786" lon="0.14722">
        <ele>2237.13</ele>
        <time>2022-06-02T08:17:07Z</time>
      </trkpt>
      <trkpt lat="42.92788" lon="0.14735">
        <ele>2239.05</ele>
        <time>2022-06-02T08:17:22Z</time>
      </trkpt>
      <trkpt lat="42.92782" lon="0.14735">
        <ele>2240.01</ele>
        <time>2022-06-02T08:17:34Z</time>
      </trkpt>
      <trkpt lat="42.92777" lon="0.14725">
        <ele>2242.41</ele>
        <time>2022-06-02T08:17:49Z</time>
      </trkpt>
      <trkpt lat="42.92773" lon="0.14722">
        <ele>2243.37</ele>
        <time>2022-06-02T08:18:06Z</time>
      </trkpt>
      <trkpt lat="42.92772" lon="0.14734">
        <ele>2245.3</ele>
        <time>2022-06-02T08:18:17Z</time>
      </trkpt>
      <trkpt lat="42.92771" lon="0.14744">
        <ele>2246.74</ele>
        <time>2022-06-02T08:18:31Z</time>
      </trkpt>
      <trkpt lat="42.92767" lon="0.14754">
        <ele>2248.66</ele>
        <time>2022-06-02T08:18:44Z</time>
      </trkpt>
      <trkpt lat="42.92764" lon="0.14757">
        <ele>2250.58</ele>
        <time>2022-06-02T08:18:59Z</time>
      </trkpt>
      <trkpt lat="42.92761" lon="0.14753">
        <ele>2250.58</ele>
        <time>2022-06-02T08:19:17Z</time>
      </trkpt>
      <trkpt lat="42.92758" lon="0.1475">
        <ele>2251.54</ele>
        <time>2022-06-02T08:19:37Z</time>
      </trkpt>
      <trkpt lat="42.92755" lon="0.14744">
        <ele>2252.99</ele>
        <time>2022-06-02T08:19:50Z</time>
      </trkpt>
      <trkpt lat="42.92749" lon="0.14733">
        <ele>2254.43</ele>
        <time>2022-06-02T08:20:03Z</time>
      </trkpt>
      <trkpt lat="42.9275" lon="0.14716">
        <ele>2256.83</ele>
        <time>2022-06-02T08:20:21Z</time>
      </trkpt>
      <trkpt lat="42.92744" lon="0.14709">
        <ele>2258.75</ele>
        <time>2022-06-02T08:20:34Z</time>
      </trkpt>
      <trkpt lat="42.92739" lon="0.14699">
        <ele>2261.64</ele>
        <time>2022-06-02T08:20:49Z</time>
      </trkpt>
      <trkpt lat="42.92734" lon="0.14695">
        <ele>2263.08</ele>
        <time>2022-06-02T08:21:05Z</time>
      </trkpt>
      <trkpt lat="42.92733" lon="0.14693">
        <ele>2263.56</ele>
        <time>2022-06-02T08:21:20Z</time>
      </trkpt>
      <trkpt lat="42.92735" lon="0.14703">
        <ele>2265.48</ele>
        <time>2022-06-02T08:21:31Z</time>
      </trkpt>
      <trkpt lat="42.92734" lon="0.14708">
        <ele>2265.48</ele>
        <time>2022-06-02T08:21:37Z</time>
      </trkpt>
      <trkpt lat="42.92733" lon="0.1472">
        <ele>2267.41</ele>
        <time>2022-06-02T08:21:50Z</time>
      </trkpt>
      <trkpt lat="42.9273" lon="0.14728">
        <ele>2268.85</ele>
        <time>2022-06-02T08:22:04Z</time>
      </trkpt>
      <trkpt lat="42.92727" lon="0.14736">
        <ele>2270.29</ele>
        <time>2022-06-02T08:22:16Z</time>
      </trkpt>
      <trkpt lat="42.92721" lon="0.14728">
        <ele>2271.73</ele>
        <time>2022-06-02T08:22:29Z</time>
      </trkpt>
      <trkpt lat="42.92719" lon="0.14715">
        <ele>2274.14</ele>
        <time>2022-06-02T08:22:44Z</time>
      </trkpt>
      <trkpt lat="42.92717" lon="0.14702">
        <ele>2276.06</ele>
        <time>2022-06-02T08:23:01Z</time>
      </trkpt>
      <trkpt lat="42.92715" lon="0.14686">
        <ele>2277.98</ele>
        <time>2022-06-02T08:23:19Z</time>
      </trkpt>
      <trkpt lat="42.92714" lon="0.14669">
        <ele>2280.87</ele>
        <time>2022-06-02T08:23:38Z</time>
      </trkpt>
      <trkpt lat="42.92713" lon="0.14674">
        <ele>2282.79</ele>
        <time>2022-06-02T08:23:54Z</time>
      </trkpt>
      <trkpt lat="42.92707" lon="0.14688">
        <ele>2283.75</ele>
        <time>2022-06-02T08:24:07Z</time>
      </trkpt>
      <trkpt lat="42.92704" lon="0.14698">
        <ele>2286.15</ele>
        <time>2022-06-02T08:24:21Z</time>
      </trkpt>
      <trkpt lat="42.92699" lon="0.14706">
        <ele>2287.11</ele>
        <time>2022-06-02T08:24:34Z</time>
      </trkpt>
      <trkpt lat="42.92698" lon="0.14714">
        <ele>2288.08</ele>
        <time>2022-06-02T08:24:44Z</time>
      </trkpt>
      <trkpt lat="42.92696" lon="0.14725">
        <ele>2290.48</ele>
        <time>2022-06-02T08:24:58Z</time>
      </trkpt>
      <trkpt lat="42.92693" lon="0.14719">
        <ele>2290.96</ele>
        <time>2022-06-02T08:25:11Z</time>
      </trkpt>
      <trkpt lat="42.92692" lon="0.14712">
        <ele>2292.4</ele>
        <time>2022-06-02T08:25:29Z</time>
      </trkpt>
      <trkpt lat="42.92687" lon="0.147">
        <ele>2294.32</ele>
        <time>2022-06-02T08:25:46Z</time>
      </trkpt>
      <trkpt lat="42.92687" lon="0.14698">
        <ele>2294.32</ele>
        <time>2022-06-02T08:25:48Z</time>
      </trkpt>
      <trkpt lat="42.92684" lon="0.14687">
        <ele>2296.73</ele>
        <time>2022-06-02T08:26:03Z</time>
      </trkpt>
      <trkpt lat="42.92684" lon="0.14674">
        <ele>2298.17</ele>
        <time>2022-06-02T08:26:20Z</time>
      </trkpt>
      <trkpt lat="42.92681" lon="0.14661">
        <ele>2299.61</ele>
        <time>2022-06-02T08:26:38Z</time>
      </trkpt>
      <trkpt lat="42.92675" lon="0.14648">
        <ele>2302.49</ele>
        <time>2022-06-02T08:26:55Z</time>
      </trkpt>
      <trkpt lat="42.92673" lon="0.14648">
        <ele>2303.94</ele>
        <time>2022-06-02T08:27:14Z</time>
      </trkpt>
      <trkpt lat="42.92671" lon="0.14655">
        <ele>2305.38</ele>
        <time>2022-06-02T08:27:24Z</time>
      </trkpt>
      <trkpt lat="42.92668" lon="0.14666">
        <ele>2306.34</ele>
        <time>2022-06-02T08:27:38Z</time>
      </trkpt>
      <trkpt lat="42.92667" lon="0.14675">
        <ele>2308.74</ele>
        <time>2022-06-02T08:27:50Z</time>
      </trkpt>
      <trkpt lat="42.92663" lon="0.14683">
        <ele>2309.7</ele>
        <time>2022-06-02T08:28:03Z</time>
      </trkpt>
      <trkpt lat="42.92662" lon="0.14698">
        <ele>2311.63</ele>
        <time>2022-06-02T08:28:16Z</time>
      </trkpt>
      <trkpt lat="42.92657" lon="0.14695">
        <ele>2312.11</ele>
        <time>2022-06-02T08:28:30Z</time>
      </trkpt>
      <trkpt lat="42.92652" lon="0.1468">
        <ele>2314.51</ele>
        <time>2022-06-02T08:28:47Z</time>
      </trkpt>
      <trkpt lat="42.92651" lon="0.14669">
        <ele>2315.95</ele>
        <time>2022-06-02T08:29:03Z</time>
      </trkpt>
      <trkpt lat="42.92648" lon="0.14659">
        <ele>2317.4</ele>
        <time>2022-06-02T08:29:18Z</time>
      </trkpt>
      <trkpt lat="42.92646" lon="0.14645">
        <ele>2319.32</ele>
        <time>2022-06-02T08:29:36Z</time>
      </trkpt>
      <trkpt lat="42.92645" lon="0.14635">
        <ele>2321.24</ele>
        <time>2022-06-02T08:29:50Z</time>
      </trkpt>
      <trkpt lat="42.92644" lon="0.14622">
        <ele>2323.16</ele>
        <time>2022-06-02T08:30:06Z</time>
      </trkpt>
      <trkpt lat="42.92641" lon="0.1461">
        <ele>2325.57</ele>
        <time>2022-06-02T08:30:24Z</time>
      </trkpt>
      <trkpt lat="42.92641" lon="0.14606">
        <ele>2327.01</ele>
        <time>2022-06-02T08:30:39Z</time>
      </trkpt>
      <trkpt lat="42.92642" lon="0.14608">
        <ele>2326.53</ele>
        <time>2022-06-02T08:31:02Z</time>
      </trkpt>
      <trkpt lat="42.92643" lon="0.1461">
        <ele>2326.53</ele>
        <time>2022-06-02T08:31:15Z</time>
      </trkpt>
      <trkpt lat="42.92639" lon="0.1462">
        <ele>2328.45</ele>
        <time>2022-06-02T08:31:28Z</time>
      </trkpt>
      <trkpt lat="42.92637" lon="0.14629">
        <ele>2329.89</ele>
        <time>2022-06-02T08:31:41Z</time>
      </trkpt>
      <trkpt lat="42.92635" lon="0.14636">
        <ele>2331.33</ele>
        <time>2022-06-02T08:31:53Z</time>
      </trkpt>
      <trkpt lat="42.92634" lon="0.14646">
        <ele>2332.3</ele>
        <time>2022-06-02T08:32:05Z</time>
      </trkpt>
      <trkpt lat="42.92633" lon="0.14657">
        <ele>2333.74</ele>
        <time>2022-06-02T08:32:18Z</time>
      </trkpt>
      <trkpt lat="42.9263" lon="0.14664">
        <ele>2334.7</ele>
        <time>2022-06-02T08:32:31Z</time>
      </trkpt>
      <trkpt lat="42.92626" lon="0.14669">
        <ele>2336.14</ele>
        <time>2022-06-02T08:32:50Z</time>
      </trkpt>
      <trkpt lat="42.92626" lon="0.14666">
        <ele>2336.62</ele>
        <time>2022-06-02T08:33:05Z</time>
      </trkpt>
      <trkpt lat="42.92627" lon="0.14665">
        <ele>2336.62</ele>
        <time>2022-06-02T08:33:35Z</time>
      </trkpt>
      <trkpt lat="42.92626" lon="0.14666">
        <ele>2337.1</ele>
        <time>2022-06-02T08:34:00Z</time>
      </trkpt>
      <trkpt lat="42.92624" lon="0.14654">
        <ele>2338.54</ele>
        <time>2022-06-02T08:34:17Z</time>
      </trkpt>
      <trkpt lat="42.9262" lon="0.14645">
        <ele>2339.99</ele>
        <time>2022-06-02T08:34:32Z</time>
      </trkpt>
      <trkpt lat="42.92618" lon="0.14631">
        <ele>2342.87</ele>
        <time>2022-06-02T08:34:51Z</time>
      </trkpt>
      <trkpt lat="42.92618" lon="0.14631">
        <ele>2343.35</ele>
        <time>2022-06-02T08:35:12Z</time>
      </trkpt>
      <trkpt lat="42.92617" lon="0.14637">
        <ele>2344.31</ele>
        <time>2022-06-02T08:35:28Z</time>
      </trkpt>
      <trkpt lat="42.92616" lon="0.14646">
        <ele>2345.75</ele>
        <time>2022-06-02T08:35:40Z</time>
      </trkpt>
      <trkpt lat="42.92614" lon="0.14655">
        <ele>2347.68</ele>
        <time>2022-06-02T08:35:54Z</time>
      </trkpt>
      <trkpt lat="42.92611" lon="0.14662">
        <ele>2349.6</ele>
        <time>2022-06-02T08:36:08Z</time>
      </trkpt>
      <trkpt lat="42.92607" lon="0.14666">
        <ele>2350.08</ele>
        <time>2022-06-02T08:36:22Z</time>
      </trkpt>
      <trkpt lat="42.92607" lon="0.14657">
        <ele>2350.56</ele>
        <time>2022-06-02T08:36:40Z</time>
      </trkpt>
      <trkpt lat="42.92604" lon="0.14646">
        <ele>2352</ele>
        <time>2022-06-02T08:36:57Z</time>
      </trkpt>
      <trkpt lat="42.92602" lon="0.14633">
        <ele>2353.93</ele>
        <time>2022-06-02T08:37:11Z</time>
      </trkpt>
      <trkpt lat="42.92601" lon="0.14621">
        <ele>2355.85</ele>
        <time>2022-06-02T08:37:26Z</time>
      </trkpt>
      <trkpt lat="42.92602" lon="0.14622">
        <ele>2355.85</ele>
        <time>2022-06-02T08:37:44Z</time>
      </trkpt>
      <trkpt lat="42.92601" lon="0.14619">
        <ele>2356.81</ele>
        <time>2022-06-02T08:38:00Z</time>
      </trkpt>
      <trkpt lat="42.92601" lon="0.14625">
        <ele>2357.29</ele>
        <time>2022-06-02T08:38:22Z</time>
      </trkpt>
      <trkpt lat="42.92601" lon="0.14631">
        <ele>2358.25</ele>
        <time>2022-06-02T08:38:36Z</time>
      </trkpt>
      <trkpt lat="42.92599" lon="0.14637">
        <ele>2359.69</ele>
        <time>2022-06-02T08:38:52Z</time>
      </trkpt>
      <trkpt lat="42.92596" lon="0.14636">
        <ele>2359.21</ele>
        <time>2022-06-02T08:39:08Z</time>
      </trkpt>
      <trkpt lat="42.92597" lon="0.14639">
        <ele>2360.65</ele>
        <time>2022-06-02T08:39:25Z</time>
      </trkpt>
      <trkpt lat="42.92594" lon="0.14645">
        <ele>2363.06</ele>
        <time>2022-06-02T08:39:39Z</time>
      </trkpt>
      <trkpt lat="42.92592" lon="0.14649">
        <ele>2363.54</ele>
        <time>2022-06-02T08:39:51Z</time>
      </trkpt>
      <trkpt lat="42.92589" lon="0.14649">
        <ele>2363.54</ele>
        <time>2022-06-02T08:40:07Z</time>
      </trkpt>
      <trkpt lat="42.92591" lon="0.14651">
        <ele>2364.02</ele>
        <time>2022-06-02T08:40:27Z</time>
      </trkpt>
      <trkpt lat="42.92592" lon="0.14651">
        <ele>2364.02</ele>
        <time>2022-06-02T08:40:47Z</time>
      </trkpt>
      <trkpt lat="42.92592" lon="0.14653">
        <ele>2364.5</ele>
        <time>2022-06-02T08:41:11Z</time>
      </trkpt>
      <trkpt lat="42.92592" lon="0.14655">
        <ele>2364.98</ele>
        <time>2022-06-02T08:41:24Z</time>
      </trkpt>
      <trkpt lat="42.92589" lon="0.14664">
        <ele>2367.38</ele>
        <time>2022-06-02T08:41:40Z</time>
      </trkpt>
      <trkpt lat="42.92587" lon="0.14669">
        <ele>2368.83</ele>
        <time>2022-06-02T08:41:54Z</time>
      </trkpt>
      <trkpt lat="42.92585" lon="0.14673">
        <ele>2369.31</ele>
        <time>2022-06-02T08:42:10Z</time>
      </trkpt>
      <trkpt lat="42.92587" lon="0.14673">
        <ele>2368.83</ele>
        <time>2022-06-02T08:42:38Z</time>
      </trkpt>
      <trkpt lat="42.92587" lon="0.1467">
        <ele>2369.79</ele>
        <time>2022-06-02T08:43:00Z</time>
      </trkpt>
      <trkpt lat="42.92589" lon="0.1467">
        <ele>2369.79</ele>
        <time>2022-06-02T08:43:24Z</time>
      </trkpt>
      <trkpt lat="42.92586" lon="0.1467">
        <ele>2369.79</ele>
        <time>2022-06-02T08:43:42Z</time>
      </trkpt>
      <trkpt lat="42.92588" lon="0.1467">
        <ele>2369.79</ele>
        <time>2022-06-02T08:44:06Z</time>
      </trkpt>
      <trkpt lat="42.92586" lon="0.1467">
        <ele>2369.79</ele>
        <time>2022-06-02T08:44:29Z</time>
      </trkpt>
      <trkpt lat="42.92587" lon="0.14667">
        <ele>2370.27</ele>
        <time>2022-06-02T08:44:56Z</time>
      </trkpt>
      <trkpt lat="42.92586" lon="0.14668">
        <ele>2370.27</ele>
        <time>2022-06-02T08:45:17Z</time>
      </trkpt>
      <trkpt lat="42.92586" lon="0.14671">
        <ele>2370.75</ele>
        <time>2022-06-02T08:45:39Z</time>
      </trkpt>
      <trkpt lat="42.92584" lon="0.14673">
        <ele>2371.71</ele>
        <time>2022-06-02T08:45:56Z</time>
      </trkpt>
      <trkpt lat="42.92583" lon="0.14673">
        <ele>2372.67</ele>
        <time>2022-06-02T08:46:10Z</time>
      </trkpt>
      <trkpt lat="42.92581" lon="0.14674">
        <ele>2374.11</ele>
        <time>2022-06-02T08:46:24Z</time>
      </trkpt>
      <trkpt lat="42.92579" lon="0.14672">
        <ele>2375.07</ele>
        <time>2022-06-02T08:46:38Z</time>
      </trkpt>
      <trkpt lat="42.9258" lon="0.14668">
        <ele>2375.55</ele>
        <time>2022-06-02T08:47:03Z</time>
      </trkpt>
      <trkpt lat="42.9258" lon="0.14672">
        <ele>2376.52</ele>
        <time>2022-06-02T08:47:28Z</time>
      </trkpt>
      <trkpt lat="42.92578" lon="0.14673">
        <ele>2377.96</ele>
        <time>2022-06-02T08:47:45Z</time>
      </trkpt>
      <trkpt lat="42.92578" lon="0.14674">
        <ele>2378.44</ele>
        <time>2022-06-02T08:48:07Z</time>
      </trkpt>
      <trkpt lat="42.92576" lon="0.14675">
        <ele>2379.88</ele>
        <time>2022-06-02T08:48:36Z</time>
      </trkpt>
      <trkpt lat="42.92574" lon="0.14674">
        <ele>2381.32</ele>
        <time>2022-06-02T08:48:54Z</time>
      </trkpt>
      <trkpt lat="42.92573" lon="0.14674">
        <ele>2383.25</ele>
        <time>2022-06-02T08:49:11Z</time>
      </trkpt>
      <trkpt lat="42.92571" lon="0.14679">
        <ele>2383.73</ele>
        <time>2022-06-02T08:49:26Z</time>
      </trkpt>
      <trkpt lat="42.9257" lon="0.14676">
        <ele>2384.69</ele>
        <time>2022-06-02T08:49:49Z</time>
      </trkpt>
      <trkpt lat="42.92571" lon="0.14674">
        <ele>2385.17</ele>
        <time>2022-06-02T08:50:14Z</time>
      </trkpt>
      <trkpt lat="42.92572" lon="0.14669">
        <ele>2385.65</ele>
        <time>2022-06-02T08:50:37Z</time>
      </trkpt>
      <trkpt lat="42.9257" lon="0.14672">
        <ele>2387.09</ele>
        <time>2022-06-02T08:50:56Z</time>
      </trkpt>
      <trkpt lat="42.92567" lon="0.14671">
        <ele>2388.05</ele>
        <time>2022-06-02T08:51:17Z</time>
      </trkpt>
      <trkpt lat="42.92568" lon="0.14676">
        <ele>2389.97</ele>
        <time>2022-06-02T08:51:33Z</time>
      </trkpt>
      <trkpt lat="42.92566" lon="0.14672">
        <ele>2389.97</ele>
        <time>2022-06-02T08:51:48Z</time>
      </trkpt>
      <trkpt lat="42.92566" lon="0.14675">
        <ele>2390.94</ele>
        <time>2022-06-02T08:52:06Z</time>
      </trkpt>
      <trkpt lat="42.92565" lon="0.14677">
        <ele>2390.46</ele>
        <time>2022-06-02T08:52:32Z</time>
      </trkpt>
      <trkpt lat="42.92566" lon="0.1467">
        <ele>2391.42</ele>
        <time>2022-06-02T08:52:50Z</time>
      </trkpt>
      <trkpt lat="42.92564" lon="0.14668">
        <ele>2392.86</ele>
        <time>2022-06-02T08:53:07Z</time>
      </trkpt>
      <trkpt lat="42.92564" lon="0.14665">
        <ele>2393.82</ele>
        <time>2022-06-02T08:53:23Z</time>
      </trkpt>
      <trkpt lat="42.92561" lon="0.14668">
        <ele>2394.78</ele>
        <time>2022-06-02T08:53:40Z</time>
      </trkpt>
      <trkpt lat="42.92563" lon="0.14669">
        <ele>2395.26</ele>
        <time>2022-06-02T08:54:09Z</time>
      </trkpt>
      <trkpt lat="42.9256" lon="0.1467">
        <ele>2396.22</ele>
        <time>2022-06-02T08:54:28Z</time>
      </trkpt>
      <trkpt lat="42.9256" lon="0.1467">
        <ele>2396.22</ele>
        <time>2022-06-02T08:54:52Z</time>
      </trkpt>
      <trkpt lat="42.92559" lon="0.14666">
        <ele>2397.18</ele>
        <time>2022-06-02T08:55:11Z</time>
      </trkpt>
      <trkpt lat="42.92559" lon="0.14669">
        <ele>2398.63</ele>
        <time>2022-06-02T08:55:36Z</time>
      </trkpt>
      <trkpt lat="42.92555" lon="0.14671">
        <ele>2400.07</ele>
        <time>2022-06-02T08:55:49Z</time>
      </trkpt>
      <trkpt lat="42.92555" lon="0.14675">
        <ele>2401.51</ele>
        <time>2022-06-02T08:56:07Z</time>
      </trkpt>
      <trkpt lat="42.92554" lon="0.14669">
        <ele>2403.43</ele>
        <time>2022-06-02T08:56:37Z</time>
      </trkpt>
      <trkpt lat="42.92552" lon="0.14665">
        <ele>2404.88</ele>
        <time>2022-06-02T08:56:51Z</time>
      </trkpt>
      <trkpt lat="42.92551" lon="0.14665">
        <ele>2404.88</ele>
        <time>2022-06-02T08:57:17Z</time>
      </trkpt>
      <trkpt lat="42.9255" lon="0.14666">
        <ele>2407.28</ele>
        <time>2022-06-02T08:57:31Z</time>
      </trkpt>
      <trkpt lat="42.92547" lon="0.14662">
        <ele>2409.68</ele>
        <time>2022-06-02T08:57:46Z</time>
      </trkpt>
      <trkpt lat="42.92545" lon="0.14662">
        <ele>2410.16</ele>
        <time>2022-06-02T08:58:03Z</time>
      </trkpt>
      <trkpt lat="42.92543" lon="0.14658">
        <ele>2412.09</ele>
        <time>2022-06-02T08:58:22Z</time>
      </trkpt>
      <trkpt lat="42.92543" lon="0.14659">
        <ele>2414.01</ele>
        <time>2022-06-02T08:58:38Z</time>
      </trkpt>
      <trkpt lat="42.92542" lon="0.14658">
        <ele>2414.01</ele>
        <time>2022-06-02T08:59:04Z</time>
      </trkpt>
      <trkpt lat="42.92542" lon="0.14658">
        <ele>2414.01</ele>
        <time>2022-06-02T08:59:32Z</time>
      </trkpt>
      <trkpt lat="42.92541" lon="0.14653">
        <ele>2415.93</ele>
        <time>2022-06-02T08:59:45Z</time>
      </trkpt>
      <trkpt lat="42.92537" lon="0.14654">
        <ele>2417.85</ele>
        <time>2022-06-02T08:59:59Z</time>
      </trkpt>
      <trkpt lat="42.92539" lon="0.14659">
        <ele>2418.33</ele>
        <time>2022-06-02T09:00:24Z</time>
      </trkpt>
      <trkpt lat="42.92538" lon="0.14664">
        <ele>2420.26</ele>
        <time>2022-06-02T09:00:39Z</time>
      </trkpt>
      <trkpt lat="42.92535" lon="0.14666">
        <ele>2423.14</ele>
        <time>2022-06-02T09:00:56Z</time>
      </trkpt>
      <trkpt lat="42.92533" lon="0.14665">
        <ele>2424.58</ele>
        <time>2022-06-02T09:01:15Z</time>
      </trkpt>
      <trkpt lat="42.92532" lon="0.14668">
        <ele>2426.02</ele>
        <time>2022-06-02T09:01:30Z</time>
      </trkpt>
      <trkpt lat="42.92532" lon="0.1467">
        <ele>2426.5</ele>
        <time>2022-06-02T09:01:56Z</time>
      </trkpt>
      <trkpt lat="42.92529" lon="0.14664">
        <ele>2428.43</ele>
        <time>2022-06-02T09:02:14Z</time>
      </trkpt>
      <trkpt lat="42.92527" lon="0.14664">
        <ele>2429.87</ele>
        <time>2022-06-02T09:02:27Z</time>
      </trkpt>
      <trkpt lat="42.92528" lon="0.14669">
        <ele>2430.83</ele>
        <time>2022-06-02T09:02:51Z</time>
      </trkpt>
      <trkpt lat="42.92526" lon="0.14674">
        <ele>2432.27</ele>
        <time>2022-06-02T09:03:03Z</time>
      </trkpt>
      <trkpt lat="42.92526" lon="0.14678">
        <ele>2434.68</ele>
        <time>2022-06-02T09:03:19Z</time>
      </trkpt>
      <trkpt lat="42.92522" lon="0.14679">
        <ele>2436.12</ele>
        <time>2022-06-02T09:03:34Z</time>
      </trkpt>
      <trkpt lat="42.92523" lon="0.1468">
        <ele>2437.08</ele>
        <time>2022-06-02T09:03:54Z</time>
      </trkpt>
      <trkpt lat="42.92524" lon="0.14686">
        <ele>2439</ele>
        <time>2022-06-02T09:04:10Z</time>
      </trkpt>
      <trkpt lat="42.92519" lon="0.14695">
        <ele>2440.44</ele>
        <time>2022-06-02T09:04:25Z</time>
      </trkpt>
      <trkpt lat="42.92514" lon="0.14698">
        <ele>2441.89</ele>
        <time>2022-06-02T09:04:38Z</time>
      </trkpt>
      <trkpt lat="42.92512" lon="0.14699">
        <ele>2442.37</ele>
        <time>2022-06-02T09:04:42Z</time>
      </trkpt>
      <trkpt lat="42.9251" lon="0.14707">
        <ele>2443.81</ele>
        <time>2022-06-02T09:04:54Z</time>
      </trkpt>
      <trkpt lat="42.92511" lon="0.14712">
        <ele>2444.29</ele>
        <time>2022-06-02T09:05:09Z</time>
      </trkpt>
      <trkpt lat="42.92514" lon="0.14718">
        <ele>2442.85</ele>
        <time>2022-06-02T09:05:27Z</time>
      </trkpt>
      <trkpt lat="42.92516" lon="0.14726">
        <ele>2439.96</ele>
        <time>2022-06-02T09:05:40Z</time>
      </trkpt>
      <trkpt lat="42.92513" lon="0.14726">
        <ele>2439.48</ele>
        <time>2022-06-02T09:05:54Z</time>
      </trkpt>
      <trkpt lat="42.92514" lon="0.14737">
        <ele>2440.44</ele>
        <time>2022-06-02T09:06:12Z</time>
      </trkpt>
      <trkpt lat="42.92511" lon="0.14748">
        <ele>2441.89</ele>
        <time>2022-06-02T09:06:26Z</time>
      </trkpt>
      <trkpt lat="42.92518" lon="0.14752">
        <ele>2444.77</ele>
        <time>2022-06-02T09:06:43Z</time>
      </trkpt>
      <trkpt lat="42.92515" lon="0.14755">
        <ele>2445.73</ele>
        <time>2022-06-02T09:06:56Z</time>
      </trkpt>
      <trkpt lat="42.92514" lon="0.14759">
        <ele>2447.65</ele>
        <time>2022-06-02T09:07:18Z</time>
      </trkpt>
      <trkpt lat="42.92515" lon="0.14762">
        <ele>2449.1</ele>
        <time>2022-06-02T09:07:32Z</time>
      </trkpt>
      <trkpt lat="42.92516" lon="0.14766">
        <ele>2450.06</ele>
        <time>2022-06-02T09:07:46Z</time>
      </trkpt>
      <trkpt lat="42.92518" lon="0.14766">
        <ele>2450.54</ele>
        <time>2022-06-02T09:08:05Z</time>
      </trkpt>
      <trkpt lat="42.92516" lon="0.14767">
        <ele>2449.58</ele>
        <time>2022-06-02T09:08:34Z</time>
      </trkpt>
      <trkpt lat="42.92515" lon="0.14761">
        <ele>2449.1</ele>
        <time>2022-06-02T09:08:56Z</time>
      </trkpt>
      <trkpt lat="42.92518" lon="0.14754">
        <ele>2446.21</ele>
        <time>2022-06-02T09:09:08Z</time>
      </trkpt>
      <trkpt lat="42.92515" lon="0.14749">
        <ele>2443.33</ele>
        <time>2022-06-02T09:09:18Z</time>
      </trkpt>
      <trkpt lat="42.92513" lon="0.14737">
        <ele>2439.96</ele>
        <time>2022-06-02T09:09:30Z</time>
      </trkpt>
      <trkpt lat="42.92512" lon="0.14723">
        <ele>2439</ele>
        <time>2022-06-02T09:09:43Z</time>
      </trkpt>
      <trkpt lat="42.92513" lon="0.14725">
        <ele>2438.04</ele>
        <time>2022-06-02T09:09:59Z</time>
      </trkpt>
      <trkpt lat="42.92513" lon="0.14725">
        <ele>2438.04</ele>
        <time>2022-06-02T09:10:30Z</time>
      </trkpt>
      <trkpt lat="42.92512" lon="0.14726">
        <ele>2438.04</ele>
        <time>2022-06-02T09:11:06Z</time>
      </trkpt>
      <trkpt lat="42.92513" lon="0.14723">
        <ele>2438.04</ele>
        <time>2022-06-02T09:11:41Z</time>
      </trkpt>
      <trkpt lat="42.92513" lon="0.14723">
        <ele>2439.48</ele>
        <time>2022-06-02T09:12:11Z</time>
      </trkpt>
      <trkpt lat="42.92511" lon="0.14724">
        <ele>2438.52</ele>
        <time>2022-06-02T09:12:44Z</time>
      </trkpt>
      <trkpt lat="42.92512" lon="0.14724">
        <ele>2439.48</ele>
        <time>2022-06-02T09:13:09Z</time>
      </trkpt>
      <trkpt lat="42.92512" lon="0.14724">
        <ele>2439</ele>
        <time>2022-06-02T09:13:39Z</time>
      </trkpt>
      <trkpt lat="42.92513" lon="0.14724">
        <ele>2439.96</ele>
        <time>2022-06-02T09:14:06Z</time>
      </trkpt>
      <trkpt lat="42.92511" lon="0.14725">
        <ele>2439.48</ele>
        <time>2022-06-02T09:14:35Z</time>
      </trkpt>
      <trkpt lat="42.92513" lon="0.14725">
        <ele>2439.48</ele>
        <time>2022-06-02T09:14:59Z</time>
      </trkpt>
      <trkpt lat="42.92512" lon="0.14724">
        <ele>2439.48</ele>
        <time>2022-06-02T09:15:29Z</time>
      </trkpt>
      <trkpt lat="42.92512" lon="0.14723">
        <ele>2439.96</ele>
        <time>2022-06-02T09:16:03Z</time>
      </trkpt>
      <trkpt lat="42.92511" lon="0.14724">
        <ele>2440.44</ele>
        <time>2022-06-02T09:16:37Z</time>
      </trkpt>
      <trkpt lat="42.92512" lon="0.14724">
        <ele>2441.41</ele>
        <time>2022-06-02T09:17:08Z</time>
      </trkpt>
      <trkpt lat="42.92512" lon="0.14725">
        <ele>2441.41</ele>
        <time>2022-06-02T09:17:42Z</time>
      </trkpt>
      <trkpt lat="42.92512" lon="0.14726">
        <ele>2441.41</ele>
        <time>2022-06-02T09:18:17Z</time>
      </trkpt>
      <trkpt lat="42.92513" lon="0.14724">
        <ele>2440.92</ele>
        <time>2022-06-02T09:18:52Z</time>
      </trkpt>
      <trkpt lat="42.92512" lon="0.14726">
        <ele>2439.96</ele>
        <time>2022-06-02T09:19:22Z</time>
      </trkpt>
      <trkpt lat="42.92512" lon="0.14725">
        <ele>2439.96</ele>
        <time>2022-06-02T09:19:55Z</time>
      </trkpt>
      <trkpt lat="42.92512" lon="0.14725">
        <ele>2439.96</ele>
        <time>2022-06-02T09:20:26Z</time>
      </trkpt>
      <trkpt lat="42.92512" lon="0.14724">
        <ele>2439.96</ele>
        <time>2022-06-02T09:21:01Z</time>
      </trkpt>
      <trkpt lat="42.92511" lon="0.14725">
        <ele>2440.92</ele>
        <time>2022-06-02T09:21:39Z</time>
      </trkpt>
      <trkpt lat="42.92511" lon="0.14725">
        <ele>2440.92</ele>
        <time>2022-06-02T09:21:41Z</time>
      </trkpt>
      <trkpt lat="42.92512" lon="0.14725">
        <ele>2442.37</ele>
        <time>2022-06-02T09:21:51Z</time>
      </trkpt>
      <trkpt lat="42.92512" lon="0.14723">
        <ele>2440.92</ele>
        <time>2022-06-02T09:22:16Z</time>
      </trkpt>
      <trkpt lat="42.92512" lon="0.14725">
        <ele>2441.41</ele>
        <time>2022-06-02T09:22:41Z</time>
      </trkpt>
      <trkpt lat="42.92514" lon="0.14726">
        <ele>2440.92</ele>
        <time>2022-06-02T09:22:55Z</time>
      </trkpt>
      <trkpt lat="42.92515" lon="0.14726">
        <ele>2441.89</ele>
        <time>2022-06-02T09:23:15Z</time>
      </trkpt>
      <trkpt lat="42.92514" lon="0.14726">
        <ele>2440.92</ele>
        <time>2022-06-02T09:23:37Z</time>
      </trkpt>
      <trkpt lat="42.92514" lon="0.14723">
        <ele>2441.41</ele>
        <time>2022-06-02T09:23:56Z</time>
      </trkpt>
      <trkpt lat="42.92515" lon="0.14723">
        <ele>2442.37</ele>
        <time>2022-06-02T09:24:20Z</time>
      </trkpt>
      <trkpt lat="42.92514" lon="0.14725">
        <ele>2441.41</ele>
        <time>2022-06-02T09:24:39Z</time>
      </trkpt>
      <trkpt lat="42.92516" lon="0.14722">
        <ele>2439.96</ele>
        <time>2022-06-02T09:24:57Z</time>
      </trkpt>
      <trkpt lat="42.9252" lon="0.14719">
        <ele>2437.08</ele>
        <time>2022-06-02T09:25:15Z</time>
      </trkpt>
      <trkpt lat="42.92531" lon="0.14721">
        <ele>2432.27</ele>
        <time>2022-06-02T09:25:20Z</time>
      </trkpt>
      <trkpt lat="42.92533" lon="0.14719">
        <ele>2430.83</ele>
        <time>2022-06-02T09:25:21Z</time>
      </trkpt>
      <trkpt lat="42.9254" lon="0.14707">
        <ele>2424.1</ele>
        <time>2022-06-02T09:25:27Z</time>
      </trkpt>
      <trkpt lat="42.92543" lon="0.14708">
        <ele>2420.74</ele>
        <time>2022-06-02T09:25:29Z</time>
      </trkpt>
      <trkpt lat="42.92546" lon="0.14696">
        <ele>2415.45</ele>
        <time>2022-06-02T09:25:32Z</time>
      </trkpt>
      <trkpt lat="42.92548" lon="0.14688">
        <ele>2414.01</ele>
        <time>2022-06-02T09:25:34Z</time>
      </trkpt>
      <trkpt lat="42.9255" lon="0.1468">
        <ele>2411.6</ele>
        <time>2022-06-02T09:25:37Z</time>
      </trkpt>
      <trkpt lat="42.92555" lon="0.14686">
        <ele>2407.28</ele>
        <time>2022-06-02T09:25:40Z</time>
      </trkpt>
      <trkpt lat="42.92561" lon="0.14686">
        <ele>2402.95</ele>
        <time>2022-06-02T09:25:43Z</time>
      </trkpt>
      <trkpt lat="42.92565" lon="0.14686">
        <ele>2399.59</ele>
        <time>2022-06-02T09:25:45Z</time>
      </trkpt>
      <trkpt lat="42.92569" lon="0.1469">
        <ele>2396.7</ele>
        <time>2022-06-02T09:25:47Z</time>
      </trkpt>
      <trkpt lat="42.92573" lon="0.1469">
        <ele>2392.38</ele>
        <time>2022-06-02T09:25:49Z</time>
      </trkpt>
      <trkpt lat="42.92577" lon="0.1468">
        <ele>2388.53</ele>
        <time>2022-06-02T09:25:52Z</time>
      </trkpt>
      <trkpt lat="42.92584" lon="0.14681">
        <ele>2382.76</ele>
        <time>2022-06-02T09:25:55Z</time>
      </trkpt>
      <trkpt lat="42.92586" lon="0.14682">
        <ele>2381.32</ele>
        <time>2022-06-02T09:25:56Z</time>
      </trkpt>
      <trkpt lat="42.92593" lon="0.14678">
        <ele>2375.55</ele>
        <time>2022-06-02T09:25:59Z</time>
      </trkpt>
      <trkpt lat="42.92596" lon="0.14675">
        <ele>2374.59</ele>
        <time>2022-06-02T09:26:00Z</time>
      </trkpt>
      <trkpt lat="42.92597" lon="0.14653">
        <ele>2370.27</ele>
        <time>2022-06-02T09:26:05Z</time>
      </trkpt>
      <trkpt lat="42.92598" lon="0.14645">
        <ele>2369.31</ele>
        <time>2022-06-02T09:26:07Z</time>
      </trkpt>
      <trkpt lat="42.92604" lon="0.14644">
        <ele>2363.54</ele>
        <time>2022-06-02T09:26:10Z</time>
      </trkpt>
      <trkpt lat="42.92609" lon="0.14644">
        <ele>2359.69</ele>
        <time>2022-06-02T09:26:12Z</time>
      </trkpt>
      <trkpt lat="42.92622" lon="0.14642">
        <ele>2351.04</ele>
        <time>2022-06-02T09:26:16Z</time>
      </trkpt>
      <trkpt lat="42.92624" lon="0.14645">
        <ele>2349.12</ele>
        <time>2022-06-02T09:26:17Z</time>
      </trkpt>
      <trkpt lat="42.9263" lon="0.14644">
        <ele>2345.75</ele>
        <time>2022-06-02T09:26:19Z</time>
      </trkpt>
      <trkpt lat="42.9263" lon="0.14642">
        <ele>2345.75</ele>
        <time>2022-06-02T09:26:20Z</time>
      </trkpt>
      <trkpt lat="42.92629" lon="0.1464">
        <ele>2344.79</ele>
        <time>2022-06-02T09:26:23Z</time>
      </trkpt>
      <trkpt lat="42.92628" lon="0.14638">
        <ele>2345.27</ele>
        <time>2022-06-02T09:26:41Z</time>
      </trkpt>
      <trkpt lat="42.92622" lon="0.14629">
        <ele>2344.79</ele>
        <time>2022-06-02T09:27:17Z</time>
      </trkpt>
      <trkpt lat="42.92622" lon="0.1463">
        <ele>2344.31</ele>
        <time>2022-06-02T09:27:25Z</time>
      </trkpt>
      <trkpt lat="42.92631" lon="0.1464">
        <ele>2339.51</ele>
        <time>2022-06-02T09:27:30Z</time>
      </trkpt>
      <trkpt lat="42.92633" lon="0.14645">
        <ele>2338.06</ele>
        <time>2022-06-02T09:27:31Z</time>
      </trkpt>
      <trkpt lat="42.92636" lon="0.14656">
        <ele>2337.1</ele>
        <time>2022-06-02T09:27:33Z</time>
      </trkpt>
      <trkpt lat="42.92638" lon="0.1466">
        <ele>2335.66</ele>
        <time>2022-06-02T09:27:34Z</time>
      </trkpt>
      <trkpt lat="42.92647" lon="0.14664">
        <ele>2330.37</ele>
        <time>2022-06-02T09:27:37Z</time>
      </trkpt>
      <trkpt lat="42.92659" lon="0.14676">
        <ele>2323.16</ele>
        <time>2022-06-02T09:27:40Z</time>
      </trkpt>
      <trkpt lat="42.92665" lon="0.14684">
        <ele>2319.32</ele>
        <time>2022-06-02T09:27:42Z</time>
      </trkpt>
      <trkpt lat="42.92674" lon="0.14686">
        <ele>2313.07</ele>
        <time>2022-06-02T09:27:44Z</time>
      </trkpt>
      <trkpt lat="42.92681" lon="0.14695">
        <ele>2308.74</ele>
        <time>2022-06-02T09:27:46Z</time>
      </trkpt>
      <trkpt lat="42.92687" lon="0.14702">
        <ele>2305.38</ele>
        <time>2022-06-02T09:27:48Z</time>
      </trkpt>
      <trkpt lat="42.92693" lon="0.14698">
        <ele>2301.05</ele>
        <time>2022-06-02T09:27:49Z</time>
      </trkpt>
      <trkpt lat="42.92702" lon="0.14703">
        <ele>2295.28</ele>
        <time>2022-06-02T09:27:51Z</time>
      </trkpt>
      <trkpt lat="42.92704" lon="0.14709">
        <ele>2293.84</ele>
        <time>2022-06-02T09:27:52Z</time>
      </trkpt>
      <trkpt lat="42.9271" lon="0.14729">
        <ele>2288.56</ele>
        <time>2022-06-02T09:27:55Z</time>
      </trkpt>
      <trkpt lat="42.92723" lon="0.14748">
        <ele>2279.42</ele>
        <time>2022-06-02T09:27:59Z</time>
      </trkpt>
      <trkpt lat="42.9273" lon="0.14751">
        <ele>2275.1</ele>
        <time>2022-06-02T09:28:00Z</time>
      </trkpt>
      <trkpt lat="42.92739" lon="0.14766">
        <ele>2270.77</ele>
        <time>2022-06-02T09:28:02Z</time>
      </trkpt>
      <trkpt lat="42.92742" lon="0.14774">
        <ele>2269.81</ele>
        <time>2022-06-02T09:28:03Z</time>
      </trkpt>
      <trkpt lat="42.92754" lon="0.14803">
        <ele>2265.96</ele>
        <time>2022-06-02T09:28:08Z</time>
      </trkpt>
      <trkpt lat="42.92763" lon="0.14815">
        <ele>2262.6</ele>
        <time>2022-06-02T09:28:11Z</time>
      </trkpt>
      <trkpt lat="42.92774" lon="0.14801">
        <ele>2256.83</ele>
        <time>2022-06-02T09:28:13Z</time>
      </trkpt>
      <trkpt lat="42.92784" lon="0.14795">
        <ele>2250.58</ele>
        <time>2022-06-02T09:28:15Z</time>
      </trkpt>
      <trkpt lat="42.9281" lon="0.14794">
        <ele>2242.41</ele>
        <time>2022-06-02T09:28:19Z</time>
      </trkpt>
      <trkpt lat="42.92817" lon="0.1479">
        <ele>2240.97</ele>
        <time>2022-06-02T09:28:20Z</time>
      </trkpt>
      <trkpt lat="42.92827" lon="0.14775">
        <ele>2234.72</ele>
        <time>2022-06-02T09:28:23Z</time>
      </trkpt>
      <trkpt lat="42.92831" lon="0.14773">
        <ele>2231.84</ele>
        <time>2022-06-02T09:28:24Z</time>
      </trkpt>
      <trkpt lat="42.92835" lon="0.14772">
        <ele>2228.47</ele>
        <time>2022-06-02T09:28:25Z</time>
      </trkpt>
      <trkpt lat="42.92845" lon="0.14765">
        <ele>2227.03</ele>
        <time>2022-06-02T09:28:27Z</time>
      </trkpt>
      <trkpt lat="42.92853" lon="0.14753">
        <ele>2226.07</ele>
        <time>2022-06-02T09:28:31Z</time>
      </trkpt>
      <trkpt lat="42.92843" lon="0.14733">
        <ele>2224.15</ele>
        <time>2022-06-02T09:28:35Z</time>
      </trkpt>
      <trkpt lat="42.9284" lon="0.14691">
        <ele>2222.22</ele>
        <time>2022-06-02T09:28:45Z</time>
      </trkpt>
      <trkpt lat="42.92832" lon="0.14681">
        <ele>2222.71</ele>
        <time>2022-06-02T09:29:06Z</time>
      </trkpt>
      <trkpt lat="42.92831" lon="0.14682">
        <ele>2222.22</ele>
        <time>2022-06-02T09:29:22Z</time>
      </trkpt>
      <trkpt lat="42.9283" lon="0.14683">
        <ele>2222.22</ele>
        <time>2022-06-02T09:29:31Z</time>
      </trkpt>
      <trkpt lat="42.92839" lon="0.14691">
        <ele>2220.78</ele>
        <time>2022-06-02T09:29:40Z</time>
      </trkpt>
      <trkpt lat="42.92847" lon="0.14693">
        <ele>2220.3</ele>
        <time>2022-06-02T09:29:59Z</time>
      </trkpt>
      <trkpt lat="42.92848" lon="0.14694">
        <ele>2219.34</ele>
        <time>2022-06-02T09:30:00Z</time>
      </trkpt>
      <trkpt lat="42.92856" lon="0.1469">
        <ele>2217.9</ele>
        <time>2022-06-02T09:30:03Z</time>
      </trkpt>
      <trkpt lat="42.92859" lon="0.1469">
        <ele>2217.42</ele>
        <time>2022-06-02T09:30:04Z</time>
      </trkpt>
      <trkpt lat="42.92864" lon="0.14701">
        <ele>2215.01</ele>
        <time>2022-06-02T09:30:07Z</time>
      </trkpt>
      <trkpt lat="42.92874" lon="0.14709">
        <ele>2211.17</ele>
        <time>2022-06-02T09:30:11Z</time>
      </trkpt>
      <trkpt lat="42.92884" lon="0.14719">
        <ele>2208.77</ele>
        <time>2022-06-02T09:30:14Z</time>
      </trkpt>
      <trkpt lat="42.9289" lon="0.14729">
        <ele>2205.4</ele>
        <time>2022-06-02T09:30:16Z</time>
      </trkpt>
      <trkpt lat="42.92901" lon="0.14734">
        <ele>2203</ele>
        <time>2022-06-02T09:30:19Z</time>
      </trkpt>
      <trkpt lat="42.92913" lon="0.14736">
        <ele>2201.56</ele>
        <time>2022-06-02T09:30:23Z</time>
      </trkpt>
      <trkpt lat="42.92918" lon="0.14749">
        <ele>2201.08</ele>
        <time>2022-06-02T09:30:27Z</time>
      </trkpt>
      <trkpt lat="42.92919" lon="0.14775">
        <ele>2198.19</ele>
        <time>2022-06-02T09:30:32Z</time>
      </trkpt>
      <trkpt lat="42.92926" lon="0.14813">
        <ele>2195.79</ele>
        <time>2022-06-02T09:30:42Z</time>
      </trkpt>
      <trkpt lat="42.92927" lon="0.14823">
        <ele>2196.27</ele>
        <time>2022-06-02T09:30:55Z</time>
      </trkpt>
      <trkpt lat="42.92933" lon="0.14838">
        <ele>2193.87</ele>
        <time>2022-06-02T09:31:07Z</time>
      </trkpt>
      <trkpt lat="42.92925" lon="0.14881">
        <ele>2190.5</ele>
        <time>2022-06-02T09:31:16Z</time>
      </trkpt>
      <trkpt lat="42.92924" lon="0.14893">
        <ele>2188.58</ele>
        <time>2022-06-02T09:31:18Z</time>
      </trkpt>
      <trkpt lat="42.92927" lon="0.14924">
        <ele>2185.69</ele>
        <time>2022-06-02T09:31:22Z</time>
      </trkpt>
      <trkpt lat="42.92933" lon="0.14961">
        <ele>2181.37</ele>
        <time>2022-06-02T09:31:26Z</time>
      </trkpt>
      <trkpt lat="42.92935" lon="0.14986">
        <ele>2178.48</ele>
        <time>2022-06-02T09:31:29Z</time>
      </trkpt>
      <trkpt lat="42.92943" lon="0.15009">
        <ele>2171.27</ele>
        <time>2022-06-02T09:31:32Z</time>
      </trkpt>
      <trkpt lat="42.92945" lon="0.15044">
        <ele>2166.95</ele>
        <time>2022-06-02T09:31:36Z</time>
      </trkpt>
      <trkpt lat="42.92946" lon="0.15053">
        <ele>2167.91</ele>
        <time>2022-06-02T09:31:38Z</time>
      </trkpt>
      <trkpt lat="42.92951" lon="0.15061">
        <ele>2166.95</ele>
        <time>2022-06-02T09:31:40Z</time>
      </trkpt>
      <trkpt lat="42.92958" lon="0.15077">
        <ele>2165.03</ele>
        <time>2022-06-02T09:31:43Z</time>
      </trkpt>
      <trkpt lat="42.92961" lon="0.15097">
        <ele>2162.14</ele>
        <time>2022-06-02T09:31:46Z</time>
      </trkpt>
      <trkpt lat="42.92966" lon="0.15113">
        <ele>2156.37</ele>
        <time>2022-06-02T09:31:49Z</time>
      </trkpt>
      <trkpt lat="42.92968" lon="0.15118">
        <ele>2152.53</ele>
        <time>2022-06-02T09:31:50Z</time>
      </trkpt>
      <trkpt lat="42.92971" lon="0.15119">
        <ele>2149.65</ele>
        <time>2022-06-02T09:31:51Z</time>
      </trkpt>
      <trkpt lat="42.92983" lon="0.15129">
        <ele>2146.28</ele>
        <time>2022-06-02T09:31:54Z</time>
      </trkpt>
      <trkpt lat="42.92989" lon="0.15142">
        <ele>2144.84</ele>
        <time>2022-06-02T09:31:56Z</time>
      </trkpt>
      <trkpt lat="42.92996" lon="0.15158">
        <ele>2140.03</ele>
        <time>2022-06-02T09:32:00Z</time>
      </trkpt>
      <trkpt lat="42.93003" lon="0.15149">
        <ele>2137.63</ele>
        <time>2022-06-02T09:32:03Z</time>
      </trkpt>
      <trkpt lat="42.93005" lon="0.15133">
        <ele>2141.95</ele>
        <time>2022-06-02T09:32:15Z</time>
      </trkpt>
      <trkpt lat="42.93003" lon="0.15124">
        <ele>2139.55</ele>
        <time>2022-06-02T09:32:32Z</time>
      </trkpt>
      <trkpt lat="42.93012" lon="0.15136">
        <ele>2138.59</ele>
        <time>2022-06-02T09:32:45Z</time>
      </trkpt>
      <trkpt lat="42.93012" lon="0.15139">
        <ele>2137.63</ele>
        <time>2022-06-02T09:33:01Z</time>
      </trkpt>
      <trkpt lat="42.93014" lon="0.15141">
        <ele>2137.15</ele>
        <time>2022-06-02T09:33:18Z</time>
      </trkpt>
      <trkpt lat="42.93015" lon="0.15143">
        <ele>2136.67</ele>
        <time>2022-06-02T09:33:20Z</time>
      </trkpt>
      <trkpt lat="42.93019" lon="0.15153">
        <ele>2136.19</ele>
        <time>2022-06-02T09:33:32Z</time>
      </trkpt>
      <trkpt lat="42.93017" lon="0.15149">
        <ele>2134.74</ele>
        <time>2022-06-02T09:33:39Z</time>
      </trkpt>
      <trkpt lat="42.93011" lon="0.15135">
        <ele>2136.67</ele>
        <time>2022-06-02T09:33:52Z</time>
      </trkpt>
      <trkpt lat="42.9301" lon="0.15134">
        <ele>2138.11</ele>
        <time>2022-06-02T09:34:06Z</time>
      </trkpt>
      <trkpt lat="42.93006" lon="0.15133">
        <ele>2138.59</ele>
        <time>2022-06-02T09:34:20Z</time>
      </trkpt>
      <trkpt lat="42.93004" lon="0.15127">
        <ele>2138.59</ele>
        <time>2022-06-02T09:34:36Z</time>
      </trkpt>
      <trkpt lat="42.93007" lon="0.15128">
        <ele>2138.59</ele>
        <time>2022-06-02T09:34:51Z</time>
      </trkpt>
      <trkpt lat="42.9302" lon="0.15129">
        <ele>2136.19</ele>
        <time>2022-06-02T09:35:05Z</time>
      </trkpt>
      <trkpt lat="42.93021" lon="0.15131">
        <ele>2136.19</ele>
        <time>2022-06-02T09:35:07Z</time>
      </trkpt>
      <trkpt lat="42.9303" lon="0.15146">
        <ele>2134.26</ele>
        <time>2022-06-02T09:35:22Z</time>
      </trkpt>
      <trkpt lat="42.93037" lon="0.15158">
        <ele>2133.3</ele>
        <time>2022-06-02T09:35:36Z</time>
      </trkpt>
      <trkpt lat="42.93038" lon="0.15159">
        <ele>2133.3</ele>
        <time>2022-06-02T09:35:38Z</time>
      </trkpt>
      <trkpt lat="42.9304" lon="0.15163">
        <ele>2132.82</ele>
        <time>2022-06-02T09:35:41Z</time>
      </trkpt>
      <trkpt lat="42.93043" lon="0.15164">
        <ele>2131.38</ele>
        <time>2022-06-02T09:35:50Z</time>
      </trkpt>
      <trkpt lat="42.93045" lon="0.15163">
        <ele>2130.9</ele>
        <time>2022-06-02T09:35:52Z</time>
      </trkpt>
      <trkpt lat="42.93046" lon="0.1516">
        <ele>2131.38</ele>
        <time>2022-06-02T09:36:08Z</time>
      </trkpt>
      <trkpt lat="42.93046" lon="0.15159">
        <ele>2130.42</ele>
        <time>2022-06-02T09:36:28Z</time>
      </trkpt>
      <trkpt lat="42.93048" lon="0.15161">
        <ele>2129.94</ele>
        <time>2022-06-02T09:36:48Z</time>
      </trkpt>
      <trkpt lat="42.9305" lon="0.15162">
        <ele>2129.94</ele>
        <time>2022-06-02T09:37:05Z</time>
      </trkpt>
      <trkpt lat="42.93054" lon="0.15161">
        <ele>2129.46</ele>
        <time>2022-06-02T09:37:26Z</time>
      </trkpt>
      <trkpt lat="42.93058" lon="0.15171">
        <ele>2128.02</ele>
        <time>2022-06-02T09:37:30Z</time>
      </trkpt>
      <trkpt lat="42.93054" lon="0.15183">
        <ele>2124.17</ele>
        <time>2022-06-02T09:37:33Z</time>
      </trkpt>
      <trkpt lat="42.93056" lon="0.15187">
        <ele>2120.81</ele>
        <time>2022-06-02T09:37:35Z</time>
      </trkpt>
      <trkpt lat="42.93058" lon="0.15188">
        <ele>2120.81</ele>
        <time>2022-06-02T09:37:36Z</time>
      </trkpt>
      <trkpt lat="42.93054" lon="0.15204">
        <ele>2115.52</ele>
        <time>2022-06-02T09:37:41Z</time>
      </trkpt>
      <trkpt lat="42.93052" lon="0.15208">
        <ele>2113.6</ele>
        <time>2022-06-02T09:37:42Z</time>
      </trkpt>
      <trkpt lat="42.93053" lon="0.15217">
        <ele>2111.67</ele>
        <time>2022-06-02T09:37:44Z</time>
      </trkpt>
      <trkpt lat="42.93057" lon="0.15226">
        <ele>2109.75</ele>
        <time>2022-06-02T09:37:46Z</time>
      </trkpt>
      <trkpt lat="42.93065" lon="0.15244">
        <ele>2104.46</ele>
        <time>2022-06-02T09:37:50Z</time>
      </trkpt>
      <trkpt lat="42.93065" lon="0.15248">
        <ele>2102.54</ele>
        <time>2022-06-02T09:37:51Z</time>
      </trkpt>
      <trkpt lat="42.93065" lon="0.15257">
        <ele>2100.14</ele>
        <time>2022-06-02T09:37:52Z</time>
      </trkpt>
      <trkpt lat="42.93056" lon="0.15275">
        <ele>2095.81</ele>
        <time>2022-06-02T09:37:55Z</time>
      </trkpt>
      <trkpt lat="42.93054" lon="0.1529">
        <ele>2092.93</ele>
        <time>2022-06-02T09:37:57Z</time>
      </trkpt>
      <trkpt lat="42.9305" lon="0.15315">
        <ele>2088.6</ele>
        <time>2022-06-02T09:38:00Z</time>
      </trkpt>
      <trkpt lat="42.93046" lon="0.15331">
        <ele>2086.2</ele>
        <time>2022-06-02T09:38:02Z</time>
      </trkpt>
      <trkpt lat="42.93044" lon="0.15368">
        <ele>2081.39</ele>
        <time>2022-06-02T09:38:06Z</time>
      </trkpt>
      <trkpt lat="42.93043" lon="0.15379">
        <ele>2079.47</ele>
        <time>2022-06-02T09:38:07Z</time>
      </trkpt>
      <trkpt lat="42.9304" lon="0.15398">
        <ele>2077.55</ele>
        <time>2022-06-02T09:38:09Z</time>
      </trkpt>
      <trkpt lat="42.93037" lon="0.15428">
        <ele>2073.22</ele>
        <time>2022-06-02T09:38:12Z</time>
      </trkpt>
      <trkpt lat="42.93037" lon="0.15453">
        <ele>2069.86</ele>
        <time>2022-06-02T09:38:14Z</time>
      </trkpt>
      <trkpt lat="42.93039" lon="0.15478">
        <ele>2066.49</ele>
        <time>2022-06-02T09:38:16Z</time>
      </trkpt>
      <trkpt lat="42.93041" lon="0.15505">
        <ele>2062.17</ele>
        <time>2022-06-02T09:38:18Z</time>
      </trkpt>
      <trkpt lat="42.93043" lon="0.15541">
        <ele>2056.88</ele>
        <time>2022-06-02T09:38:21Z</time>
      </trkpt>
      <trkpt lat="42.93049" lon="0.15578">
        <ele>2053.51</ele>
        <time>2022-06-02T09:38:24Z</time>
      </trkpt>
      <trkpt lat="42.93052" lon="0.15606">
        <ele>2052.07</ele>
        <time>2022-06-02T09:38:27Z</time>
      </trkpt>
      <trkpt lat="42.93058" lon="0.15635">
        <ele>2048.23</ele>
        <time>2022-06-02T09:38:30Z</time>
      </trkpt>
      <trkpt lat="42.93057" lon="0.1566">
        <ele>2043.42</ele>
        <time>2022-06-02T09:38:33Z</time>
      </trkpt>
      <trkpt lat="42.9306" lon="0.15663">
        <ele>2042.94</ele>
        <time>2022-06-02T09:38:34Z</time>
      </trkpt>
      <trkpt lat="42.9306" lon="0.15687">
        <ele>2034.77</ele>
        <time>2022-06-02T09:38:38Z</time>
      </trkpt>
      <trkpt lat="42.93058" lon="0.15709">
        <ele>2029</ele>
        <time>2022-06-02T09:38:40Z</time>
      </trkpt>
      <trkpt lat="42.93058" lon="0.1572">
        <ele>2026.6</ele>
        <time>2022-06-02T09:38:43Z</time>
      </trkpt>
      <trkpt lat="42.9305" lon="0.15734">
        <ele>2026.6</ele>
        <time>2022-06-02T09:38:46Z</time>
      </trkpt>
      <trkpt lat="42.93054" lon="0.1573">
        <ele>2026.12</ele>
        <time>2022-06-02T09:38:53Z</time>
      </trkpt>
      <trkpt lat="42.93059" lon="0.15728">
        <ele>2025.15</ele>
        <time>2022-06-02T09:38:56Z</time>
      </trkpt>
      <trkpt lat="42.93082" lon="0.15708">
        <ele>2019.87</ele>
        <time>2022-06-02T09:39:00Z</time>
      </trkpt>
      <trkpt lat="42.93087" lon="0.1571">
        <ele>2017.46</ele>
        <time>2022-06-02T09:39:02Z</time>
      </trkpt>
      <trkpt lat="42.93092" lon="0.15724">
        <ele>2010.73</ele>
        <time>2022-06-02T09:39:07Z</time>
      </trkpt>
      <trkpt lat="42.93093" lon="0.15746">
        <ele>2004.97</ele>
        <time>2022-06-02T09:39:12Z</time>
      </trkpt>
      <trkpt lat="42.93092" lon="0.15749">
        <ele>2004.49</ele>
        <time>2022-06-02T09:39:13Z</time>
      </trkpt>
      <trkpt lat="42.9309" lon="0.15755">
        <ele>2003.52</ele>
        <time>2022-06-02T09:39:16Z</time>
      </trkpt>
      <trkpt lat="42.93089" lon="0.15758">
        <ele>2003.52</ele>
        <time>2022-06-02T09:39:17Z</time>
      </trkpt>
      <trkpt lat="42.93098" lon="0.15752">
        <ele>2002.08</ele>
        <time>2022-06-02T09:39:19Z</time>
      </trkpt>
      <trkpt lat="42.93109" lon="0.15714">
        <ele>2000.64</ele>
        <time>2022-06-02T09:39:28Z</time>
      </trkpt>
      <trkpt lat="42.93116" lon="0.15701">
        <ele>2000.64</ele>
        <time>2022-06-02T09:39:43Z</time>
      </trkpt>
      <trkpt lat="42.93126" lon="0.15713">
        <ele>1997.76</ele>
        <time>2022-06-02T09:39:52Z</time>
      </trkpt>
      <trkpt lat="42.93129" lon="0.15715">
        <ele>1995.83</ele>
        <time>2022-06-02T09:39:54Z</time>
      </trkpt>
      <trkpt lat="42.93129" lon="0.15704">
        <ele>1994.87</ele>
        <time>2022-06-02T09:40:10Z</time>
      </trkpt>
      <trkpt lat="42.93128" lon="0.15694">
        <ele>1994.87</ele>
        <time>2022-06-02T09:40:35Z</time>
      </trkpt>
      <trkpt lat="42.93129" lon="0.15694">
        <ele>1994.87</ele>
        <time>2022-06-02T09:40:53Z</time>
      </trkpt>
      <trkpt lat="42.93129" lon="0.15697">
        <ele>1994.87</ele>
        <time>2022-06-02T09:40:56Z</time>
      </trkpt>
      <trkpt lat="42.93132" lon="0.15695">
        <ele>1993.43</ele>
        <time>2022-06-02T09:41:06Z</time>
      </trkpt>
      <trkpt lat="42.93129" lon="0.15691">
        <ele>1993.43</ele>
        <time>2022-06-02T09:41:29Z</time>
      </trkpt>
      <trkpt lat="42.9313" lon="0.15694">
        <ele>1992.95</ele>
        <time>2022-06-02T09:42:01Z</time>
      </trkpt>
      <trkpt lat="42.9313" lon="0.15695">
        <ele>1992.47</ele>
        <time>2022-06-02T09:42:29Z</time>
      </trkpt>
      <trkpt lat="42.93129" lon="0.15695">
        <ele>1992.47</ele>
        <time>2022-06-02T09:43:04Z</time>
      </trkpt>
      <trkpt lat="42.93129" lon="0.15696">
        <ele>1992.47</ele>
        <time>2022-06-02T09:43:28Z</time>
      </trkpt>
      <trkpt lat="42.9313" lon="0.15697">
        <ele>1992.47</ele>
        <time>2022-06-02T09:44:05Z</time>
      </trkpt>
      <trkpt lat="42.93129" lon="0.15696">
        <ele>1992.47</ele>
        <time>2022-06-02T09:44:35Z</time>
      </trkpt>
      <trkpt lat="42.93129" lon="0.15696">
        <ele>1991.99</ele>
        <time>2022-06-02T09:45:16Z</time>
      </trkpt>
      <trkpt lat="42.93129" lon="0.15695">
        <ele>1991.99</ele>
        <time>2022-06-02T09:45:53Z</time>
      </trkpt>
      <trkpt lat="42.93127" lon="0.15693">
        <ele>1991.51</ele>
        <time>2022-06-02T09:46:31Z</time>
      </trkpt>
      <trkpt lat="42.9313" lon="0.15697">
        <ele>1991.03</ele>
        <time>2022-06-02T09:47:10Z</time>
      </trkpt>
      <trkpt lat="42.9313" lon="0.15701">
        <ele>1990.07</ele>
        <time>2022-06-02T09:47:45Z</time>
      </trkpt>
      <trkpt lat="42.93131" lon="0.15694">
        <ele>1989.1</ele>
        <time>2022-06-02T09:48:14Z</time>
      </trkpt>
      <trkpt lat="42.93131" lon="0.15696">
        <ele>1989.1</ele>
        <time>2022-06-02T09:48:56Z</time>
      </trkpt>
      <trkpt lat="42.9313" lon="0.15695">
        <ele>1989.1</ele>
        <time>2022-06-02T09:49:35Z</time>
      </trkpt>
      <trkpt lat="42.93131" lon="0.15694">
        <ele>1988.62</ele>
        <time>2022-06-02T09:50:06Z</time>
      </trkpt>
      <trkpt lat="42.93132" lon="0.15695">
        <ele>1988.14</ele>
        <time>2022-06-02T09:50:38Z</time>
      </trkpt>
      <trkpt lat="42.93131" lon="0.15697">
        <ele>1987.66</ele>
        <time>2022-06-02T09:51:17Z</time>
      </trkpt>
      <trkpt lat="42.93132" lon="0.15697">
        <ele>1987.18</ele>
        <time>2022-06-02T09:52:04Z</time>
      </trkpt>
      <trkpt lat="42.9313" lon="0.15697">
        <ele>1987.18</ele>
        <time>2022-06-02T09:52:40Z</time>
      </trkpt>
      <trkpt lat="42.93132" lon="0.15698">
        <ele>1986.7</ele>
        <time>2022-06-02T09:53:23Z</time>
      </trkpt>
      <trkpt lat="42.9313" lon="0.15696">
        <ele>1987.18</ele>
        <time>2022-06-02T09:53:41Z</time>
      </trkpt>
      <trkpt lat="42.93129" lon="0.15696">
        <ele>1988.14</ele>
        <time>2022-06-02T09:53:58Z</time>
      </trkpt>
      <trkpt lat="42.93131" lon="0.15696">
        <ele>1988.14</ele>
        <time>2022-06-02T09:54:19Z</time>
      </trkpt>
      <trkpt lat="42.9313" lon="0.15698">
        <ele>1987.66</ele>
        <time>2022-06-02T09:54:37Z</time>
      </trkpt>
      <trkpt lat="42.93128" lon="0.15697">
        <ele>1988.14</ele>
        <time>2022-06-02T09:54:59Z</time>
      </trkpt>
      <trkpt lat="42.93117" lon="0.15688">
        <ele>1991.51</ele>
        <time>2022-06-02T09:55:19Z</time>
      </trkpt>
      <trkpt lat="42.93113" lon="0.15678">
        <ele>1992.95</ele>
        <time>2022-06-02T09:55:38Z</time>
      </trkpt>
      <trkpt lat="42.93113" lon="0.15662">
        <ele>1994.87</ele>
        <time>2022-06-02T09:55:53Z</time>
      </trkpt>
      <trkpt lat="42.93103" lon="0.15663">
        <ele>1996.8</ele>
        <time>2022-06-02T09:56:10Z</time>
      </trkpt>
      <trkpt lat="42.931" lon="0.15652">
        <ele>1999.2</ele>
        <time>2022-06-02T09:56:25Z</time>
      </trkpt>
      <trkpt lat="42.93099" lon="0.15635">
        <ele>2002.08</ele>
        <time>2022-06-02T09:56:44Z</time>
      </trkpt>
      <trkpt lat="42.93096" lon="0.15639">
        <ele>2003.04</ele>
        <time>2022-06-02T09:56:53Z</time>
      </trkpt>
      <trkpt lat="42.93089" lon="0.1564">
        <ele>2004.01</ele>
        <time>2022-06-02T09:57:06Z</time>
      </trkpt>
      <trkpt lat="42.93093" lon="0.15618">
        <ele>2006.41</ele>
        <time>2022-06-02T09:57:20Z</time>
      </trkpt>
      <trkpt lat="42.93097" lon="0.15602">
        <ele>2007.85</ele>
        <time>2022-06-02T09:57:34Z</time>
      </trkpt>
      <trkpt lat="42.93101" lon="0.15588">
        <ele>2010.25</ele>
        <time>2022-06-02T09:57:54Z</time>
      </trkpt>
      <trkpt lat="42.93096" lon="0.156">
        <ele>2011.22</ele>
        <time>2022-06-02T09:58:08Z</time>
      </trkpt>
      <trkpt lat="42.93092" lon="0.15602">
        <ele>2012.66</ele>
        <time>2022-06-02T09:58:12Z</time>
      </trkpt>
      <trkpt lat="42.93086" lon="0.15605">
        <ele>2014.1</ele>
        <time>2022-06-02T09:58:23Z</time>
      </trkpt>
      <trkpt lat="42.93082" lon="0.15593">
        <ele>2016.02</ele>
        <time>2022-06-02T09:58:39Z</time>
      </trkpt>
      <trkpt lat="42.93083" lon="0.15577">
        <ele>2017.46</ele>
        <time>2022-06-02T09:58:52Z</time>
      </trkpt>
      <trkpt lat="42.93086" lon="0.15564">
        <ele>2019.39</ele>
        <time>2022-06-02T09:59:08Z</time>
      </trkpt>
      <trkpt lat="42.9309" lon="0.15554">
        <ele>2020.83</ele>
        <time>2022-06-02T09:59:22Z</time>
      </trkpt>
      <trkpt lat="42.93097" lon="0.15544">
        <ele>2022.75</ele>
        <time>2022-06-02T09:59:39Z</time>
      </trkpt>
      <trkpt lat="42.93093" lon="0.15549">
        <ele>2024.67</ele>
        <time>2022-06-02T09:59:53Z</time>
      </trkpt>
      <trkpt lat="42.93084" lon="0.15547">
        <ele>2026.12</ele>
        <time>2022-06-02T10:00:11Z</time>
      </trkpt>
      <trkpt lat="42.93083" lon="0.15548">
        <ele>2026.6</ele>
        <time>2022-06-02T10:00:12Z</time>
      </trkpt>
      <trkpt lat="42.93074" lon="0.15542">
        <ele>2028.52</ele>
        <time>2022-06-02T10:00:27Z</time>
      </trkpt>
      <trkpt lat="42.9308" lon="0.15519">
        <ele>2030.92</ele>
        <time>2022-06-02T10:00:43Z</time>
      </trkpt>
      <trkpt lat="42.93085" lon="0.15508">
        <ele>2032.84</ele>
        <time>2022-06-02T10:00:59Z</time>
      </trkpt>
      <trkpt lat="42.9309" lon="0.15502">
        <ele>2034.29</ele>
        <time>2022-06-02T10:01:14Z</time>
      </trkpt>
      <trkpt lat="42.93095" lon="0.15493">
        <ele>2036.69</ele>
        <time>2022-06-02T10:01:31Z</time>
      </trkpt>
      <trkpt lat="42.9309" lon="0.15488">
        <ele>2038.61</ele>
        <time>2022-06-02T10:01:44Z</time>
      </trkpt>
      <trkpt lat="42.9308" lon="0.15479">
        <ele>2039.57</ele>
        <time>2022-06-02T10:02:01Z</time>
      </trkpt>
      <trkpt lat="42.93074" lon="0.1547">
        <ele>2041.5</ele>
        <time>2022-06-02T10:02:20Z</time>
      </trkpt>
      <trkpt lat="42.93066" lon="0.15452">
        <ele>2043.9</ele>
        <time>2022-06-02T10:02:41Z</time>
      </trkpt>
      <trkpt lat="42.93072" lon="0.1544">
        <ele>2043.42</ele>
        <time>2022-06-02T10:02:59Z</time>
      </trkpt>
      <trkpt lat="42.93072" lon="0.15438">
        <ele>2044.38</ele>
        <time>2022-06-02T10:03:14Z</time>
      </trkpt>
      <trkpt lat="42.93073" lon="0.15425">
        <ele>2046.3</ele>
        <time>2022-06-02T10:03:32Z</time>
      </trkpt>
      <trkpt lat="42.93077" lon="0.15411">
        <ele>2049.19</ele>
        <time>2022-06-02T10:03:50Z</time>
      </trkpt>
      <trkpt lat="42.93077" lon="0.15399">
        <ele>2051.11</ele>
        <time>2022-06-02T10:04:09Z</time>
      </trkpt>
      <trkpt lat="42.93076" lon="0.15389">
        <ele>2053.03</ele>
        <time>2022-06-02T10:04:26Z</time>
      </trkpt>
      <trkpt lat="42.93068" lon="0.15384">
        <ele>2055.92</ele>
        <time>2022-06-02T10:04:43Z</time>
      </trkpt>
      <trkpt lat="42.93063" lon="0.1537">
        <ele>2058.32</ele>
        <time>2022-06-02T10:05:04Z</time>
      </trkpt>
      <trkpt lat="42.93069" lon="0.15355">
        <ele>2060.24</ele>
        <time>2022-06-02T10:05:20Z</time>
      </trkpt>
      <trkpt lat="42.93062" lon="0.15351">
        <ele>2062.65</ele>
        <time>2022-06-02T10:05:36Z</time>
      </trkpt>
      <trkpt lat="42.93054" lon="0.15352">
        <ele>2064.57</ele>
        <time>2022-06-02T10:05:49Z</time>
      </trkpt>
      <trkpt lat="42.93051" lon="0.15355">
        <ele>2064.57</ele>
        <time>2022-06-02T10:05:52Z</time>
      </trkpt>
      <trkpt lat="42.93036" lon="0.15349">
        <ele>2067.45</ele>
        <time>2022-06-02T10:06:08Z</time>
      </trkpt>
      <trkpt lat="42.93045" lon="0.15328">
        <ele>2068.41</ele>
        <time>2022-06-02T10:06:24Z</time>
      </trkpt>
      <trkpt lat="42.9305" lon="0.15316">
        <ele>2069.86</ele>
        <time>2022-06-02T10:06:36Z</time>
      </trkpt>
      <trkpt lat="42.93053" lon="0.15307">
        <ele>2071.3</ele>
        <time>2022-06-02T10:06:49Z</time>
      </trkpt>
      <trkpt lat="42.93059" lon="0.15293">
        <ele>2072.74</ele>
        <time>2022-06-02T10:07:06Z</time>
      </trkpt>
      <trkpt lat="42.93061" lon="0.1529">
        <ele>2074.66</ele>
        <time>2022-06-02T10:07:19Z</time>
      </trkpt>
      <trkpt lat="42.93052" lon="0.15287">
        <ele>2077.07</ele>
        <time>2022-06-02T10:07:35Z</time>
      </trkpt>
      <trkpt lat="42.93046" lon="0.15271">
        <ele>2078.99</ele>
        <time>2022-06-02T10:07:50Z</time>
      </trkpt>
      <trkpt lat="42.93052" lon="0.15259">
        <ele>2079.95</ele>
        <time>2022-06-02T10:08:07Z</time>
      </trkpt>
      <trkpt lat="42.93058" lon="0.1525">
        <ele>2082.35</ele>
        <time>2022-06-02T10:08:27Z</time>
      </trkpt>
      <trkpt lat="42.93055" lon="0.1525">
        <ele>2083.79</ele>
        <time>2022-06-02T10:08:44Z</time>
      </trkpt>
      <trkpt lat="42.93061" lon="0.15248">
        <ele>2084.28</ele>
        <time>2022-06-02T10:09:06Z</time>
      </trkpt>
      <trkpt lat="42.93051" lon="0.15241">
        <ele>2085.24</ele>
        <time>2022-06-02T10:09:22Z</time>
      </trkpt>
      <trkpt lat="42.9304" lon="0.15235">
        <ele>2087.64</ele>
        <time>2022-06-02T10:09:40Z</time>
      </trkpt>
      <trkpt lat="42.93041" lon="0.15227">
        <ele>2087.64</ele>
        <time>2022-06-02T10:09:59Z</time>
      </trkpt>
      <trkpt lat="42.93039" lon="0.15223">
        <ele>2089.08</ele>
        <time>2022-06-02T10:10:16Z</time>
      </trkpt>
      <trkpt lat="42.93036" lon="0.15217">
        <ele>2091.97</ele>
        <time>2022-06-02T10:10:31Z</time>
      </trkpt>
      <trkpt lat="42.93035" lon="0.15217">
        <ele>2092.45</ele>
        <time>2022-06-02T10:10:35Z</time>
      </trkpt>
      <trkpt lat="42.93034" lon="0.15218">
        <ele>2092.93</ele>
        <time>2022-06-02T10:10:37Z</time>
      </trkpt>
      <trkpt lat="42.93028" lon="0.15219">
        <ele>2094.37</ele>
        <time>2022-06-02T10:10:52Z</time>
      </trkpt>
      <trkpt lat="42.93032" lon="0.15212">
        <ele>2095.33</ele>
        <time>2022-06-02T10:11:08Z</time>
      </trkpt>
      <trkpt lat="42.93038" lon="0.15203">
        <ele>2097.25</ele>
        <time>2022-06-02T10:11:24Z</time>
      </trkpt>
      <trkpt lat="42.93042" lon="0.15208">
        <ele>2098.21</ele>
        <time>2022-06-02T10:11:40Z</time>
      </trkpt>
      <trkpt lat="42.93035" lon="0.1521">
        <ele>2100.62</ele>
        <time>2022-06-02T10:11:54Z</time>
      </trkpt>
      <trkpt lat="42.93029" lon="0.15211">
        <ele>2101.1</ele>
        <time>2022-06-02T10:12:08Z</time>
      </trkpt>
      <trkpt lat="42.93025" lon="0.15204">
        <ele>2101.1</ele>
        <time>2022-06-02T10:12:27Z</time>
      </trkpt>
      <trkpt lat="42.93027" lon="0.15197">
        <ele>2103.02</ele>
        <time>2022-06-02T10:12:43Z</time>
      </trkpt>
      <trkpt lat="42.93032" lon="0.15185">
        <ele>2104.94</ele>
        <time>2022-06-02T10:13:03Z</time>
      </trkpt>
      <trkpt lat="42.93036" lon="0.1518">
        <ele>2106.87</ele>
        <time>2022-06-02T10:13:15Z</time>
      </trkpt>
      <trkpt lat="42.93036" lon="0.15181">
        <ele>2106.39</ele>
        <time>2022-06-02T10:13:41Z</time>
      </trkpt>
      <trkpt lat="42.93041" lon="0.15189">
        <ele>2107.35</ele>
        <time>2022-06-02T10:14:02Z</time>
      </trkpt>
      <trkpt lat="42.93031" lon="0.15182">
        <ele>2108.31</ele>
        <time>2022-06-02T10:14:17Z</time>
      </trkpt>
      <trkpt lat="42.93026" lon="0.15173">
        <ele>2109.75</ele>
        <time>2022-06-02T10:14:33Z</time>
      </trkpt>
      <trkpt lat="42.93033" lon="0.15169">
        <ele>2111.19</ele>
        <time>2022-06-02T10:14:49Z</time>
      </trkpt>
      <trkpt lat="42.93027" lon="0.15162">
        <ele>2113.12</ele>
        <time>2022-06-02T10:15:05Z</time>
      </trkpt>
      <trkpt lat="42.93026" lon="0.1516">
        <ele>2115.04</ele>
        <time>2022-06-02T10:15:11Z</time>
      </trkpt>
      <trkpt lat="42.93024" lon="0.15148">
        <ele>2116.96</ele>
        <time>2022-06-02T10:15:27Z</time>
      </trkpt>
      <trkpt lat="42.93024" lon="0.1513">
        <ele>2119.36</ele>
        <time>2022-06-02T10:15:46Z</time>
      </trkpt>
      <trkpt lat="42.93021" lon="0.15127">
        <ele>2120.32</ele>
        <time>2022-06-02T10:16:07Z</time>
      </trkpt>
      <trkpt lat="42.93019" lon="0.15129">
        <ele>2120.81</ele>
        <time>2022-06-02T10:16:28Z</time>
      </trkpt>
      <trkpt lat="42.93013" lon="0.1512">
        <ele>2121.29</ele>
        <time>2022-06-02T10:16:42Z</time>
      </trkpt>
      <trkpt lat="42.93013" lon="0.15107">
        <ele>2122.25</ele>
        <time>2022-06-02T10:16:55Z</time>
      </trkpt>
      <trkpt lat="42.93013" lon="0.15097">
        <ele>2124.65</ele>
        <time>2022-06-02T10:17:10Z</time>
      </trkpt>
      <trkpt lat="42.93008" lon="0.15084">
        <ele>2127.53</ele>
        <time>2022-06-02T10:17:26Z</time>
      </trkpt>
      <trkpt lat="42.93002" lon="0.15071">
        <ele>2129.94</ele>
        <time>2022-06-02T10:17:45Z</time>
      </trkpt>
      <trkpt lat="42.93" lon="0.15058">
        <ele>2131.86</ele>
        <time>2022-06-02T10:18:01Z</time>
      </trkpt>
      <trkpt lat="42.92996" lon="0.15049">
        <ele>2133.3</ele>
        <time>2022-06-02T10:18:14Z</time>
      </trkpt>
      <trkpt lat="42.92993" lon="0.15039">
        <ele>2135.23</ele>
        <time>2022-06-02T10:18:27Z</time>
      </trkpt>
      <trkpt lat="42.92989" lon="0.15029">
        <ele>2136.67</ele>
        <time>2022-06-02T10:18:43Z</time>
      </trkpt>
      <trkpt lat="42.92987" lon="0.15017">
        <ele>2138.11</ele>
        <time>2022-06-02T10:18:56Z</time>
      </trkpt>
      <trkpt lat="42.92991" lon="0.15004">
        <ele>2139.07</ele>
        <time>2022-06-02T10:19:10Z</time>
      </trkpt>
      <trkpt lat="42.92994" lon="0.1499">
        <ele>2141.95</ele>
        <time>2022-06-02T10:19:27Z</time>
      </trkpt>
      <trkpt lat="42.92995" lon="0.14986">
        <ele>2142.92</ele>
        <time>2022-06-02T10:19:32Z</time>
      </trkpt>
      <trkpt lat="42.92995" lon="0.14973">
        <ele>2144.36</ele>
        <time>2022-06-02T10:19:48Z</time>
      </trkpt>
      <trkpt lat="42.92998" lon="0.14962">
        <ele>2145.8</ele>
        <time>2022-06-02T10:20:02Z</time>
      </trkpt>
      <trkpt lat="42.92992" lon="0.14956">
        <ele>2147.72</ele>
        <time>2022-06-02T10:20:21Z</time>
      </trkpt>
      <trkpt lat="42.92985" lon="0.14957">
        <ele>2150.61</ele>
        <time>2022-06-02T10:20:40Z</time>
      </trkpt>
      <trkpt lat="42.92975" lon="0.14961">
        <ele>2152.53</ele>
        <time>2022-06-02T10:20:56Z</time>
      </trkpt>
      <trkpt lat="42.92965" lon="0.14963">
        <ele>2152.53</ele>
        <time>2022-06-02T10:21:09Z</time>
      </trkpt>
      <trkpt lat="42.92954" lon="0.14956">
        <ele>2155.41</ele>
        <time>2022-06-02T10:21:29Z</time>
      </trkpt>
      <trkpt lat="42.92946" lon="0.1495">
        <ele>2157.34</ele>
        <time>2022-06-02T10:21:44Z</time>
      </trkpt>
      <trkpt lat="42.92942" lon="0.14939">
        <ele>2158.78</ele>
        <time>2022-06-02T10:22:00Z</time>
      </trkpt>
      <trkpt lat="42.92938" lon="0.1493">
        <ele>2161.66</ele>
        <time>2022-06-02T10:22:15Z</time>
      </trkpt>
      <trkpt lat="42.92935" lon="0.14919">
        <ele>2163.58</ele>
        <time>2022-06-02T10:22:32Z</time>
      </trkpt>
      <trkpt lat="42.92933" lon="0.14904">
        <ele>2165.03</ele>
        <time>2022-06-02T10:22:47Z</time>
      </trkpt>
      <trkpt lat="42.92933" lon="0.14894">
        <ele>2166.95</ele>
        <time>2022-06-02T10:22:59Z</time>
      </trkpt>
      <trkpt lat="42.92931" lon="0.14885">
        <ele>2168.87</ele>
        <time>2022-06-02T10:23:16Z</time>
      </trkpt>
      <trkpt lat="42.92929" lon="0.14882">
        <ele>2168.87</ele>
        <time>2022-06-02T10:23:33Z</time>
      </trkpt>
      <trkpt lat="42.92925" lon="0.14883">
        <ele>2170.31</ele>
        <time>2022-06-02T10:23:59Z</time>
      </trkpt>
      <trkpt lat="42.92916" lon="0.14881">
        <ele>2172.72</ele>
        <time>2022-06-02T10:24:16Z</time>
      </trkpt>
      <trkpt lat="42.92914" lon="0.14865">
        <ele>2174.64</ele>
        <time>2022-06-02T10:24:34Z</time>
      </trkpt>
      <trkpt lat="42.9291" lon="0.14857">
        <ele>2176.08</ele>
        <time>2022-06-02T10:24:49Z</time>
      </trkpt>
      <trkpt lat="42.92905" lon="0.1486">
        <ele>2178.48</ele>
        <time>2022-06-02T10:25:04Z</time>
      </trkpt>
      <trkpt lat="42.92898" lon="0.14864">
        <ele>2180.89</ele>
        <time>2022-06-02T10:25:20Z</time>
      </trkpt>
      <trkpt lat="42.92893" lon="0.14847">
        <ele>2182.81</ele>
        <time>2022-06-02T10:25:38Z</time>
      </trkpt>
      <trkpt lat="42.92888" lon="0.1484">
        <ele>2185.21</ele>
        <time>2022-06-02T10:25:57Z</time>
      </trkpt>
      <trkpt lat="42.92884" lon="0.14828">
        <ele>2187.14</ele>
        <time>2022-06-02T10:26:15Z</time>
      </trkpt>
      <trkpt lat="42.92878" lon="0.14811">
        <ele>2189.06</ele>
        <time>2022-06-02T10:26:36Z</time>
      </trkpt>
      <trkpt lat="42.92879" lon="0.14803">
        <ele>2190.5</ele>
        <time>2022-06-02T10:26:56Z</time>
      </trkpt>
      <trkpt lat="42.92878" lon="0.14797">
        <ele>2191.94</ele>
        <time>2022-06-02T10:27:18Z</time>
      </trkpt>
      <trkpt lat="42.9287" lon="0.14786">
        <ele>2193.39</ele>
        <time>2022-06-02T10:27:33Z</time>
      </trkpt>
      <trkpt lat="42.92865" lon="0.14776">
        <ele>2194.83</ele>
        <time>2022-06-02T10:27:50Z</time>
      </trkpt>
      <trkpt lat="42.9286" lon="0.14763">
        <ele>2196.75</ele>
        <time>2022-06-02T10:28:07Z</time>
      </trkpt>
      <trkpt lat="42.92858" lon="0.14753">
        <ele>2196.27</ele>
        <time>2022-06-02T10:28:16Z</time>
      </trkpt>
      <trkpt lat="42.92859" lon="0.14747">
        <ele>2195.31</ele>
        <time>2022-06-02T10:28:21Z</time>
      </trkpt>
      <trkpt lat="42.92856" lon="0.1474">
        <ele>2195.79</ele>
        <time>2022-06-02T10:28:34Z</time>
      </trkpt>
      <trkpt lat="42.92851" lon="0.14731">
        <ele>2197.23</ele>
        <time>2022-06-02T10:28:48Z</time>
      </trkpt>
      <trkpt lat="42.92847" lon="0.1472">
        <ele>2198.67</ele>
        <time>2022-06-02T10:29:04Z</time>
      </trkpt>
      <trkpt lat="42.92839" lon="0.14707">
        <ele>2200.59</ele>
        <time>2022-06-02T10:29:22Z</time>
      </trkpt>
      <trkpt lat="42.92833" lon="0.14696">
        <ele>2201.56</ele>
        <time>2022-06-02T10:29:37Z</time>
      </trkpt>
      <trkpt lat="42.92826" lon="0.14682">
        <ele>2204.92</ele>
        <time>2022-06-02T10:29:56Z</time>
      </trkpt>
      <trkpt lat="42.92825" lon="0.14679">
        <ele>2206.84</ele>
        <time>2022-06-02T10:30:15Z</time>
      </trkpt>
      <trkpt lat="42.9282" lon="0.14678">
        <ele>2207.81</ele>
        <time>2022-06-02T10:30:37Z</time>
      </trkpt>
      <trkpt lat="42.92815" lon="0.14671">
        <ele>2209.25</ele>
        <time>2022-06-02T10:30:51Z</time>
      </trkpt>
      <trkpt lat="42.92811" lon="0.14667">
        <ele>2211.17</ele>
        <time>2022-06-02T10:31:07Z</time>
      </trkpt>
      <trkpt lat="42.92818" lon="0.14671">
        <ele>2211.65</ele>
        <time>2022-06-02T10:31:21Z</time>
      </trkpt>
      <trkpt lat="42.92817" lon="0.14676">
        <ele>2213.57</ele>
        <time>2022-06-02T10:31:38Z</time>
      </trkpt>
      <trkpt lat="42.92813" lon="0.14683">
        <ele>2214.53</ele>
        <time>2022-06-02T10:31:50Z</time>
      </trkpt>
      <trkpt lat="42.9281" lon="0.14692">
        <ele>2216.46</ele>
        <time>2022-06-02T10:32:05Z</time>
      </trkpt>
      <trkpt lat="42.92807" lon="0.14689">
        <ele>2216.94</ele>
        <time>2022-06-02T10:32:19Z</time>
      </trkpt>
      <trkpt lat="42.92807" lon="0.14688">
        <ele>2216.94</ele>
        <time>2022-06-02T10:32:39Z</time>
      </trkpt>
      <trkpt lat="42.92798" lon="0.14683">
        <ele>2218.86</ele>
        <time>2022-06-02T10:32:54Z</time>
      </trkpt>
      <trkpt lat="42.92793" lon="0.14671">
        <ele>2221.74</ele>
        <time>2022-06-02T10:33:12Z</time>
      </trkpt>
      <trkpt lat="42.92791" lon="0.14657">
        <ele>2223.67</ele>
        <time>2022-06-02T10:33:27Z</time>
      </trkpt>
      <trkpt lat="42.92788" lon="0.14648">
        <ele>2225.11</ele>
        <time>2022-06-02T10:33:40Z</time>
      </trkpt>
      <trkpt lat="42.92783" lon="0.14634">
        <ele>2226.55</ele>
        <time>2022-06-02T10:33:56Z</time>
      </trkpt>
      <trkpt lat="42.92778" lon="0.14623">
        <ele>2228.47</ele>
        <time>2022-06-02T10:34:14Z</time>
      </trkpt>
      <trkpt lat="42.92776" lon="0.14618">
        <ele>2227.99</ele>
        <time>2022-06-02T10:34:36Z</time>
      </trkpt>
      <trkpt lat="42.92786" lon="0.14614">
        <ele>2228.95</ele>
        <time>2022-06-02T10:35:03Z</time>
      </trkpt>
      <trkpt lat="42.92779" lon="0.14617">
        <ele>2228.95</ele>
        <time>2022-06-02T10:35:36Z</time>
      </trkpt>
      <trkpt lat="42.92765" lon="0.14615">
        <ele>2230.88</ele>
        <time>2022-06-02T10:35:56Z</time>
      </trkpt>
      <trkpt lat="42.92753" lon="0.14604">
        <ele>2232.8</ele>
        <time>2022-06-02T10:36:13Z</time>
      </trkpt>
      <trkpt lat="42.92741" lon="0.14599">
        <ele>2233.28</ele>
        <time>2022-06-02T10:36:23Z</time>
      </trkpt>
      <trkpt lat="42.92745" lon="0.14588">
        <ele>2234.72</ele>
        <time>2022-06-02T10:36:36Z</time>
      </trkpt>
      <trkpt lat="42.92738" lon="0.14579">
        <ele>2236.64</ele>
        <time>2022-06-02T10:36:49Z</time>
      </trkpt>
      <trkpt lat="42.92738" lon="0.14564">
        <ele>2237.61</ele>
        <time>2022-06-02T10:37:04Z</time>
      </trkpt>
      <trkpt lat="42.92733" lon="0.14551">
        <ele>2240.01</ele>
        <time>2022-06-02T10:37:22Z</time>
      </trkpt>
      <trkpt lat="42.9273" lon="0.14539">
        <ele>2241.93</ele>
        <time>2022-06-02T10:37:40Z</time>
      </trkpt>
      <trkpt lat="42.9273" lon="0.14526">
        <ele>2244.82</ele>
        <time>2022-06-02T10:37:57Z</time>
      </trkpt>
      <trkpt lat="42.92731" lon="0.14522">
        <ele>2245.3</ele>
        <time>2022-06-02T10:38:01Z</time>
      </trkpt>
      <trkpt lat="42.92734" lon="0.14515">
        <ele>2246.26</ele>
        <time>2022-06-02T10:38:07Z</time>
      </trkpt>
      <trkpt lat="42.92731" lon="0.14503">
        <ele>2247.22</ele>
        <time>2022-06-02T10:38:20Z</time>
      </trkpt>
      <trkpt lat="42.92728" lon="0.14491">
        <ele>2249.62</ele>
        <time>2022-06-02T10:38:34Z</time>
      </trkpt>
      <trkpt lat="42.92728" lon="0.14482">
        <ele>2250.1</ele>
        <time>2022-06-02T10:38:49Z</time>
      </trkpt>
      <trkpt lat="42.92728" lon="0.14481">
        <ele>2250.58</ele>
        <time>2022-06-02T10:39:09Z</time>
      </trkpt>
      <trkpt lat="42.9273" lon="0.14471">
        <ele>2252.03</ele>
        <time>2022-06-02T10:39:24Z</time>
      </trkpt>
      <trkpt lat="42.92724" lon="0.1448">
        <ele>2254.43</ele>
        <time>2022-06-02T10:39:38Z</time>
      </trkpt>
      <trkpt lat="42.92709" lon="0.14481">
        <ele>2256.83</ele>
        <time>2022-06-02T10:39:54Z</time>
      </trkpt>
      <trkpt lat="42.92709" lon="0.14458">
        <ele>2258.27</ele>
        <time>2022-06-02T10:40:10Z</time>
      </trkpt>
      <trkpt lat="42.92708" lon="0.14448">
        <ele>2260.2</ele>
        <time>2022-06-02T10:40:25Z</time>
      </trkpt>
      <trkpt lat="42.92713" lon="0.14436">
        <ele>2261.64</ele>
        <time>2022-06-02T10:40:39Z</time>
      </trkpt>
      <trkpt lat="42.9271" lon="0.1443">
        <ele>2264.04</ele>
        <time>2022-06-02T10:40:50Z</time>
      </trkpt>
      <trkpt lat="42.9271" lon="0.14422">
        <ele>2265.96</ele>
        <time>2022-06-02T10:41:02Z</time>
      </trkpt>
      <trkpt lat="42.92711" lon="0.14417">
        <ele>2266.45</ele>
        <time>2022-06-02T10:41:20Z</time>
      </trkpt>
      <trkpt lat="42.9271" lon="0.14411">
        <ele>2267.41</ele>
        <time>2022-06-02T10:41:40Z</time>
      </trkpt>
      <trkpt lat="42.92706" lon="0.14408">
        <ele>2269.81</ele>
        <time>2022-06-02T10:41:55Z</time>
      </trkpt>
      <trkpt lat="42.927" lon="0.14404">
        <ele>2272.69</ele>
        <time>2022-06-02T10:42:14Z</time>
      </trkpt>
      <trkpt lat="42.92698" lon="0.14392">
        <ele>2274.62</ele>
        <time>2022-06-02T10:42:29Z</time>
      </trkpt>
      <trkpt lat="42.92691" lon="0.14386">
        <ele>2277.02</ele>
        <time>2022-06-02T10:42:46Z</time>
      </trkpt>
      <trkpt lat="42.92682" lon="0.14382">
        <ele>2278.94</ele>
        <time>2022-06-02T10:43:05Z</time>
      </trkpt>
      <trkpt lat="42.92679" lon="0.14385">
        <ele>2278.94</ele>
        <time>2022-06-02T10:43:25Z</time>
      </trkpt>
      <trkpt lat="42.92681" lon="0.14384">
        <ele>2278.94</ele>
        <time>2022-06-02T10:43:46Z</time>
      </trkpt>
      <trkpt lat="42.92681" lon="0.14378">
        <ele>2279.42</ele>
        <time>2022-06-02T10:44:11Z</time>
      </trkpt>
      <trkpt lat="42.92683" lon="0.14378">
        <ele>2280.38</ele>
        <time>2022-06-02T10:44:28Z</time>
      </trkpt>
      <trkpt lat="42.9268" lon="0.14375">
        <ele>2281.35</ele>
        <time>2022-06-02T10:44:43Z</time>
      </trkpt>
      <trkpt lat="42.92675" lon="0.14376">
        <ele>2283.75</ele>
        <time>2022-06-02T10:45:02Z</time>
      </trkpt>
      <trkpt lat="42.92668" lon="0.14385">
        <ele>2286.15</ele>
        <time>2022-06-02T10:45:18Z</time>
      </trkpt>
      <trkpt lat="42.92659" lon="0.14393">
        <ele>2287.59</ele>
        <time>2022-06-02T10:45:36Z</time>
      </trkpt>
      <trkpt lat="42.92654" lon="0.14399">
        <ele>2289.52</ele>
        <time>2022-06-02T10:45:50Z</time>
      </trkpt>
      <trkpt lat="42.92648" lon="0.14405">
        <ele>2290.96</ele>
        <time>2022-06-02T10:46:06Z</time>
      </trkpt>
      <trkpt lat="42.92639" lon="0.1441">
        <ele>2292.88</ele>
        <time>2022-06-02T10:46:23Z</time>
      </trkpt>
      <trkpt lat="42.9264" lon="0.1441">
        <ele>2294.32</ele>
        <time>2022-06-02T10:46:26Z</time>
      </trkpt>
      <trkpt lat="42.92641" lon="0.14409">
        <ele>2291.92</ele>
        <time>2022-06-02T10:46:27Z</time>
      </trkpt>
      <trkpt lat="42.92644" lon="0.14406">
        <ele>2292.4</ele>
        <time>2022-06-02T10:46:43Z</time>
      </trkpt>
      <trkpt lat="42.92644" lon="0.14396">
        <ele>2292.88</ele>
        <time>2022-06-02T10:47:04Z</time>
      </trkpt>
      <trkpt lat="42.92641" lon="0.14386">
        <ele>2294.8</ele>
        <time>2022-06-02T10:47:17Z</time>
      </trkpt>
      <trkpt lat="42.92635" lon="0.14379">
        <ele>2296.73</ele>
        <time>2022-06-02T10:47:31Z</time>
      </trkpt>
      <trkpt lat="42.92636" lon="0.14371">
        <ele>2299.13</ele>
        <time>2022-06-02T10:47:43Z</time>
      </trkpt>
      <trkpt lat="42.92637" lon="0.14362">
        <ele>2301.05</ele>
        <time>2022-06-02T10:47:56Z</time>
      </trkpt>
      <trkpt lat="42.92641" lon="0.14367">
        <ele>2301.05</ele>
        <time>2022-06-02T10:48:12Z</time>
      </trkpt>
      <trkpt lat="42.92636" lon="0.14378">
        <ele>2302.01</ele>
        <time>2022-06-02T10:48:32Z</time>
      </trkpt>
      <trkpt lat="42.92628" lon="0.14388">
        <ele>2304.42</ele>
        <time>2022-06-02T10:48:46Z</time>
      </trkpt>
      <trkpt lat="42.9262" lon="0.14396">
        <ele>2305.86</ele>
        <time>2022-06-02T10:49:00Z</time>
      </trkpt>
      <trkpt lat="42.92612" lon="0.144">
        <ele>2307.3</ele>
        <time>2022-06-02T10:49:15Z</time>
      </trkpt>
      <trkpt lat="42.92619" lon="0.14388">
        <ele>2307.78</ele>
        <time>2022-06-02T10:49:29Z</time>
      </trkpt>
      <trkpt lat="42.92618" lon="0.14378">
        <ele>2308.26</ele>
        <time>2022-06-02T10:49:49Z</time>
      </trkpt>
      <trkpt lat="42.92617" lon="0.1437">
        <ele>2310.67</ele>
        <time>2022-06-02T10:50:03Z</time>
      </trkpt>
      <trkpt lat="42.92616" lon="0.14364">
        <ele>2313.07</ele>
        <time>2022-06-02T10:50:19Z</time>
      </trkpt>
      <trkpt lat="42.92618" lon="0.14372">
        <ele>2314.51</ele>
        <time>2022-06-02T10:50:38Z</time>
      </trkpt>
      <trkpt lat="42.92609" lon="0.14378">
        <ele>2316.43</ele>
        <time>2022-06-02T10:50:51Z</time>
      </trkpt>
      <trkpt lat="42.92602" lon="0.14387">
        <ele>2318.36</ele>
        <time>2022-06-02T10:51:07Z</time>
      </trkpt>
      <trkpt lat="42.926" lon="0.14374">
        <ele>2319.32</ele>
        <time>2022-06-02T10:51:21Z</time>
      </trkpt>
      <trkpt lat="42.92597" lon="0.14359">
        <ele>2321.24</ele>
        <time>2022-06-02T10:51:36Z</time>
      </trkpt>
      <trkpt lat="42.92593" lon="0.14357">
        <ele>2323.16</ele>
        <time>2022-06-02T10:51:50Z</time>
      </trkpt>
      <trkpt lat="42.92588" lon="0.1437">
        <ele>2325.09</ele>
        <time>2022-06-02T10:52:05Z</time>
      </trkpt>
      <trkpt lat="42.92583" lon="0.14368">
        <ele>2326.53</ele>
        <time>2022-06-02T10:52:18Z</time>
      </trkpt>
      <trkpt lat="42.92578" lon="0.14355">
        <ele>2327.49</ele>
        <time>2022-06-02T10:52:42Z</time>
      </trkpt>
      <trkpt lat="42.92578" lon="0.14342">
        <ele>2328.93</ele>
        <time>2022-06-02T10:52:58Z</time>
      </trkpt>
      <trkpt lat="42.92573" lon="0.14336">
        <ele>2331.33</ele>
        <time>2022-06-02T10:53:14Z</time>
      </trkpt>
      <trkpt lat="42.92569" lon="0.14345">
        <ele>2333.26</ele>
        <time>2022-06-02T10:53:27Z</time>
      </trkpt>
      <trkpt lat="42.9256" lon="0.14352">
        <ele>2335.66</ele>
        <time>2022-06-02T10:53:42Z</time>
      </trkpt>
      <trkpt lat="42.92558" lon="0.14345">
        <ele>2335.66</ele>
        <time>2022-06-02T10:53:58Z</time>
      </trkpt>
      <trkpt lat="42.92554" lon="0.14335">
        <ele>2336.14</ele>
        <time>2022-06-02T10:54:24Z</time>
      </trkpt>
      <trkpt lat="42.9255" lon="0.1433">
        <ele>2338.06</ele>
        <time>2022-06-02T10:54:38Z</time>
      </trkpt>
      <trkpt lat="42.9255" lon="0.14321">
        <ele>2339.51</ele>
        <time>2022-06-02T10:54:52Z</time>
      </trkpt>
      <trkpt lat="42.92551" lon="0.14313">
        <ele>2340.47</ele>
        <time>2022-06-02T10:55:04Z</time>
      </trkpt>
      <trkpt lat="42.92546" lon="0.14319">
        <ele>2341.91</ele>
        <time>2022-06-02T10:55:17Z</time>
      </trkpt>
      <trkpt lat="42.92536" lon="0.14329">
        <ele>2344.31</ele>
        <time>2022-06-02T10:55:34Z</time>
      </trkpt>
      <trkpt lat="42.92532" lon="0.14323">
        <ele>2345.75</ele>
        <time>2022-06-02T10:55:49Z</time>
      </trkpt>
      <trkpt lat="42.92532" lon="0.14324">
        <ele>2346.23</ele>
        <time>2022-06-02T10:56:05Z</time>
      </trkpt>
      <trkpt lat="42.92525" lon="0.14315">
        <ele>2345.75</ele>
        <time>2022-06-02T10:56:30Z</time>
      </trkpt>
      <trkpt lat="42.92527" lon="0.14312">
        <ele>2347.2</ele>
        <time>2022-06-02T10:56:53Z</time>
      </trkpt>
      <trkpt lat="42.92524" lon="0.14304">
        <ele>2349.12</ele>
        <time>2022-06-02T10:57:07Z</time>
      </trkpt>
      <trkpt lat="42.92526" lon="0.14297">
        <ele>2351.52</ele>
        <time>2022-06-02T10:57:26Z</time>
      </trkpt>
      <trkpt lat="42.9252" lon="0.14303">
        <ele>2353.93</ele>
        <time>2022-06-02T10:57:44Z</time>
      </trkpt>
      <trkpt lat="42.92512" lon="0.14306">
        <ele>2356.33</ele>
        <time>2022-06-02T10:58:01Z</time>
      </trkpt>
      <trkpt lat="42.92513" lon="0.14294">
        <ele>2357.77</ele>
        <time>2022-06-02T10:58:19Z</time>
      </trkpt>
      <trkpt lat="42.92503" lon="0.14286">
        <ele>2358.73</ele>
        <time>2022-06-02T10:58:40Z</time>
      </trkpt>
      <trkpt lat="42.92501" lon="0.14279">
        <ele>2360.65</ele>
        <time>2022-06-02T10:58:55Z</time>
      </trkpt>
      <trkpt lat="42.92506" lon="0.14275">
        <ele>2362.58</ele>
        <time>2022-06-02T10:59:11Z</time>
      </trkpt>
      <trkpt lat="42.92501" lon="0.14278">
        <ele>2364.02</ele>
        <time>2022-06-02T10:59:24Z</time>
      </trkpt>
      <trkpt lat="42.92493" lon="0.14279">
        <ele>2365.94</ele>
        <time>2022-06-02T10:59:38Z</time>
      </trkpt>
      <trkpt lat="42.92489" lon="0.14267">
        <ele>2367.38</ele>
        <time>2022-06-02T10:59:53Z</time>
      </trkpt>
      <trkpt lat="42.92481" lon="0.14257">
        <ele>2367.86</ele>
        <time>2022-06-02T11:00:15Z</time>
      </trkpt>
      <trkpt lat="42.92486" lon="0.14255">
        <ele>2369.31</ele>
        <time>2022-06-02T11:00:32Z</time>
      </trkpt>
      <trkpt lat="42.92487" lon="0.14254">
        <ele>2370.27</ele>
        <time>2022-06-02T11:00:48Z</time>
      </trkpt>
      <trkpt lat="42.92486" lon="0.14258">
        <ele>2370.75</ele>
        <time>2022-06-02T11:01:07Z</time>
      </trkpt>
      <trkpt lat="42.92479" lon="0.1426">
        <ele>2372.67</ele>
        <time>2022-06-02T11:01:20Z</time>
      </trkpt>
      <trkpt lat="42.92472" lon="0.14266">
        <ele>2375.55</ele>
        <time>2022-06-02T11:01:37Z</time>
      </trkpt>
      <trkpt lat="42.92466" lon="0.14269">
        <ele>2377</ele>
        <time>2022-06-02T11:01:50Z</time>
      </trkpt>
      <trkpt lat="42.92464" lon="0.14261">
        <ele>2378.44</ele>
        <time>2022-06-02T11:02:06Z</time>
      </trkpt>
      <trkpt lat="42.92463" lon="0.14253">
        <ele>2378.44</ele>
        <time>2022-06-02T11:02:31Z</time>
      </trkpt>
      <trkpt lat="42.9245" lon="0.14237">
        <ele>2380.36</ele>
        <time>2022-06-02T11:02:46Z</time>
      </trkpt>
      <trkpt lat="42.92442" lon="0.14223">
        <ele>2382.76</ele>
        <time>2022-06-02T11:03:01Z</time>
      </trkpt>
      <trkpt lat="42.92444" lon="0.14213">
        <ele>2384.69</ele>
        <time>2022-06-02T11:03:17Z</time>
      </trkpt>
      <trkpt lat="42.92444" lon="0.1421">
        <ele>2385.17</ele>
        <time>2022-06-02T11:03:27Z</time>
      </trkpt>
      <trkpt lat="42.92444" lon="0.1421">
        <ele>2382.28</ele>
        <time>2022-06-02T11:03:29Z</time>
      </trkpt>
      <trkpt lat="42.92445" lon="0.1421">
        <ele>2388.53</ele>
        <time>2022-06-02T11:03:30Z</time>
      </trkpt>
      <trkpt lat="42.92445" lon="0.1421">
        <ele>2386.13</ele>
        <time>2022-06-02T11:03:31Z</time>
      </trkpt>
      <trkpt lat="42.92451" lon="0.14214">
        <ele>2387.57</ele>
        <time>2022-06-02T11:03:51Z</time>
      </trkpt>
      <trkpt lat="42.9245" lon="0.14215">
        <ele>2387.09</ele>
        <time>2022-06-02T11:03:52Z</time>
      </trkpt>
      <trkpt lat="42.9245" lon="0.14215">
        <ele>2385.65</ele>
        <time>2022-06-02T11:03:54Z</time>
      </trkpt>
      <trkpt lat="42.92447" lon="0.14206">
        <ele>2388.05</ele>
        <time>2022-06-02T11:04:09Z</time>
      </trkpt>
      <trkpt lat="42.92442" lon="0.14197">
        <ele>2390.46</ele>
        <time>2022-06-02T11:04:23Z</time>
      </trkpt>
      <trkpt lat="42.92465" lon="0.14219">
        <ele>2390.94</ele>
        <time>2022-06-02T11:04:41Z</time>
      </trkpt>
      <trkpt lat="42.92461" lon="0.14223">
        <ele>2392.38</ele>
        <time>2022-06-02T11:04:57Z</time>
      </trkpt>
      <trkpt lat="42.92456" lon="0.14229">
        <ele>2394.3</ele>
        <time>2022-06-02T11:05:12Z</time>
      </trkpt>
      <trkpt lat="42.92449" lon="0.14231">
        <ele>2395.74</ele>
        <time>2022-06-02T11:05:27Z</time>
      </trkpt>
      <trkpt lat="42.92447" lon="0.14231">
        <ele>2397.18</ele>
        <time>2022-06-02T11:05:41Z</time>
      </trkpt>
      <trkpt lat="42.92447" lon="0.14225">
        <ele>2397.18</ele>
        <time>2022-06-02T11:05:59Z</time>
      </trkpt>
      <trkpt lat="42.92447" lon="0.14218">
        <ele>2398.15</ele>
        <time>2022-06-02T11:06:21Z</time>
      </trkpt>
      <trkpt lat="42.92443" lon="0.14208">
        <ele>2400.55</ele>
        <time>2022-06-02T11:06:34Z</time>
      </trkpt>
      <trkpt lat="42.92443" lon="0.14201">
        <ele>2402.47</ele>
        <time>2022-06-02T11:06:48Z</time>
      </trkpt>
      <trkpt lat="42.92442" lon="0.14194">
        <ele>2405.36</ele>
        <time>2022-06-02T11:07:05Z</time>
      </trkpt>
      <trkpt lat="42.92445" lon="0.14201">
        <ele>2405.36</ele>
        <time>2022-06-02T11:07:23Z</time>
      </trkpt>
      <trkpt lat="42.92444" lon="0.14207">
        <ele>2404.88</ele>
        <time>2022-06-02T11:07:41Z</time>
      </trkpt>
      <trkpt lat="42.9244" lon="0.1421">
        <ele>2406.8</ele>
        <time>2022-06-02T11:07:54Z</time>
      </trkpt>
      <trkpt lat="42.92436" lon="0.14215">
        <ele>2408.72</ele>
        <time>2022-06-02T11:08:07Z</time>
      </trkpt>
      <trkpt lat="42.92431" lon="0.14218">
        <ele>2410.16</ele>
        <time>2022-06-02T11:08:19Z</time>
      </trkpt>
      <trkpt lat="42.9243" lon="0.14216">
        <ele>2411.12</ele>
        <time>2022-06-02T11:08:38Z</time>
      </trkpt>
      <trkpt lat="42.92429" lon="0.14214">
        <ele>2411.12</ele>
        <time>2022-06-02T11:08:54Z</time>
      </trkpt>
      <trkpt lat="42.92427" lon="0.14209">
        <ele>2412.09</ele>
        <time>2022-06-02T11:09:13Z</time>
      </trkpt>
      <trkpt lat="42.92428" lon="0.14205">
        <ele>2413.53</ele>
        <time>2022-06-02T11:09:26Z</time>
      </trkpt>
      <trkpt lat="42.92429" lon="0.14202">
        <ele>2414.97</ele>
        <time>2022-06-02T11:09:38Z</time>
      </trkpt>
      <trkpt lat="42.92431" lon="0.1421">
        <ele>2414.97</ele>
        <time>2022-06-02T11:09:57Z</time>
      </trkpt>
      <trkpt lat="42.92429" lon="0.14215">
        <ele>2415.93</ele>
        <time>2022-06-02T11:10:19Z</time>
      </trkpt>
      <trkpt lat="42.92426" lon="0.14218">
        <ele>2416.89</ele>
        <time>2022-06-02T11:10:32Z</time>
      </trkpt>
      <trkpt lat="42.92426" lon="0.14209">
        <ele>2417.85</ele>
        <time>2022-06-02T11:10:51Z</time>
      </trkpt>
      <trkpt lat="42.92423" lon="0.14202">
        <ele>2419.3</ele>
        <time>2022-06-02T11:11:08Z</time>
      </trkpt>
      <trkpt lat="42.92423" lon="0.14201">
        <ele>2420.74</ele>
        <time>2022-06-02T11:11:23Z</time>
      </trkpt>
      <trkpt lat="42.92424" lon="0.14207">
        <ele>2420.26</ele>
        <time>2022-06-02T11:11:45Z</time>
      </trkpt>
      <trkpt lat="42.92421" lon="0.1421">
        <ele>2420.74</ele>
        <time>2022-06-02T11:11:59Z</time>
      </trkpt>
      <trkpt lat="42.92422" lon="0.14214">
        <ele>2421.22</ele>
        <time>2022-06-02T11:12:22Z</time>
      </trkpt>
      <trkpt lat="42.9242" lon="0.1422">
        <ele>2422.18</ele>
        <time>2022-06-02T11:12:35Z</time>
      </trkpt>
      <trkpt lat="42.92419" lon="0.14225">
        <ele>2423.62</ele>
        <time>2022-06-02T11:12:49Z</time>
      </trkpt>
      <trkpt lat="42.92419" lon="0.14227">
        <ele>2424.1</ele>
        <time>2022-06-02T11:12:51Z</time>
      </trkpt>
      <trkpt lat="42.92416" lon="0.14237">
        <ele>2426.02</ele>
        <time>2022-06-02T11:13:06Z</time>
      </trkpt>
      <trkpt lat="42.92414" lon="0.14244">
        <ele>2426.5</ele>
        <time>2022-06-02T11:13:20Z</time>
      </trkpt>
      <trkpt lat="42.92414" lon="0.14243">
        <ele>2427.47</ele>
        <time>2022-06-02T11:13:42Z</time>
      </trkpt>
      <trkpt lat="42.92413" lon="0.14245">
        <ele>2427.47</ele>
        <time>2022-06-02T11:14:03Z</time>
      </trkpt>
      <trkpt lat="42.92414" lon="0.14241">
        <ele>2427.95</ele>
        <time>2022-06-02T11:14:23Z</time>
      </trkpt>
      <trkpt lat="42.92414" lon="0.14242">
        <ele>2427.95</ele>
        <time>2022-06-02T11:14:40Z</time>
      </trkpt>
      <trkpt lat="42.92411" lon="0.14241">
        <ele>2428.43</ele>
        <time>2022-06-02T11:14:58Z</time>
      </trkpt>
      <trkpt lat="42.92412" lon="0.14239">
        <ele>2427.47</ele>
        <time>2022-06-02T11:15:20Z</time>
      </trkpt>
      <trkpt lat="42.92408" lon="0.14234">
        <ele>2428.43</ele>
        <time>2022-06-02T11:15:54Z</time>
      </trkpt>
      <trkpt lat="42.92408" lon="0.14238">
        <ele>2428.43</ele>
        <time>2022-06-02T11:15:59Z</time>
      </trkpt>
      <trkpt lat="42.9241" lon="0.14237">
        <ele>2428.91</ele>
        <time>2022-06-02T11:16:16Z</time>
      </trkpt>
      <trkpt lat="42.9241" lon="0.14239">
        <ele>2428.91</ele>
        <time>2022-06-02T11:16:45Z</time>
      </trkpt>
      <trkpt lat="42.92411" lon="0.14238">
        <ele>2428.43</ele>
        <time>2022-06-02T11:17:03Z</time>
      </trkpt>
      <trkpt lat="42.9241" lon="0.1424">
        <ele>2429.87</ele>
        <time>2022-06-02T11:17:33Z</time>
      </trkpt>
      <trkpt lat="42.92412" lon="0.1424">
        <ele>2429.87</ele>
        <time>2022-06-02T11:17:56Z</time>
      </trkpt>
      <trkpt lat="42.92414" lon="0.14242">
        <ele>2429.87</ele>
        <time>2022-06-02T11:18:08Z</time>
      </trkpt>
      <trkpt lat="42.92412" lon="0.14242">
        <ele>2430.35</ele>
        <time>2022-06-02T11:18:20Z</time>
      </trkpt>
      <trkpt lat="42.92411" lon="0.14241">
        <ele>2429.87</ele>
        <time>2022-06-02T11:18:45Z</time>
      </trkpt>
      <trkpt lat="42.9241" lon="0.14243">
        <ele>2431.79</ele>
        <time>2022-06-02T11:19:02Z</time>
      </trkpt>
      <trkpt lat="42.92407" lon="0.14244">
        <ele>2433.23</ele>
        <time>2022-06-02T11:19:17Z</time>
      </trkpt>
      <trkpt lat="42.92406" lon="0.14247">
        <ele>2434.68</ele>
        <time>2022-06-02T11:19:35Z</time>
      </trkpt>
      <trkpt lat="42.92405" lon="0.14248">
        <ele>2435.64</ele>
        <time>2022-06-02T11:19:55Z</time>
      </trkpt>
      <trkpt lat="42.92403" lon="0.14249">
        <ele>2438.04</ele>
        <time>2022-06-02T11:20:12Z</time>
      </trkpt>
      <trkpt lat="42.92403" lon="0.14253">
        <ele>2437.56</ele>
        <time>2022-06-02T11:20:33Z</time>
      </trkpt>
      <trkpt lat="42.92402" lon="0.14256">
        <ele>2439.96</ele>
        <time>2022-06-02T11:20:50Z</time>
      </trkpt>
      <trkpt lat="42.92399" lon="0.14256">
        <ele>2441.89</ele>
        <time>2022-06-02T11:21:09Z</time>
      </trkpt>
      <trkpt lat="42.92398" lon="0.14258">
        <ele>2443.81</ele>
        <time>2022-06-02T11:21:28Z</time>
      </trkpt>
      <trkpt lat="42.92398" lon="0.1426">
        <ele>2445.25</ele>
        <time>2022-06-02T11:21:44Z</time>
      </trkpt>
      <trkpt lat="42.92397" lon="0.1426">
        <ele>2446.21</ele>
        <time>2022-06-02T11:21:58Z</time>
      </trkpt>
      <trkpt lat="42.92391" lon="0.14257">
        <ele>2447.17</ele>
        <time>2022-06-02T11:22:15Z</time>
      </trkpt>
      <trkpt lat="42.92391" lon="0.14256">
        <ele>2447.65</ele>
        <time>2022-06-02T11:22:34Z</time>
      </trkpt>
      <trkpt lat="42.92387" lon="0.14252">
        <ele>2448.62</ele>
        <time>2022-06-02T11:22:50Z</time>
      </trkpt>
      <trkpt lat="42.92387" lon="0.14251">
        <ele>2450.54</ele>
        <time>2022-06-02T11:23:01Z</time>
      </trkpt>
      <trkpt lat="42.92385" lon="0.14245">
        <ele>2452.94</ele>
        <time>2022-06-02T11:23:16Z</time>
      </trkpt>
      <trkpt lat="42.92384" lon="0.14243">
        <ele>2453.42</ele>
        <time>2022-06-02T11:23:39Z</time>
      </trkpt>
      <trkpt lat="42.92382" lon="0.14239">
        <ele>2455.82</ele>
        <time>2022-06-02T11:23:53Z</time>
      </trkpt>
      <trkpt lat="42.92382" lon="0.14241">
        <ele>2457.27</ele>
        <time>2022-06-02T11:24:15Z</time>
      </trkpt>
      <trkpt lat="42.92381" lon="0.14238">
        <ele>2457.75</ele>
        <time>2022-06-02T11:24:32Z</time>
      </trkpt>
      <trkpt lat="42.9238" lon="0.14232">
        <ele>2460.15</ele>
        <time>2022-06-02T11:24:48Z</time>
      </trkpt>
      <trkpt lat="42.92374" lon="0.14228">
        <ele>2461.11</ele>
        <time>2022-06-02T11:25:04Z</time>
      </trkpt>
      <trkpt lat="42.9238" lon="0.14221">
        <ele>2464</ele>
        <time>2022-06-02T11:25:18Z</time>
      </trkpt>
      <trkpt lat="42.92374" lon="0.1422">
        <ele>2466.4</ele>
        <time>2022-06-02T11:25:34Z</time>
      </trkpt>
      <trkpt lat="42.9237" lon="0.14219">
        <ele>2467.36</ele>
        <time>2022-06-02T11:25:48Z</time>
      </trkpt>
      <trkpt lat="42.9237" lon="0.14213">
        <ele>2468.8</ele>
        <time>2022-06-02T11:26:07Z</time>
      </trkpt>
      <trkpt lat="42.92367" lon="0.14209">
        <ele>2468.8</ele>
        <time>2022-06-02T11:26:39Z</time>
      </trkpt>
      <trkpt lat="42.92368" lon="0.14208">
        <ele>2472.17</ele>
        <time>2022-06-02T11:26:52Z</time>
      </trkpt>
      <trkpt lat="42.92367" lon="0.14211">
        <ele>2470.24</ele>
        <time>2022-06-02T11:26:56Z</time>
      </trkpt>
      <trkpt lat="42.92365" lon="0.14213">
        <ele>2471.69</ele>
        <time>2022-06-02T11:27:09Z</time>
      </trkpt>
      <trkpt lat="42.92364" lon="0.1421">
        <ele>2474.09</ele>
        <time>2022-06-02T11:27:25Z</time>
      </trkpt>
      <trkpt lat="42.92361" lon="0.14203">
        <ele>2475.05</ele>
        <time>2022-06-02T11:27:40Z</time>
      </trkpt>
      <trkpt lat="42.9236" lon="0.142">
        <ele>2476.97</ele>
        <time>2022-06-02T11:28:01Z</time>
      </trkpt>
      <trkpt lat="42.92361" lon="0.14202">
        <ele>2477.94</ele>
        <time>2022-06-02T11:28:19Z</time>
      </trkpt>
      <trkpt lat="42.9236" lon="0.14198">
        <ele>2479.86</ele>
        <time>2022-06-02T11:28:32Z</time>
      </trkpt>
      <trkpt lat="42.92358" lon="0.14199">
        <ele>2482.26</ele>
        <time>2022-06-02T11:28:47Z</time>
      </trkpt>
      <trkpt lat="42.92358" lon="0.14196">
        <ele>2482.74</ele>
        <time>2022-06-02T11:29:02Z</time>
      </trkpt>
      <trkpt lat="42.92356" lon="0.14199">
        <ele>2483.7</ele>
        <time>2022-06-02T11:29:25Z</time>
      </trkpt>
      <trkpt lat="42.92353" lon="0.14203">
        <ele>2485.63</ele>
        <time>2022-06-02T11:29:41Z</time>
      </trkpt>
      <trkpt lat="42.92351" lon="0.14204">
        <ele>2487.55</ele>
        <time>2022-06-02T11:30:02Z</time>
      </trkpt>
      <trkpt lat="42.92349" lon="0.14203">
        <ele>2488.99</ele>
        <time>2022-06-02T11:30:17Z</time>
      </trkpt>
      <trkpt lat="42.92349" lon="0.14196">
        <ele>2490.91</ele>
        <time>2022-06-02T11:30:35Z</time>
      </trkpt>
      <trkpt lat="42.9235" lon="0.14195">
        <ele>2491.87</ele>
        <time>2022-06-02T11:30:52Z</time>
      </trkpt>
      <trkpt lat="42.92349" lon="0.14193">
        <ele>2493.8</ele>
        <time>2022-06-02T11:31:17Z</time>
      </trkpt>
      <trkpt lat="42.92346" lon="0.14196">
        <ele>2493.32</ele>
        <time>2022-06-02T11:31:33Z</time>
      </trkpt>
      <trkpt lat="42.92348" lon="0.14194">
        <ele>2493.8</ele>
        <time>2022-06-02T11:31:54Z</time>
      </trkpt>
      <trkpt lat="42.92348" lon="0.14193">
        <ele>2492.36</ele>
        <time>2022-06-02T11:32:07Z</time>
      </trkpt>
      <trkpt lat="42.92347" lon="0.14191">
        <ele>2491.87</ele>
        <time>2022-06-02T11:32:39Z</time>
      </trkpt>
      <trkpt lat="42.92344" lon="0.14187">
        <ele>2492.36</ele>
        <time>2022-06-02T11:33:25Z</time>
      </trkpt>
      <trkpt lat="42.92344" lon="0.14186">
        <ele>2492.36</ele>
        <time>2022-06-02T11:33:58Z</time>
      </trkpt>
      <trkpt lat="42.92344" lon="0.14187">
        <ele>2492.84</ele>
        <time>2022-06-02T11:34:31Z</time>
      </trkpt>
      <trkpt lat="42.92345" lon="0.1419">
        <ele>2492.84</ele>
        <time>2022-06-02T11:35:04Z</time>
      </trkpt>
      <trkpt lat="42.92345" lon="0.14192">
        <ele>2493.8</ele>
        <time>2022-06-02T11:35:42Z</time>
      </trkpt>
      <trkpt lat="42.92345" lon="0.1419">
        <ele>2493.8</ele>
        <time>2022-06-02T11:36:14Z</time>
      </trkpt>
      <trkpt lat="42.92345" lon="0.14191">
        <ele>2493.32</ele>
        <time>2022-06-02T11:36:48Z</time>
      </trkpt>
      <trkpt lat="42.92346" lon="0.14192">
        <ele>2494.28</ele>
        <time>2022-06-02T11:37:24Z</time>
      </trkpt>
      <trkpt lat="42.92346" lon="0.14193">
        <ele>2495.24</ele>
        <time>2022-06-02T11:37:40Z</time>
      </trkpt>
      <trkpt lat="42.92346" lon="0.14193">
        <ele>2495.72</ele>
        <time>2022-06-02T11:37:42Z</time>
      </trkpt>
      <trkpt lat="42.92346" lon="0.1419">
        <ele>2496.2</ele>
        <time>2022-06-02T11:37:59Z</time>
      </trkpt>
      <trkpt lat="42.92346" lon="0.14187">
        <ele>2496.2</ele>
        <time>2022-06-02T11:38:23Z</time>
      </trkpt>
      <trkpt lat="42.92346" lon="0.14184">
        <ele>2495.24</ele>
        <time>2022-06-02T11:38:46Z</time>
      </trkpt>
      <trkpt lat="42.9235" lon="0.14179">
        <ele>2493.32</ele>
        <time>2022-06-02T11:38:59Z</time>
      </trkpt>
      <trkpt lat="42.9235" lon="0.14176">
        <ele>2492.36</ele>
        <time>2022-06-02T11:39:03Z</time>
      </trkpt>
      <trkpt lat="42.92351" lon="0.1417">
        <ele>2493.8</ele>
        <time>2022-06-02T11:39:16Z</time>
      </trkpt>
      <trkpt lat="42.92358" lon="0.14172">
        <ele>2489.95</ele>
        <time>2022-06-02T11:39:25Z</time>
      </trkpt>
      <trkpt lat="42.92359" lon="0.14172">
        <ele>2488.99</ele>
        <time>2022-06-02T11:39:27Z</time>
      </trkpt>
      <trkpt lat="42.92361" lon="0.14168">
        <ele>2486.59</ele>
        <time>2022-06-02T11:39:38Z</time>
      </trkpt>
      <trkpt lat="42.92366" lon="0.14166">
        <ele>2486.11</ele>
        <time>2022-06-02T11:39:52Z</time>
      </trkpt>
      <trkpt lat="42.92368" lon="0.14164">
        <ele>2483.22</ele>
        <time>2022-06-02T11:39:58Z</time>
      </trkpt>
      <trkpt lat="42.92369" lon="0.14164">
        <ele>2485.63</ele>
        <time>2022-06-02T11:40:04Z</time>
      </trkpt>
      <trkpt lat="42.92369" lon="0.14165">
        <ele>2484.18</ele>
        <time>2022-06-02T11:40:07Z</time>
      </trkpt>
      <trkpt lat="42.9237" lon="0.14166">
        <ele>2482.74</ele>
        <time>2022-06-02T11:40:10Z</time>
      </trkpt>
      <trkpt lat="42.92372" lon="0.14163">
        <ele>2479.86</ele>
        <time>2022-06-02T11:40:25Z</time>
      </trkpt>
      <trkpt lat="42.92373" lon="0.14156">
        <ele>2478.42</ele>
        <time>2022-06-02T11:40:39Z</time>
      </trkpt>
      <trkpt lat="42.92378" lon="0.14153">
        <ele>2477.94</ele>
        <time>2022-06-02T11:40:53Z</time>
      </trkpt>
      <trkpt lat="42.92378" lon="0.14156">
        <ele>2476.49</ele>
        <time>2022-06-02T11:41:07Z</time>
      </trkpt>
      <trkpt lat="42.9238" lon="0.14156">
        <ele>2478.42</ele>
        <time>2022-06-02T11:41:36Z</time>
      </trkpt>
      <trkpt lat="42.92377" lon="0.14154">
        <ele>2476.49</ele>
        <time>2022-06-02T11:42:04Z</time>
      </trkpt>
      <trkpt lat="42.92378" lon="0.14154">
        <ele>2476.49</ele>
        <time>2022-06-02T11:42:49Z</time>
      </trkpt>
      <trkpt lat="42.92379" lon="0.14155">
        <ele>2477.45</ele>
        <time>2022-06-02T11:43:31Z</time>
      </trkpt>
      <trkpt lat="42.92377" lon="0.14154">
        <ele>2476.49</ele>
        <time>2022-06-02T11:44:12Z</time>
      </trkpt>
      <trkpt lat="42.92379" lon="0.14155">
        <ele>2476.01</ele>
        <time>2022-06-02T11:44:55Z</time>
      </trkpt>
      <trkpt lat="42.92378" lon="0.14154">
        <ele>2476.97</ele>
        <time>2022-06-02T11:45:38Z</time>
      </trkpt>
      <trkpt lat="42.92376" lon="0.14155">
        <ele>2477.45</ele>
        <time>2022-06-02T11:46:19Z</time>
      </trkpt>
      <trkpt lat="42.92379" lon="0.14154">
        <ele>2478.42</ele>
        <time>2022-06-02T11:46:59Z</time>
      </trkpt>
      <trkpt lat="42.92378" lon="0.14157">
        <ele>2478.42</ele>
        <time>2022-06-02T11:47:39Z</time>
      </trkpt>
      <trkpt lat="42.92378" lon="0.14156">
        <ele>2476.97</ele>
        <time>2022-06-02T11:48:12Z</time>
      </trkpt>
      <trkpt lat="42.92378" lon="0.14153">
        <ele>2478.9</ele>
        <time>2022-06-02T11:48:39Z</time>
      </trkpt>
      <trkpt lat="42.92382" lon="0.14155">
        <ele>2478.42</ele>
        <time>2022-06-02T11:49:05Z</time>
      </trkpt>
      <trkpt lat="42.9238" lon="0.14153">
        <ele>2479.38</ele>
        <time>2022-06-02T11:49:27Z</time>
      </trkpt>
      <trkpt lat="42.9238" lon="0.14156">
        <ele>2479.86</ele>
        <time>2022-06-02T11:49:54Z</time>
      </trkpt>
      <trkpt lat="42.92378" lon="0.14157">
        <ele>2479.38</ele>
        <time>2022-06-02T11:50:11Z</time>
      </trkpt>
      <trkpt lat="42.92379" lon="0.1415">
        <ele>2477.94</ele>
        <time>2022-06-02T11:50:25Z</time>
      </trkpt>
      <trkpt lat="42.92381" lon="0.14151">
        <ele>2476.97</ele>
        <time>2022-06-02T11:50:39Z</time>
      </trkpt>
      <trkpt lat="42.9238" lon="0.14152">
        <ele>2477.45</ele>
        <time>2022-06-02T11:51:02Z</time>
      </trkpt>
      <trkpt lat="42.92379" lon="0.14151">
        <ele>2477.45</ele>
        <time>2022-06-02T11:51:22Z</time>
      </trkpt>
      <trkpt lat="42.92382" lon="0.14149">
        <ele>2477.94</ele>
        <time>2022-06-02T11:51:51Z</time>
      </trkpt>
      <trkpt lat="42.92383" lon="0.14149">
        <ele>2476.97</ele>
        <time>2022-06-02T11:51:59Z</time>
      </trkpt>
      <trkpt lat="42.92391" lon="0.14152">
        <ele>2473.13</ele>
        <time>2022-06-02T11:52:06Z</time>
      </trkpt>
      <trkpt lat="42.92395" lon="0.14158">
        <ele>2469.76</ele>
        <time>2022-06-02T11:52:10Z</time>
      </trkpt>
      <trkpt lat="42.924" lon="0.14161">
        <ele>2464.48</ele>
        <time>2022-06-02T11:52:13Z</time>
      </trkpt>
      <trkpt lat="42.92401" lon="0.14163">
        <ele>2463.52</ele>
        <time>2022-06-02T11:52:14Z</time>
      </trkpt>
      <trkpt lat="42.92406" lon="0.14165">
        <ele>2459.19</ele>
        <time>2022-06-02T11:52:18Z</time>
      </trkpt>
      <trkpt lat="42.92407" lon="0.14173">
        <ele>2454.38</ele>
        <time>2022-06-02T11:52:21Z</time>
      </trkpt>
      <trkpt lat="42.92414" lon="0.14175">
        <ele>2450.06</ele>
        <time>2022-06-02T11:52:25Z</time>
      </trkpt>
      <trkpt lat="42.92417" lon="0.14176">
        <ele>2448.13</ele>
        <time>2022-06-02T11:52:26Z</time>
      </trkpt>
      <trkpt lat="42.92418" lon="0.14181">
        <ele>2444.29</ele>
        <time>2022-06-02T11:52:29Z</time>
      </trkpt>
      <trkpt lat="42.92426" lon="0.14183">
        <ele>2439.48</ele>
        <time>2022-06-02T11:52:33Z</time>
      </trkpt>
      <trkpt lat="42.9243" lon="0.14184">
        <ele>2436.12</ele>
        <time>2022-06-02T11:52:35Z</time>
      </trkpt>
      <trkpt lat="42.92429" lon="0.14195">
        <ele>2433.71</ele>
        <time>2022-06-02T11:52:38Z</time>
      </trkpt>
      <trkpt lat="42.92429" lon="0.14201">
        <ele>2432.27</ele>
        <time>2022-06-02T11:52:40Z</time>
      </trkpt>
      <trkpt lat="42.92429" lon="0.14205">
        <ele>2428.91</ele>
        <time>2022-06-02T11:52:44Z</time>
      </trkpt>
      <trkpt lat="42.92428" lon="0.14205">
        <ele>2428.43</ele>
        <time>2022-06-02T11:52:45Z</time>
      </trkpt>
      <trkpt lat="42.92423" lon="0.14209">
        <ele>2430.35</ele>
        <time>2022-06-02T11:53:03Z</time>
      </trkpt>
      <trkpt lat="42.92421" lon="0.1421">
        <ele>2430.83</ele>
        <time>2022-06-02T11:53:24Z</time>
      </trkpt>
      <trkpt lat="42.92421" lon="0.1421">
        <ele>2429.87</ele>
        <time>2022-06-02T11:53:46Z</time>
      </trkpt>
      <trkpt lat="42.92419" lon="0.14208">
        <ele>2429.87</ele>
        <time>2022-06-02T11:54:05Z</time>
      </trkpt>
      <trkpt lat="42.9242" lon="0.14208">
        <ele>2430.35</ele>
        <time>2022-06-02T11:54:20Z</time>
      </trkpt>
      <trkpt lat="42.92423" lon="0.14202">
        <ele>2430.83</ele>
        <time>2022-06-02T11:54:37Z</time>
      </trkpt>
      <trkpt lat="42.92422" lon="0.14199">
        <ele>2430.35</ele>
        <time>2022-06-02T11:55:00Z</time>
      </trkpt>
      <trkpt lat="42.92422" lon="0.14198">
        <ele>2430.35</ele>
        <time>2022-06-02T11:55:03Z</time>
      </trkpt>
      <trkpt lat="42.92426" lon="0.14194">
        <ele>2428.43</ele>
        <time>2022-06-02T11:55:07Z</time>
      </trkpt>
      <trkpt lat="42.92438" lon="0.14207">
        <ele>2422.66</ele>
        <time>2022-06-02T11:55:10Z</time>
      </trkpt>
      <trkpt lat="42.92446" lon="0.14213">
        <ele>2417.85</ele>
        <time>2022-06-02T11:55:13Z</time>
      </trkpt>
      <trkpt lat="42.92454" lon="0.1421">
        <ele>2413.53</ele>
        <time>2022-06-02T11:55:15Z</time>
      </trkpt>
      <trkpt lat="42.92456" lon="0.14244">
        <ele>2403.91</ele>
        <time>2022-06-02T11:55:21Z</time>
      </trkpt>
      <trkpt lat="42.92456" lon="0.14254">
        <ele>2402.47</ele>
        <time>2022-06-02T11:55:23Z</time>
      </trkpt>
      <trkpt lat="42.9246" lon="0.1426">
        <ele>2396.22</ele>
        <time>2022-06-02T11:55:26Z</time>
      </trkpt>
      <trkpt lat="42.92463" lon="0.14265">
        <ele>2393.34</ele>
        <time>2022-06-02T11:55:27Z</time>
      </trkpt>
      <trkpt lat="42.92467" lon="0.14277">
        <ele>2391.42</ele>
        <time>2022-06-02T11:55:29Z</time>
      </trkpt>
      <trkpt lat="42.92474" lon="0.14274">
        <ele>2387.57</ele>
        <time>2022-06-02T11:55:31Z</time>
      </trkpt>
      <trkpt lat="42.92478" lon="0.1427">
        <ele>2387.57</ele>
        <time>2022-06-02T11:55:32Z</time>
      </trkpt>
      <trkpt lat="42.92488" lon="0.14269">
        <ele>2383.25</ele>
        <time>2022-06-02T11:55:35Z</time>
      </trkpt>
      <trkpt lat="42.92491" lon="0.14282">
        <ele>2381.32</ele>
        <time>2022-06-02T11:55:39Z</time>
      </trkpt>
      <trkpt lat="42.92505" lon="0.14318">
        <ele>2375.07</ele>
        <time>2022-06-02T11:55:46Z</time>
      </trkpt>
      <trkpt lat="42.92505" lon="0.14319">
        <ele>2375.55</ele>
        <time>2022-06-02T11:55:47Z</time>
      </trkpt>
      <trkpt lat="42.92504" lon="0.14322">
        <ele>2375.55</ele>
        <time>2022-06-02T11:55:59Z</time>
      </trkpt>
      <trkpt lat="42.92509" lon="0.14321">
        <ele>2374.59</ele>
        <time>2022-06-02T11:56:01Z</time>
      </trkpt>
      <trkpt lat="42.92512" lon="0.14317">
        <ele>2371.71</ele>
        <time>2022-06-02T11:56:03Z</time>
      </trkpt>
      <trkpt lat="42.92512" lon="0.14317">
        <ele>2371.23</ele>
        <time>2022-06-02T11:56:04Z</time>
      </trkpt>
      <trkpt lat="42.92522" lon="0.14307">
        <ele>2368.35</ele>
        <time>2022-06-02T11:56:09Z</time>
      </trkpt>
      <trkpt lat="42.92527" lon="0.14317">
        <ele>2365.46</ele>
        <time>2022-06-02T11:56:11Z</time>
      </trkpt>
      <trkpt lat="42.92526" lon="0.14328">
        <ele>2365.46</ele>
        <time>2022-06-02T11:56:20Z</time>
      </trkpt>
      <trkpt lat="42.92526" lon="0.14327">
        <ele>2365.46</ele>
        <time>2022-06-02T11:56:40Z</time>
      </trkpt>
      <trkpt lat="42.92527" lon="0.14326">
        <ele>2365.46</ele>
        <time>2022-06-02T11:56:55Z</time>
      </trkpt>
      <trkpt lat="42.92534" lon="0.14332">
        <ele>2363.54</ele>
        <time>2022-06-02T11:56:59Z</time>
      </trkpt>
      <trkpt lat="42.92551" lon="0.14339">
        <ele>2356.33</ele>
        <time>2022-06-02T11:57:03Z</time>
      </trkpt>
      <trkpt lat="42.92564" lon="0.14347">
        <ele>2350.56</ele>
        <time>2022-06-02T11:57:06Z</time>
      </trkpt>
      <trkpt lat="42.92568" lon="0.14351">
        <ele>2346.72</ele>
        <time>2022-06-02T11:57:07Z</time>
      </trkpt>
      <trkpt lat="42.92571" lon="0.14352">
        <ele>2349.12</ele>
        <time>2022-06-02T11:57:08Z</time>
      </trkpt>
      <trkpt lat="42.9258" lon="0.14356">
        <ele>2344.79</ele>
        <time>2022-06-02T11:57:10Z</time>
      </trkpt>
      <trkpt lat="42.92587" lon="0.14366">
        <ele>2342.87</ele>
        <time>2022-06-02T11:57:12Z</time>
      </trkpt>
      <trkpt lat="42.9259" lon="0.14369">
        <ele>2341.43</ele>
        <time>2022-06-02T11:57:13Z</time>
      </trkpt>
      <trkpt lat="42.92601" lon="0.14386">
        <ele>2333.26</ele>
        <time>2022-06-02T11:57:17Z</time>
      </trkpt>
      <trkpt lat="42.92608" lon="0.14393">
        <ele>2327.97</ele>
        <time>2022-06-02T11:57:19Z</time>
      </trkpt>
      <trkpt lat="42.92615" lon="0.14405">
        <ele>2323.16</ele>
        <time>2022-06-02T11:57:21Z</time>
      </trkpt>
      <trkpt lat="42.92617" lon="0.14411">
        <ele>2321.72</ele>
        <time>2022-06-02T11:57:22Z</time>
      </trkpt>
      <trkpt lat="42.92624" lon="0.14429">
        <ele>2318.36</ele>
        <time>2022-06-02T11:57:25Z</time>
      </trkpt>
      <trkpt lat="42.92633" lon="0.1442">
        <ele>2311.15</ele>
        <time>2022-06-02T11:57:28Z</time>
      </trkpt>
      <trkpt lat="42.92637" lon="0.14422">
        <ele>2307.3</ele>
        <time>2022-06-02T11:57:29Z</time>
      </trkpt>
      <trkpt lat="42.92644" lon="0.14434">
        <ele>2304.42</ele>
        <time>2022-06-02T11:57:31Z</time>
      </trkpt>
      <trkpt lat="42.92649" lon="0.14447">
        <ele>2303.46</ele>
        <time>2022-06-02T11:57:37Z</time>
      </trkpt>
      <trkpt lat="42.92649" lon="0.14446">
        <ele>2303.94</ele>
        <time>2022-06-02T11:57:59Z</time>
      </trkpt>
      <trkpt lat="42.92651" lon="0.14446">
        <ele>2303.94</ele>
        <time>2022-06-02T11:58:20Z</time>
      </trkpt>
      <trkpt lat="42.92652" lon="0.14447">
        <ele>2303.46</ele>
        <time>2022-06-02T11:58:27Z</time>
      </trkpt>
      <trkpt lat="42.92659" lon="0.1446">
        <ele>2300.09</ele>
        <time>2022-06-02T11:58:31Z</time>
      </trkpt>
      <trkpt lat="42.92666" lon="0.14463">
        <ele>2298.17</ele>
        <time>2022-06-02T11:58:33Z</time>
      </trkpt>
      <trkpt lat="42.92671" lon="0.14459">
        <ele>2295.28</ele>
        <time>2022-06-02T11:58:34Z</time>
      </trkpt>
      <trkpt lat="42.92677" lon="0.14458">
        <ele>2290.48</ele>
        <time>2022-06-02T11:58:35Z</time>
      </trkpt>
      <trkpt lat="42.92683" lon="0.14462">
        <ele>2287.11</ele>
        <time>2022-06-02T11:58:36Z</time>
      </trkpt>
      <trkpt lat="42.92692" lon="0.14476">
        <ele>2284.71</ele>
        <time>2022-06-02T11:58:38Z</time>
      </trkpt>
      <trkpt lat="42.92699" lon="0.14495">
        <ele>2282.79</ele>
        <time>2022-06-02T11:58:41Z</time>
      </trkpt>
      <trkpt lat="42.92702" lon="0.14507">
        <ele>2281.35</ele>
        <time>2022-06-02T11:58:43Z</time>
      </trkpt>
      <trkpt lat="42.92707" lon="0.14516">
        <ele>2281.35</ele>
        <time>2022-06-02T11:58:45Z</time>
      </trkpt>
      <trkpt lat="42.92714" lon="0.14514">
        <ele>2274.62</ele>
        <time>2022-06-02T11:58:47Z</time>
      </trkpt>
      <trkpt lat="42.92719" lon="0.14519">
        <ele>2270.29</ele>
        <time>2022-06-02T11:58:48Z</time>
      </trkpt>
      <trkpt lat="42.92726" lon="0.14535">
        <ele>2266.93</ele>
        <time>2022-06-02T11:58:50Z</time>
      </trkpt>
      <trkpt lat="42.92736" lon="0.14561">
        <ele>2260.2</ele>
        <time>2022-06-02T11:58:53Z</time>
      </trkpt>
      <trkpt lat="42.92739" lon="0.14569">
        <ele>2260.2</ele>
        <time>2022-06-02T11:58:54Z</time>
      </trkpt>
      <trkpt lat="42.92742" lon="0.14576">
        <ele>2259.72</ele>
        <time>2022-06-02T11:58:55Z</time>
      </trkpt>
      <trkpt lat="42.92746" lon="0.1459">
        <ele>2258.27</ele>
        <time>2022-06-02T11:58:57Z</time>
      </trkpt>
      <trkpt lat="42.92748" lon="0.14596">
        <ele>2257.31</ele>
        <time>2022-06-02T11:58:58Z</time>
      </trkpt>
      <trkpt lat="42.92767" lon="0.14595">
        <ele>2250.1</ele>
        <time>2022-06-02T11:59:03Z</time>
      </trkpt>
      <trkpt lat="42.92772" lon="0.14598">
        <ele>2246.74</ele>
        <time>2022-06-02T11:59:04Z</time>
      </trkpt>
      <trkpt lat="42.92779" lon="0.14609">
        <ele>2244.82</ele>
        <time>2022-06-02T11:59:06Z</time>
      </trkpt>
      <trkpt lat="42.92786" lon="0.14626">
        <ele>2243.85</ele>
        <time>2022-06-02T11:59:09Z</time>
      </trkpt>
      <trkpt lat="42.92792" lon="0.14651">
        <ele>2242.41</ele>
        <time>2022-06-02T11:59:14Z</time>
      </trkpt>
      <trkpt lat="42.92794" lon="0.14667">
        <ele>2240.01</ele>
        <time>2022-06-02T11:59:17Z</time>
      </trkpt>
      <trkpt lat="42.92795" lon="0.14669">
        <ele>2241.45</ele>
        <time>2022-06-02T11:59:28Z</time>
      </trkpt>
      <trkpt lat="42.92792" lon="0.14672">
        <ele>2240.97</ele>
        <time>2022-06-02T11:59:44Z</time>
      </trkpt>
      <trkpt lat="42.92792" lon="0.1467">
        <ele>2241.93</ele>
        <time>2022-06-02T11:59:48Z</time>
      </trkpt>
      <trkpt lat="42.928" lon="0.14685">
        <ele>2238.57</ele>
        <time>2022-06-02T11:59:53Z</time>
      </trkpt>
      <trkpt lat="42.92803" lon="0.14697">
        <ele>2237.13</ele>
        <time>2022-06-02T11:59:56Z</time>
      </trkpt>
      <trkpt lat="42.92806" lon="0.14703">
        <ele>2234.72</ele>
        <time>2022-06-02T11:59:58Z</time>
      </trkpt>
      <trkpt lat="42.9281" lon="0.14702">
        <ele>2233.76</ele>
        <time>2022-06-02T12:00:00Z</time>
      </trkpt>
      <trkpt lat="42.9282" lon="0.14683">
        <ele>2229.92</ele>
        <time>2022-06-02T12:00:04Z</time>
      </trkpt>
      <trkpt lat="42.92833" lon="0.14685">
        <ele>2224.63</ele>
        <time>2022-06-02T12:00:07Z</time>
      </trkpt>
      <trkpt lat="42.92838" lon="0.14686">
        <ele>2224.63</ele>
        <time>2022-06-02T12:00:08Z</time>
      </trkpt>
      <trkpt lat="42.92848" lon="0.14694">
        <ele>2218.38</ele>
        <time>2022-06-02T12:00:10Z</time>
      </trkpt>
      <trkpt lat="42.92852" lon="0.147">
        <ele>2218.86</ele>
        <time>2022-06-02T12:00:11Z</time>
      </trkpt>
      <trkpt lat="42.9286" lon="0.14712">
        <ele>2215.98</ele>
        <time>2022-06-02T12:00:13Z</time>
      </trkpt>
      <trkpt lat="42.92858" lon="0.14723">
        <ele>2214.53</ele>
        <time>2022-06-02T12:00:23Z</time>
      </trkpt>
      <trkpt lat="42.92858" lon="0.14724">
        <ele>2214.05</ele>
        <time>2022-06-02T12:00:25Z</time>
      </trkpt>
      <trkpt lat="42.92855" lon="0.14727">
        <ele>2214.53</ele>
        <time>2022-06-02T12:00:38Z</time>
      </trkpt>
      <trkpt lat="42.92853" lon="0.14728">
        <ele>2215.01</ele>
        <time>2022-06-02T12:00:49Z</time>
      </trkpt>
      <trkpt lat="42.92851" lon="0.14727">
        <ele>2215.98</ele>
        <time>2022-06-02T12:01:01Z</time>
      </trkpt>
      <trkpt lat="42.92848" lon="0.14726">
        <ele>2216.46</ele>
        <time>2022-06-02T12:01:15Z</time>
      </trkpt>
      <trkpt lat="42.92847" lon="0.14726">
        <ele>2216.46</ele>
        <time>2022-06-02T12:01:22Z</time>
      </trkpt>
      <trkpt lat="42.92852" lon="0.14731">
        <ele>2215.98</ele>
        <time>2022-06-02T12:01:35Z</time>
      </trkpt>
      <trkpt lat="42.92855" lon="0.14729">
        <ele>2215.98</ele>
        <time>2022-06-02T12:01:48Z</time>
      </trkpt>
      <trkpt lat="42.92856" lon="0.1473">
        <ele>2215.01</ele>
        <time>2022-06-02T12:01:52Z</time>
      </trkpt>
      <trkpt lat="42.92862" lon="0.14751">
        <ele>2214.05</ele>
        <time>2022-06-02T12:02:02Z</time>
      </trkpt>
      <trkpt lat="42.92861" lon="0.14764">
        <ele>2215.5</ele>
        <time>2022-06-02T12:02:16Z</time>
      </trkpt>
      <trkpt lat="42.92861" lon="0.14764">
        <ele>2215.5</ele>
        <time>2022-06-02T12:02:17Z</time>
      </trkpt>
      <trkpt lat="42.9287" lon="0.14779">
        <ele>2212.13</ele>
        <time>2022-06-02T12:02:22Z</time>
      </trkpt>
      <trkpt lat="42.92871" lon="0.14782">
        <ele>2212.13</ele>
        <time>2022-06-02T12:02:23Z</time>
      </trkpt>
      <trkpt lat="42.9288" lon="0.14805">
        <ele>2208.77</ele>
        <time>2022-06-02T12:02:28Z</time>
      </trkpt>
      <trkpt lat="42.92882" lon="0.1481">
        <ele>2207.81</ele>
        <time>2022-06-02T12:02:29Z</time>
      </trkpt>
      <trkpt lat="42.92888" lon="0.14855">
        <ele>2203</ele>
        <time>2022-06-02T12:02:36Z</time>
      </trkpt>
      <trkpt lat="42.92893" lon="0.1488">
        <ele>2200.59</ele>
        <time>2022-06-02T12:02:39Z</time>
      </trkpt>
      <trkpt lat="42.92896" lon="0.14888">
        <ele>2199.63</ele>
        <time>2022-06-02T12:02:40Z</time>
      </trkpt>
      <trkpt lat="42.92904" lon="0.14904">
        <ele>2197.23</ele>
        <time>2022-06-02T12:02:42Z</time>
      </trkpt>
      <trkpt lat="42.92911" lon="0.14931">
        <ele>2193.87</ele>
        <time>2022-06-02T12:02:45Z</time>
      </trkpt>
      <trkpt lat="42.92917" lon="0.14958">
        <ele>2190.5</ele>
        <time>2022-06-02T12:02:48Z</time>
      </trkpt>
      <trkpt lat="42.92924" lon="0.14988">
        <ele>2185.21</ele>
        <time>2022-06-02T12:02:51Z</time>
      </trkpt>
      <trkpt lat="42.92931" lon="0.15028">
        <ele>2176.08</ele>
        <time>2022-06-02T12:02:55Z</time>
      </trkpt>
      <trkpt lat="42.92943" lon="0.15047">
        <ele>2171.76</ele>
        <time>2022-06-02T12:02:58Z</time>
      </trkpt>
      <trkpt lat="42.92947" lon="0.15053">
        <ele>2170.79</ele>
        <time>2022-06-02T12:02:59Z</time>
      </trkpt>
      <trkpt lat="42.92952" lon="0.15079">
        <ele>2167.91</ele>
        <time>2022-06-02T12:03:04Z</time>
      </trkpt>
      <trkpt lat="42.9295" lon="0.15078">
        <ele>2168.39</ele>
        <time>2022-06-02T12:03:12Z</time>
      </trkpt>
      <trkpt lat="42.9296" lon="0.15077">
        <ele>2164.55</ele>
        <time>2022-06-02T12:03:16Z</time>
      </trkpt>
      <trkpt lat="42.9297" lon="0.15075">
        <ele>2160.7</ele>
        <time>2022-06-02T12:03:18Z</time>
      </trkpt>
      <trkpt lat="42.92975" lon="0.15079">
        <ele>2157.34</ele>
        <time>2022-06-02T12:03:19Z</time>
      </trkpt>
      <trkpt lat="42.92985" lon="0.15084">
        <ele>2153.97</ele>
        <time>2022-06-02T12:03:21Z</time>
      </trkpt>
      <trkpt lat="42.92995" lon="0.15087">
        <ele>2150.61</ele>
        <time>2022-06-02T12:03:23Z</time>
      </trkpt>
      <trkpt lat="42.93" lon="0.15094">
        <ele>2148.2</ele>
        <time>2022-06-02T12:03:25Z</time>
      </trkpt>
      <trkpt lat="42.93002" lon="0.15093">
        <ele>2147.24</ele>
        <time>2022-06-02T12:03:27Z</time>
      </trkpt>
      <trkpt lat="42.93003" lon="0.15093">
        <ele>2145.8</ele>
        <time>2022-06-02T12:03:28Z</time>
      </trkpt>
      <trkpt lat="42.93013" lon="0.15113">
        <ele>2141.47</ele>
        <time>2022-06-02T12:03:34Z</time>
      </trkpt>
      <trkpt lat="42.93014" lon="0.15122">
        <ele>2140.51</ele>
        <time>2022-06-02T12:03:36Z</time>
      </trkpt>
      <trkpt lat="42.93021" lon="0.15146">
        <ele>2136.67</ele>
        <time>2022-06-02T12:03:41Z</time>
      </trkpt>
      <trkpt lat="42.93025" lon="0.15158">
        <ele>2133.3</ele>
        <time>2022-06-02T12:03:45Z</time>
      </trkpt>
      <trkpt lat="42.93026" lon="0.15155">
        <ele>2132.82</ele>
        <time>2022-06-02T12:03:54Z</time>
      </trkpt>
      <trkpt lat="42.93028" lon="0.15171">
        <ele>2129.46</ele>
        <time>2022-06-02T12:03:58Z</time>
      </trkpt>
      <trkpt lat="42.93026" lon="0.15176">
        <ele>2128.02</ele>
        <time>2022-06-02T12:03:59Z</time>
      </trkpt>
      <trkpt lat="42.93021" lon="0.15207">
        <ele>2121.77</ele>
        <time>2022-06-02T12:04:04Z</time>
      </trkpt>
      <trkpt lat="42.93026" lon="0.15216">
        <ele>2117.44</ele>
        <time>2022-06-02T12:04:06Z</time>
      </trkpt>
      <trkpt lat="42.93028" lon="0.15221">
        <ele>2115.52</ele>
        <time>2022-06-02T12:04:07Z</time>
      </trkpt>
      <trkpt lat="42.93034" lon="0.15245">
        <ele>2105.91</ele>
        <time>2022-06-02T12:04:11Z</time>
      </trkpt>
      <trkpt lat="42.93036" lon="0.1525">
        <ele>2103.98</ele>
        <time>2022-06-02T12:04:12Z</time>
      </trkpt>
      <trkpt lat="42.93037" lon="0.1526">
        <ele>2103.02</ele>
        <time>2022-06-02T12:04:14Z</time>
      </trkpt>
      <trkpt lat="42.93035" lon="0.1526">
        <ele>2102.06</ele>
        <time>2022-06-02T12:04:22Z</time>
      </trkpt>
      <trkpt lat="42.93038" lon="0.15271">
        <ele>2097.73</ele>
        <time>2022-06-02T12:04:26Z</time>
      </trkpt>
      <trkpt lat="42.93035" lon="0.15303">
        <ele>2092.45</ele>
        <time>2022-06-02T12:04:31Z</time>
      </trkpt>
      <trkpt lat="42.9303" lon="0.15339">
        <ele>2086.2</ele>
        <time>2022-06-02T12:04:36Z</time>
      </trkpt>
      <trkpt lat="42.93031" lon="0.15346">
        <ele>2085.24</ele>
        <time>2022-06-02T12:04:37Z</time>
      </trkpt>
      <trkpt lat="42.93032" lon="0.1536">
        <ele>2084.28</ele>
        <time>2022-06-02T12:04:39Z</time>
      </trkpt>
      <trkpt lat="42.93037" lon="0.15376">
        <ele>2081.87</ele>
        <time>2022-06-02T12:04:42Z</time>
      </trkpt>
      <trkpt lat="42.93047" lon="0.15389">
        <ele>2076.1</ele>
        <time>2022-06-02T12:04:45Z</time>
      </trkpt>
      <trkpt lat="42.93051" lon="0.15403">
        <ele>2072.74</ele>
        <time>2022-06-02T12:04:47Z</time>
      </trkpt>
      <trkpt lat="42.93058" lon="0.15428">
        <ele>2066.97</ele>
        <time>2022-06-02T12:04:52Z</time>
      </trkpt>
      <trkpt lat="42.93064" lon="0.15432">
        <ele>2063.61</ele>
        <time>2022-06-02T12:04:54Z</time>
      </trkpt>
      <trkpt lat="42.93079" lon="0.15444">
        <ele>2059.76</ele>
        <time>2022-06-02T12:04:58Z</time>
      </trkpt>
      <trkpt lat="42.93093" lon="0.15455">
        <ele>2057.36</ele>
        <time>2022-06-02T12:05:01Z</time>
      </trkpt>
      <trkpt lat="42.93106" lon="0.15491">
        <ele>2055.44</ele>
        <time>2022-06-02T12:05:06Z</time>
      </trkpt>
      <trkpt lat="42.93109" lon="0.15503">
        <ele>2050.63</ele>
        <time>2022-06-02T12:05:08Z</time>
      </trkpt>
      <trkpt lat="42.93104" lon="0.15514">
        <ele>2047.75</ele>
        <time>2022-06-02T12:05:10Z</time>
      </trkpt>
      <trkpt lat="42.93098" lon="0.15524">
        <ele>2046.78</ele>
        <time>2022-06-02T12:05:12Z</time>
      </trkpt>
      <trkpt lat="42.93097" lon="0.1554">
        <ele>2041.98</ele>
        <time>2022-06-02T12:05:14Z</time>
      </trkpt>
      <trkpt lat="42.93093" lon="0.15558">
        <ele>2036.69</ele>
        <time>2022-06-02T12:05:16Z</time>
      </trkpt>
      <trkpt lat="42.93086" lon="0.15574">
        <ele>2035.73</ele>
        <time>2022-06-02T12:05:18Z</time>
      </trkpt>
      <trkpt lat="42.93089" lon="0.15604">
        <ele>2030.92</ele>
        <time>2022-06-02T12:05:24Z</time>
      </trkpt>
      <trkpt lat="42.93093" lon="0.15607">
        <ele>2029</ele>
        <time>2022-06-02T12:05:26Z</time>
      </trkpt>
      <trkpt lat="42.93096" lon="0.15609">
        <ele>2025.15</ele>
        <time>2022-06-02T12:05:27Z</time>
      </trkpt>
      <trkpt lat="42.93097" lon="0.1561">
        <ele>2024.67</ele>
        <time>2022-06-02T12:05:28Z</time>
      </trkpt>
      <trkpt lat="42.93094" lon="0.15626">
        <ele>2022.75</ele>
        <time>2022-06-02T12:05:33Z</time>
      </trkpt>
      <trkpt lat="42.93096" lon="0.15633">
        <ele>2019.39</ele>
        <time>2022-06-02T12:05:35Z</time>
      </trkpt>
      <trkpt lat="42.93103" lon="0.15641">
        <ele>2016.02</ele>
        <time>2022-06-02T12:05:38Z</time>
      </trkpt>
      <trkpt lat="42.93105" lon="0.15654">
        <ele>2013.14</ele>
        <time>2022-06-02T12:05:40Z</time>
      </trkpt>
      <trkpt lat="42.93111" lon="0.15668">
        <ele>2011.22</ele>
        <time>2022-06-02T12:05:43Z</time>
      </trkpt>
      <trkpt lat="42.93114" lon="0.15673">
        <ele>2010.73</ele>
        <time>2022-06-02T12:05:45Z</time>
      </trkpt>
      <trkpt lat="42.93131" lon="0.15696">
        <ele>2005.93</ele>
        <time>2022-06-02T12:05:57Z</time>
      </trkpt>
      <trkpt lat="42.93137" lon="0.15719">
        <ele>2002.08</ele>
        <time>2022-06-02T12:06:03Z</time>
      </trkpt>
      <trkpt lat="42.93142" lon="0.1573">
        <ele>1999.68</ele>
        <time>2022-06-02T12:06:06Z</time>
      </trkpt>
      <trkpt lat="42.93146" lon="0.15725">
        <ele>1998.72</ele>
        <time>2022-06-02T12:06:16Z</time>
      </trkpt>
      <trkpt lat="42.93148" lon="0.15729">
        <ele>1997.76</ele>
        <time>2022-06-02T12:06:30Z</time>
      </trkpt>
      <trkpt lat="42.93143" lon="0.15726">
        <ele>1997.76</ele>
        <time>2022-06-02T12:06:51Z</time>
      </trkpt>
      <trkpt lat="42.93143" lon="0.15733">
        <ele>1998.72</ele>
        <time>2022-06-02T12:07:11Z</time>
      </trkpt>
      <trkpt lat="42.93141" lon="0.15728">
        <ele>1997.76</ele>
        <time>2022-06-02T12:07:26Z</time>
      </trkpt>
      <trkpt lat="42.93138" lon="0.1572">
        <ele>1998.24</ele>
        <time>2022-06-02T12:07:44Z</time>
      </trkpt>
      <trkpt lat="42.93137" lon="0.15719">
        <ele>1998.24</ele>
        <time>2022-06-02T12:08:01Z</time>
      </trkpt>
      <trkpt lat="42.93138" lon="0.1572">
        <ele>1998.72</ele>
        <time>2022-06-02T12:08:23Z</time>
      </trkpt>
      <trkpt lat="42.93136" lon="0.15717">
        <ele>1999.2</ele>
        <time>2022-06-02T12:08:38Z</time>
      </trkpt>
      <trkpt lat="42.93138" lon="0.15719">
        <ele>1998.72</ele>
        <time>2022-06-02T12:08:52Z</time>
      </trkpt>
      <trkpt lat="42.93136" lon="0.1572">
        <ele>1998.24</ele>
        <time>2022-06-02T12:09:02Z</time>
      </trkpt>
      <trkpt lat="42.93135" lon="0.15715">
        <ele>1997.76</ele>
        <time>2022-06-02T12:09:32Z</time>
      </trkpt>
      <trkpt lat="42.93133" lon="0.15714">
        <ele>1998.24</ele>
        <time>2022-06-02T12:10:01Z</time>
      </trkpt>
      <trkpt lat="42.93134" lon="0.15714">
        <ele>1998.24</ele>
        <time>2022-06-02T12:10:27Z</time>
      </trkpt>
      <trkpt lat="42.93132" lon="0.15711">
        <ele>1998.24</ele>
        <time>2022-06-02T12:11:00Z</time>
      </trkpt>
      <trkpt lat="42.93137" lon="0.15718">
        <ele>1998.72</ele>
        <time>2022-06-02T12:11:34Z</time>
      </trkpt>
      <trkpt lat="42.93141" lon="0.15726">
        <ele>1998.24</ele>
        <time>2022-06-02T12:12:03Z</time>
      </trkpt>
      <trkpt lat="42.93141" lon="0.15726">
        <ele>1998.72</ele>
        <time>2022-06-02T12:12:37Z</time>
      </trkpt>
      <trkpt lat="42.93138" lon="0.15723">
        <ele>1998.72</ele>
        <time>2022-06-02T12:13:10Z</time>
      </trkpt>
      <trkpt lat="42.93138" lon="0.15723">
        <ele>1999.2</ele>
        <time>2022-06-02T12:13:45Z</time>
      </trkpt>
      <trkpt lat="42.93139" lon="0.15725">
        <ele>1998.72</ele>
        <time>2022-06-02T12:14:21Z</time>
      </trkpt>
      <trkpt lat="42.93136" lon="0.15733">
        <ele>1998.72</ele>
        <time>2022-06-02T12:14:56Z</time>
      </trkpt>
      <trkpt lat="42.93134" lon="0.15721">
        <ele>1998.24</ele>
        <time>2022-06-02T12:15:35Z</time>
      </trkpt>
      <trkpt lat="42.93134" lon="0.15722">
        <ele>1997.76</ele>
        <time>2022-06-02T12:16:07Z</time>
      </trkpt>
      <trkpt lat="42.93128" lon="0.15727">
        <ele>1998.24</ele>
        <time>2022-06-02T12:16:47Z</time>
      </trkpt>
      <trkpt lat="42.93128" lon="0.15718">
        <ele>1997.76</ele>
        <time>2022-06-02T12:17:22Z</time>
      </trkpt>
      <trkpt lat="42.9313" lon="0.15713">
        <ele>1997.76</ele>
        <time>2022-06-02T12:18:00Z</time>
      </trkpt>
      <trkpt lat="42.93129" lon="0.15716">
        <ele>1997.76</ele>
        <time>2022-06-02T12:18:42Z</time>
      </trkpt>
      <trkpt lat="42.93127" lon="0.15723">
        <ele>1997.76</ele>
        <time>2022-06-02T12:19:17Z</time>
      </trkpt>
      <trkpt lat="42.93132" lon="0.15708">
        <ele>1997.76</ele>
        <time>2022-06-02T12:19:49Z</time>
      </trkpt>
      <trkpt lat="42.93129" lon="0.15718">
        <ele>1997.76</ele>
        <time>2022-06-02T12:20:24Z</time>
      </trkpt>
      <trkpt lat="42.93122" lon="0.15713">
        <ele>1997.28</ele>
        <time>2022-06-02T12:21:04Z</time>
      </trkpt>
      <trkpt lat="42.93125" lon="0.15712">
        <ele>1996.8</ele>
        <time>2022-06-02T12:21:46Z</time>
      </trkpt>
      <trkpt lat="42.93134" lon="0.15703">
        <ele>1995.83</ele>
        <time>2022-06-02T12:22:20Z</time>
      </trkpt>
      <trkpt lat="42.93126" lon="0.15712">
        <ele>1995.35</ele>
        <time>2022-06-02T12:22:58Z</time>
      </trkpt>
      <trkpt lat="42.9312" lon="0.15719">
        <ele>1994.87</ele>
        <time>2022-06-02T12:23:38Z</time>
      </trkpt>
      <trkpt lat="42.93128" lon="0.15709">
        <ele>1994.39</ele>
        <time>2022-06-02T12:24:13Z</time>
      </trkpt>
      <trkpt lat="42.93126" lon="0.15714">
        <ele>1993.91</ele>
        <time>2022-06-02T12:24:53Z</time>
      </trkpt>
      <trkpt lat="42.93133" lon="0.15706">
        <ele>1994.39</ele>
        <time>2022-06-02T12:25:25Z</time>
      </trkpt>
      <trkpt lat="42.93138" lon="0.15701">
        <ele>1993.43</ele>
        <time>2022-06-02T12:26:02Z</time>
      </trkpt>
      <trkpt lat="42.93128" lon="0.15711">
        <ele>1992.47</ele>
        <time>2022-06-02T12:26:39Z</time>
      </trkpt>
      <trkpt lat="42.9313" lon="0.15708">
        <ele>1991.99</ele>
        <time>2022-06-02T12:27:18Z</time>
      </trkpt>
      <trkpt lat="42.93129" lon="0.15709">
        <ele>1991.51</ele>
        <time>2022-06-02T12:28:05Z</time>
      </trkpt>
      <trkpt lat="42.93132" lon="0.15708">
        <ele>1990.55</ele>
        <time>2022-06-02T12:28:47Z</time>
      </trkpt>
      <trkpt lat="42.93135" lon="0.15704">
        <ele>1989.59</ele>
        <time>2022-06-02T12:29:28Z</time>
      </trkpt>
      <trkpt lat="42.93133" lon="0.15706">
        <ele>1990.07</ele>
        <time>2022-06-02T12:30:03Z</time>
      </trkpt>
      <trkpt lat="42.93135" lon="0.15706">
        <ele>1990.07</ele>
        <time>2022-06-02T12:30:42Z</time>
      </trkpt>
      <trkpt lat="42.93134" lon="0.15705">
        <ele>1989.59</ele>
        <time>2022-06-02T12:31:19Z</time>
      </trkpt>
      <trkpt lat="42.93133" lon="0.15707">
        <ele>1990.07</ele>
        <time>2022-06-02T12:31:59Z</time>
      </trkpt>
      <trkpt lat="42.93133" lon="0.15706">
        <ele>1989.1</ele>
        <time>2022-06-02T12:32:35Z</time>
      </trkpt>
      <trkpt lat="42.93133" lon="0.15707">
        <ele>1988.14</ele>
        <time>2022-06-02T12:33:11Z</time>
      </trkpt>
      <trkpt lat="42.93134" lon="0.15707">
        <ele>1989.1</ele>
        <time>2022-06-02T12:33:43Z</time>
      </trkpt>
      <trkpt lat="42.93135" lon="0.15705">
        <ele>1989.1</ele>
        <time>2022-06-02T12:34:19Z</time>
      </trkpt>
      <trkpt lat="42.93135" lon="0.15706">
        <ele>1988.62</ele>
        <time>2022-06-02T12:34:48Z</time>
      </trkpt>
      <trkpt lat="42.93133" lon="0.15705">
        <ele>1988.62</ele>
        <time>2022-06-02T12:35:23Z</time>
      </trkpt>
      <trkpt lat="42.93135" lon="0.15707">
        <ele>1988.62</ele>
        <time>2022-06-02T12:36:00Z</time>
      </trkpt>
      <trkpt lat="42.93134" lon="0.15706">
        <ele>1988.14</ele>
        <time>2022-06-02T12:36:42Z</time>
      </trkpt>
      <trkpt lat="42.93134" lon="0.15706">
        <ele>1988.14</ele>
        <time>2022-06-02T12:37:19Z</time>
      </trkpt>
      <trkpt lat="42.93135" lon="0.15706">
        <ele>1988.14</ele>
        <time>2022-06-02T12:37:53Z</time>
      </trkpt>
      <trkpt lat="42.93134" lon="0.15707">
        <ele>1987.18</ele>
        <time>2022-06-02T12:38:24Z</time>
      </trkpt>
      <trkpt lat="42.93134" lon="0.15705">
        <ele>1986.22</ele>
        <time>2022-06-02T12:38:52Z</time>
      </trkpt>
      <trkpt lat="42.93137" lon="0.15706">
        <ele>1986.7</ele>
        <time>2022-06-02T12:39:21Z</time>
      </trkpt>
      <trkpt lat="42.93136" lon="0.15708">
        <ele>1987.18</ele>
        <time>2022-06-02T12:39:51Z</time>
      </trkpt>
      <trkpt lat="42.93136" lon="0.15707">
        <ele>1986.7</ele>
        <time>2022-06-02T12:40:24Z</time>
      </trkpt>
      <trkpt lat="42.93136" lon="0.15706">
        <ele>1986.7</ele>
        <time>2022-06-02T12:40:57Z</time>
      </trkpt>
      <trkpt lat="42.93133" lon="0.15704">
        <ele>1986.22</ele>
        <time>2022-06-02T12:41:15Z</time>
      </trkpt>
      <trkpt lat="42.93134" lon="0.15705">
        <ele>1985.74</ele>
        <time>2022-06-02T12:41:48Z</time>
      </trkpt>
      <trkpt lat="42.93133" lon="0.15707">
        <ele>1984.78</ele>
        <time>2022-06-02T12:42:22Z</time>
      </trkpt>
      <trkpt lat="42.93132" lon="0.15705">
        <ele>1984.3</ele>
        <time>2022-06-02T12:42:45Z</time>
      </trkpt>
      <trkpt lat="42.93134" lon="0.15706">
        <ele>1985.74</ele>
        <time>2022-06-02T12:42:56Z</time>
      </trkpt>
      <trkpt lat="42.93134" lon="0.15705">
        <ele>1985.74</ele>
        <time>2022-06-02T12:42:59Z</time>
      </trkpt>
      <trkpt lat="42.93132" lon="0.15703">
        <ele>1985.74</ele>
        <time>2022-06-02T12:43:08Z</time>
      </trkpt>
      <trkpt lat="42.93139" lon="0.15698">
        <ele>1985.74</ele>
        <time>2022-06-02T12:43:39Z</time>
      </trkpt>
      <trkpt lat="42.93132" lon="0.15701">
        <ele>1985.74</ele>
        <time>2022-06-02T12:44:09Z</time>
      </trkpt>
      <trkpt lat="42.93136" lon="0.157">
        <ele>1985.26</ele>
        <time>2022-06-02T12:44:45Z</time>
      </trkpt>
      <trkpt lat="42.93131" lon="0.15703">
        <ele>1984.78</ele>
        <time>2022-06-02T12:45:12Z</time>
      </trkpt>
      <trkpt lat="42.93138" lon="0.157">
        <ele>1983.82</ele>
        <time>2022-06-02T12:45:45Z</time>
      </trkpt>
      <trkpt lat="42.93137" lon="0.15698">
        <ele>1983.34</ele>
        <time>2022-06-02T12:46:17Z</time>
      </trkpt>
      <trkpt lat="42.93135" lon="0.15699">
        <ele>1983.34</ele>
        <time>2022-06-02T12:46:42Z</time>
      </trkpt>
      <trkpt lat="42.93135" lon="0.15702">
        <ele>1983.82</ele>
        <time>2022-06-02T12:47:15Z</time>
      </trkpt>
      <trkpt lat="42.93135" lon="0.15701">
        <ele>1982.86</ele>
        <time>2022-06-02T12:47:42Z</time>
      </trkpt>
      <trkpt lat="42.93132" lon="0.15697">
        <ele>1982.86</ele>
        <time>2022-06-02T12:48:10Z</time>
      </trkpt>
      <trkpt lat="42.93133" lon="0.15704">
        <ele>1983.34</ele>
        <time>2022-06-02T12:48:29Z</time>
      </trkpt>
      <trkpt lat="42.93134" lon="0.15704">
        <ele>1982.86</ele>
        <time>2022-06-02T12:48:39Z</time>
      </trkpt>
      <trkpt lat="42.93132" lon="0.15701">
        <ele>1984.3</ele>
        <time>2022-06-02T12:48:49Z</time>
      </trkpt>
      <trkpt lat="42.93132" lon="0.15699">
        <ele>1984.3</ele>
        <time>2022-06-02T12:49:04Z</time>
      </trkpt>
      <trkpt lat="42.93131" lon="0.15704">
        <ele>1984.3</ele>
        <time>2022-06-02T12:49:24Z</time>
      </trkpt>
      <trkpt lat="42.93132" lon="0.15697">
        <ele>1983.82</ele>
        <time>2022-06-02T12:49:37Z</time>
      </trkpt>
      <trkpt lat="42.93132" lon="0.15697">
        <ele>1983.82</ele>
        <time>2022-06-02T12:49:49Z</time>
      </trkpt>
      <trkpt lat="42.9313" lon="0.157">
        <ele>1983.82</ele>
        <time>2022-06-02T12:50:12Z</time>
      </trkpt>
      <trkpt lat="42.93126" lon="0.15694">
        <ele>1984.3</ele>
        <time>2022-06-02T12:50:25Z</time>
      </trkpt>
      <trkpt lat="42.93122" lon="0.15685">
        <ele>1986.7</ele>
        <time>2022-06-02T12:50:39Z</time>
      </trkpt>
      <trkpt lat="42.93119" lon="0.15679">
        <ele>1987.18</ele>
        <time>2022-06-02T12:50:53Z</time>
      </trkpt>
      <trkpt lat="42.93112" lon="0.15674">
        <ele>1989.1</ele>
        <time>2022-06-02T12:51:05Z</time>
      </trkpt>
      <trkpt lat="42.93116" lon="0.1566">
        <ele>1990.07</ele>
        <time>2022-06-02T12:51:19Z</time>
      </trkpt>
      <trkpt lat="42.93111" lon="0.15661">
        <ele>1991.51</ele>
        <time>2022-06-02T12:51:32Z</time>
      </trkpt>
      <trkpt lat="42.93109" lon="0.15657">
        <ele>1993.91</ele>
        <time>2022-06-02T12:51:44Z</time>
      </trkpt>
      <trkpt lat="42.93109" lon="0.15642">
        <ele>1995.83</ele>
        <time>2022-06-02T12:51:58Z</time>
      </trkpt>
      <trkpt lat="42.93105" lon="0.1564">
        <ele>1998.24</ele>
        <time>2022-06-02T12:52:13Z</time>
      </trkpt>
      <trkpt lat="42.93097" lon="0.15643">
        <ele>1998.72</ele>
        <time>2022-06-02T12:52:25Z</time>
      </trkpt>
      <trkpt lat="42.93101" lon="0.15628">
        <ele>2000.16</ele>
        <time>2022-06-02T12:52:36Z</time>
      </trkpt>
      <trkpt lat="42.93106" lon="0.15615">
        <ele>2002.08</ele>
        <time>2022-06-02T12:52:50Z</time>
      </trkpt>
      <trkpt lat="42.93107" lon="0.15608">
        <ele>2003.04</ele>
        <time>2022-06-02T12:53:02Z</time>
      </trkpt>
      <trkpt lat="42.93104" lon="0.15601">
        <ele>2005.45</ele>
        <time>2022-06-02T12:53:16Z</time>
      </trkpt>
      <trkpt lat="42.93101" lon="0.15596">
        <ele>2007.37</ele>
        <time>2022-06-02T12:53:30Z</time>
      </trkpt>
      <trkpt lat="42.93094" lon="0.15598">
        <ele>2009.29</ele>
        <time>2022-06-02T12:53:42Z</time>
      </trkpt>
      <trkpt lat="42.93087" lon="0.15598">
        <ele>2011.7</ele>
        <time>2022-06-02T12:53:57Z</time>
      </trkpt>
      <trkpt lat="42.93079" lon="0.15604">
        <ele>2013.14</ele>
        <time>2022-06-02T12:54:12Z</time>
      </trkpt>
      <trkpt lat="42.93083" lon="0.15583">
        <ele>2014.58</ele>
        <time>2022-06-02T12:54:26Z</time>
      </trkpt>
      <trkpt lat="42.93086" lon="0.1557">
        <ele>2016.02</ele>
        <time>2022-06-02T12:54:40Z</time>
      </trkpt>
      <trkpt lat="42.93088" lon="0.15564">
        <ele>2016.5</ele>
        <time>2022-06-02T12:54:46Z</time>
      </trkpt>
      <trkpt lat="42.9309" lon="0.15552">
        <ele>2018.91</ele>
        <time>2022-06-02T12:55:01Z</time>
      </trkpt>
      <trkpt lat="42.93095" lon="0.15542">
        <ele>2020.83</ele>
        <time>2022-06-02T12:55:21Z</time>
      </trkpt>
      <trkpt lat="42.931" lon="0.15538">
        <ele>2021.79</ele>
        <time>2022-06-02T12:55:27Z</time>
      </trkpt>
      <trkpt lat="42.93104" lon="0.15532">
        <ele>2023.71</ele>
        <time>2022-06-02T12:55:39Z</time>
      </trkpt>
      <trkpt lat="42.93094" lon="0.15528">
        <ele>2025.15</ele>
        <time>2022-06-02T12:55:54Z</time>
      </trkpt>
      <trkpt lat="42.93085" lon="0.15523">
        <ele>2027.08</ele>
        <time>2022-06-02T12:56:08Z</time>
      </trkpt>
      <trkpt lat="42.93081" lon="0.15519">
        <ele>2028.52</ele>
        <time>2022-06-02T12:56:23Z</time>
      </trkpt>
      <trkpt lat="42.93072" lon="0.15512">
        <ele>2030.44</ele>
        <time>2022-06-02T12:56:39Z</time>
      </trkpt>
      <trkpt lat="42.93071" lon="0.15503">
        <ele>2032.36</ele>
        <time>2022-06-02T12:56:54Z</time>
      </trkpt>
      <trkpt lat="42.93074" lon="0.1549">
        <ele>2033.33</ele>
        <time>2022-06-02T12:57:06Z</time>
      </trkpt>
      <trkpt lat="42.93078" lon="0.1548">
        <ele>2035.25</ele>
        <time>2022-06-02T12:57:19Z</time>
      </trkpt>
      <trkpt lat="42.93083" lon="0.15473">
        <ele>2036.69</ele>
        <time>2022-06-02T12:57:29Z</time>
      </trkpt>
      <trkpt lat="42.93084" lon="0.15465">
        <ele>2038.61</ele>
        <time>2022-06-02T12:57:41Z</time>
      </trkpt>
      <trkpt lat="42.93076" lon="0.15456">
        <ele>2040.54</ele>
        <time>2022-06-02T12:57:54Z</time>
      </trkpt>
      <trkpt lat="42.9307" lon="0.15444">
        <ele>2041.98</ele>
        <time>2022-06-02T12:58:11Z</time>
      </trkpt>
      <trkpt lat="42.93073" lon="0.15429">
        <ele>2044.38</ele>
        <time>2022-06-02T12:58:26Z</time>
      </trkpt>
      <trkpt lat="42.93076" lon="0.15418">
        <ele>2045.82</ele>
        <time>2022-06-02T12:58:40Z</time>
      </trkpt>
      <trkpt lat="42.93079" lon="0.15406">
        <ele>2048.71</ele>
        <time>2022-06-02T12:58:57Z</time>
      </trkpt>
      <trkpt lat="42.93081" lon="0.15394">
        <ele>2051.11</ele>
        <time>2022-06-02T12:59:12Z</time>
      </trkpt>
      <trkpt lat="42.9308" lon="0.15382">
        <ele>2052.55</ele>
        <time>2022-06-02T12:59:24Z</time>
      </trkpt>
      <trkpt lat="42.9308" lon="0.15372">
        <ele>2054.47</ele>
        <time>2022-06-02T12:59:39Z</time>
      </trkpt>
      <trkpt lat="42.93076" lon="0.15362">
        <ele>2057.36</ele>
        <time>2022-06-02T12:59:53Z</time>
      </trkpt>
      <trkpt lat="42.93069" lon="0.15353">
        <ele>2059.28</ele>
        <time>2022-06-02T13:00:10Z</time>
      </trkpt>
      <trkpt lat="42.93061" lon="0.15352">
        <ele>2061.2</ele>
        <time>2022-06-02T13:00:27Z</time>
      </trkpt>
      <trkpt lat="42.93052" lon="0.15351">
        <ele>2063.61</ele>
        <time>2022-06-02T13:00:42Z</time>
      </trkpt>
      <trkpt lat="42.93044" lon="0.15347">
        <ele>2065.05</ele>
        <time>2022-06-02T13:00:57Z</time>
      </trkpt>
      <trkpt lat="42.93039" lon="0.15341">
        <ele>2066.49</ele>
        <time>2022-06-02T13:01:09Z</time>
      </trkpt>
      <trkpt lat="42.9304" lon="0.15328">
        <ele>2068.89</ele>
        <time>2022-06-02T13:01:24Z</time>
      </trkpt>
      <trkpt lat="42.93043" lon="0.15317">
        <ele>2070.34</ele>
        <time>2022-06-02T13:01:37Z</time>
      </trkpt>
      <trkpt lat="42.93046" lon="0.15305">
        <ele>2072.26</ele>
        <time>2022-06-02T13:01:50Z</time>
      </trkpt>
      <trkpt lat="42.93047" lon="0.15296">
        <ele>2074.18</ele>
        <time>2022-06-02T13:02:02Z</time>
      </trkpt>
      <trkpt lat="42.93048" lon="0.15286">
        <ele>2076.1</ele>
        <time>2022-06-02T13:02:20Z</time>
      </trkpt>
      <trkpt lat="42.93038" lon="0.15283">
        <ele>2078.51</ele>
        <time>2022-06-02T13:02:35Z</time>
      </trkpt>
      <trkpt lat="42.93032" lon="0.15273">
        <ele>2079.95</ele>
        <time>2022-06-02T13:02:51Z</time>
      </trkpt>
      <trkpt lat="42.93036" lon="0.15266">
        <ele>2080.43</ele>
        <time>2022-06-02T13:02:59Z</time>
      </trkpt>
      <trkpt lat="42.9304" lon="0.15259">
        <ele>2080.43</ele>
        <time>2022-06-02T13:03:06Z</time>
      </trkpt>
      <trkpt lat="42.93044" lon="0.15254">
        <ele>2081.87</ele>
        <time>2022-06-02T13:03:16Z</time>
      </trkpt>
      <trkpt lat="42.93047" lon="0.15251">
        <ele>2084.28</ele>
        <time>2022-06-02T13:03:23Z</time>
      </trkpt>
      <trkpt lat="42.93048" lon="0.1525">
        <ele>2085.72</ele>
        <time>2022-06-02T13:03:25Z</time>
      </trkpt>
      <trkpt lat="42.9305" lon="0.15248">
        <ele>2086.68</ele>
        <time>2022-06-02T13:03:29Z</time>
      </trkpt>
      <trkpt lat="42.93042" lon="0.15241">
        <ele>2088.6</ele>
        <time>2022-06-02T13:03:43Z</time>
      </trkpt>
      <trkpt lat="42.93034" lon="0.15236">
        <ele>2089.08</ele>
        <time>2022-06-02T13:03:58Z</time>
      </trkpt>
      <trkpt lat="42.93036" lon="0.1523">
        <ele>2090.52</ele>
        <time>2022-06-02T13:04:13Z</time>
      </trkpt>
      <trkpt lat="42.93039" lon="0.15221">
        <ele>2092.45</ele>
        <time>2022-06-02T13:04:26Z</time>
      </trkpt>
      <trkpt lat="42.93031" lon="0.1522">
        <ele>2094.85</ele>
        <time>2022-06-02T13:04:40Z</time>
      </trkpt>
      <trkpt lat="42.93029" lon="0.15223">
        <ele>2095.33</ele>
        <time>2022-06-02T13:04:57Z</time>
      </trkpt>
      <trkpt lat="42.93027" lon="0.15223">
        <ele>2096.77</ele>
        <time>2022-06-02T13:05:16Z</time>
      </trkpt>
      <trkpt lat="42.93029" lon="0.15218">
        <ele>2097.25</ele>
        <time>2022-06-02T13:05:29Z</time>
      </trkpt>
      <trkpt lat="42.9303" lon="0.15209">
        <ele>2099.18</ele>
        <time>2022-06-02T13:05:42Z</time>
      </trkpt>
      <trkpt lat="42.93032" lon="0.15203">
        <ele>2100.62</ele>
        <time>2022-06-02T13:05:53Z</time>
      </trkpt>
      <trkpt lat="42.93033" lon="0.15203">
        <ele>2100.62</ele>
        <time>2022-06-02T13:06:28Z</time>
      </trkpt>
      <trkpt lat="42.93029" lon="0.15203">
        <ele>2102.06</ele>
        <time>2022-06-02T13:06:47Z</time>
      </trkpt>
      <trkpt lat="42.93027" lon="0.15201">
        <ele>2103.5</ele>
        <time>2022-06-02T13:07:02Z</time>
      </trkpt>
      <trkpt lat="42.93029" lon="0.15193">
        <ele>2103.02</ele>
        <time>2022-06-02T13:07:19Z</time>
      </trkpt>
      <trkpt lat="42.93033" lon="0.15182">
        <ele>2106.87</ele>
        <time>2022-06-02T13:07:34Z</time>
      </trkpt>
      <trkpt lat="42.93038" lon="0.15178">
        <ele>2108.79</ele>
        <time>2022-06-02T13:07:50Z</time>
      </trkpt>
      <trkpt lat="42.93036" lon="0.1518">
        <ele>2109.27</ele>
        <time>2022-06-02T13:08:05Z</time>
      </trkpt>
      <trkpt lat="42.9303" lon="0.15177">
        <ele>2111.19</ele>
        <time>2022-06-02T13:08:21Z</time>
      </trkpt>
      <trkpt lat="42.93029" lon="0.15177">
        <ele>2111.19</ele>
        <time>2022-06-02T13:08:22Z</time>
      </trkpt>
      <trkpt lat="42.93028" lon="0.15172">
        <ele>2112.15</ele>
        <time>2022-06-02T13:08:37Z</time>
      </trkpt>
      <trkpt lat="42.93035" lon="0.15167">
        <ele>2113.6</ele>
        <time>2022-06-02T13:08:48Z</time>
      </trkpt>
      <trkpt lat="42.93033" lon="0.15159">
        <ele>2116.48</ele>
        <time>2022-06-02T13:09:02Z</time>
      </trkpt>
      <trkpt lat="42.93031" lon="0.15155">
        <ele>2117.92</ele>
        <time>2022-06-02T13:09:15Z</time>
      </trkpt>
      <trkpt lat="42.93027" lon="0.15147">
        <ele>2119.36</ele>
        <time>2022-06-02T13:09:29Z</time>
      </trkpt>
      <trkpt lat="42.93025" lon="0.15136">
        <ele>2121.77</ele>
        <time>2022-06-02T13:09:42Z</time>
      </trkpt>
      <trkpt lat="42.9302" lon="0.15126">
        <ele>2122.73</ele>
        <time>2022-06-02T13:09:56Z</time>
      </trkpt>
      <trkpt lat="42.93014" lon="0.15113">
        <ele>2125.13</ele>
        <time>2022-06-02T13:10:12Z</time>
      </trkpt>
      <trkpt lat="42.93014" lon="0.15102">
        <ele>2126.09</ele>
        <time>2022-06-02T13:10:26Z</time>
      </trkpt>
      <trkpt lat="42.93011" lon="0.15094">
        <ele>2127.53</ele>
        <time>2022-06-02T13:10:38Z</time>
      </trkpt>
      <trkpt lat="42.93008" lon="0.15087">
        <ele>2128.98</ele>
        <time>2022-06-02T13:10:54Z</time>
      </trkpt>
      <trkpt lat="42.93008" lon="0.15078">
        <ele>2131.38</ele>
        <time>2022-06-02T13:11:09Z</time>
      </trkpt>
      <trkpt lat="42.93001" lon="0.15069">
        <ele>2133.3</ele>
        <time>2022-06-02T13:11:24Z</time>
      </trkpt>
      <trkpt lat="42.92993" lon="0.15057">
        <ele>2136.19</ele>
        <time>2022-06-02T13:11:45Z</time>
      </trkpt>
      <trkpt lat="42.92988" lon="0.1504">
        <ele>2138.59</ele>
        <time>2022-06-02T13:12:02Z</time>
      </trkpt>
      <trkpt lat="42.92981" lon="0.1503">
        <ele>2141.95</ele>
        <time>2022-06-02T13:12:20Z</time>
      </trkpt>
      <trkpt lat="42.92974" lon="0.15019">
        <ele>2142.44</ele>
        <time>2022-06-02T13:12:37Z</time>
      </trkpt>
      <trkpt lat="42.9297" lon="0.15013">
        <ele>2143.4</ele>
        <time>2022-06-02T13:12:58Z</time>
      </trkpt>
      <trkpt lat="42.92967" lon="0.15011">
        <ele>2144.36</ele>
        <time>2022-06-02T13:13:17Z</time>
      </trkpt>
      <trkpt lat="42.9296" lon="0.15008">
        <ele>2147.24</ele>
        <time>2022-06-02T13:13:33Z</time>
      </trkpt>
      <trkpt lat="42.92966" lon="0.14991">
        <ele>2148.68</ele>
        <time>2022-06-02T13:13:48Z</time>
      </trkpt>
      <trkpt lat="42.92966" lon="0.14985">
        <ele>2150.13</ele>
        <time>2022-06-02T13:14:01Z</time>
      </trkpt>
      <trkpt lat="42.9296" lon="0.14976">
        <ele>2152.53</ele>
        <time>2022-06-02T13:14:19Z</time>
      </trkpt>
      <trkpt lat="42.9296" lon="0.14968">
        <ele>2155.89</ele>
        <time>2022-06-02T13:14:28Z</time>
      </trkpt>
      <trkpt lat="42.92963" lon="0.14956">
        <ele>2156.37</ele>
        <time>2022-06-02T13:14:40Z</time>
      </trkpt>
      <trkpt lat="42.92969" lon="0.1495">
        <ele>2154.93</ele>
        <time>2022-06-02T13:14:51Z</time>
      </trkpt>
      <trkpt lat="42.92974" lon="0.14938">
        <ele>2156.86</ele>
        <time>2022-06-02T13:15:05Z</time>
      </trkpt>
      <trkpt lat="42.92974" lon="0.14935">
        <ele>2157.34</ele>
        <time>2022-06-02T13:15:10Z</time>
      </trkpt>
      <trkpt lat="42.92976" lon="0.14924">
        <ele>2159.26</ele>
        <time>2022-06-02T13:15:23Z</time>
      </trkpt>
      <trkpt lat="42.92975" lon="0.14915">
        <ele>2161.18</ele>
        <time>2022-06-02T13:15:36Z</time>
      </trkpt>
      <trkpt lat="42.92976" lon="0.14913">
        <ele>2163.1</ele>
        <time>2022-06-02T13:15:55Z</time>
      </trkpt>
      <trkpt lat="42.92976" lon="0.14906">
        <ele>2164.06</ele>
        <time>2022-06-02T13:16:16Z</time>
      </trkpt>
      <trkpt lat="42.92976" lon="0.14903">
        <ele>2164.55</ele>
        <time>2022-06-02T13:16:33Z</time>
      </trkpt>
      <trkpt lat="42.92975" lon="0.14902">
        <ele>2165.99</ele>
        <time>2022-06-02T13:16:51Z</time>
      </trkpt>
      <trkpt lat="42.92972" lon="0.14889">
        <ele>2168.39</ele>
        <time>2022-06-02T13:17:09Z</time>
      </trkpt>
      <trkpt lat="42.92964" lon="0.14877">
        <ele>2170.31</ele>
        <time>2022-06-02T13:17:29Z</time>
      </trkpt>
      <trkpt lat="42.92959" lon="0.14865">
        <ele>2171.76</ele>
        <time>2022-06-02T13:17:43Z</time>
      </trkpt>
      <trkpt lat="42.92959" lon="0.14862">
        <ele>2172.24</ele>
        <time>2022-06-02T13:17:47Z</time>
      </trkpt>
      <trkpt lat="42.92962" lon="0.14852">
        <ele>2174.16</ele>
        <time>2022-06-02T13:18:00Z</time>
      </trkpt>
      <trkpt lat="42.92965" lon="0.14846">
        <ele>2175.6</ele>
        <time>2022-06-02T13:18:12Z</time>
      </trkpt>
      <trkpt lat="42.92965" lon="0.14837">
        <ele>2177.52</ele>
        <time>2022-06-02T13:18:28Z</time>
      </trkpt>
      <trkpt lat="42.92966" lon="0.14823">
        <ele>2179.93</ele>
        <time>2022-06-02T13:18:43Z</time>
      </trkpt>
      <trkpt lat="42.92974" lon="0.14809">
        <ele>2178.48</ele>
        <time>2022-06-02T13:18:37Z</time>
      </trkpt>
      <trkpt lat="42.92974" lon="0.14806">
        <ele>2181.37</ele>
        <time>2022-06-02T13:18:44Z</time>
      </trkpt>
      <trkpt lat="42.92972" lon="0.14798">
        <ele>2183.29</ele>
        <time>2022-06-02T13:19:01Z</time>
      </trkpt>
      <trkpt lat="42.92972" lon="0.14783">
        <ele>2183.77</ele>
        <time>2022-06-02T13:19:14Z</time>
      </trkpt>
      <trkpt lat="42.92972" lon="0.14777">
        <ele>2185.69</ele>
        <time>2022-06-02T13:19:21Z</time>
      </trkpt>
      <trkpt lat="42.92971" lon="0.14768">
        <ele>2185.69</ele>
        <time>2022-06-02T13:19:26Z</time>
      </trkpt>
      <trkpt lat="42.92971" lon="0.14756">
        <ele>2185.21</ele>
        <time>2022-06-02T13:19:34Z</time>
      </trkpt>
      <trkpt lat="42.92969" lon="0.14734">
        <ele>2187.14</ele>
        <time>2022-06-02T13:19:51Z</time>
      </trkpt>
      <trkpt lat="42.9297" lon="0.14718">
        <ele>2186.18</ele>
        <time>2022-06-02T13:20:04Z</time>
      </trkpt>
      <trkpt lat="42.92972" lon="0.14705">
        <ele>2187.62</ele>
        <time>2022-06-02T13:20:16Z</time>
      </trkpt>
      <trkpt lat="42.92968" lon="0.14691">
        <ele>2187.62</ele>
        <time>2022-06-02T13:20:32Z</time>
      </trkpt>
      <trkpt lat="42.92961" lon="0.14678">
        <ele>2190.02</ele>
        <time>2022-06-02T13:20:46Z</time>
      </trkpt>
      <trkpt lat="42.92958" lon="0.14668">
        <ele>2190.98</ele>
        <time>2022-06-02T13:21:00Z</time>
      </trkpt>
      <trkpt lat="42.92956" lon="0.14666">
        <ele>2191.94</ele>
        <time>2022-06-02T13:21:32Z</time>
      </trkpt>
      <trkpt lat="42.92953" lon="0.14663">
        <ele>2192.42</ele>
        <time>2022-06-02T13:21:55Z</time>
      </trkpt>
      <trkpt lat="42.9295" lon="0.14649">
        <ele>2194.35</ele>
        <time>2022-06-02T13:22:11Z</time>
      </trkpt>
      <trkpt lat="42.92948" lon="0.14635">
        <ele>2196.75</ele>
        <time>2022-06-02T13:22:26Z</time>
      </trkpt>
      <trkpt lat="42.92947" lon="0.14626">
        <ele>2197.23</ele>
        <time>2022-06-02T13:22:39Z</time>
      </trkpt>
      <trkpt lat="42.92945" lon="0.14612">
        <ele>2199.63</ele>
        <time>2022-06-02T13:22:53Z</time>
      </trkpt>
      <trkpt lat="42.92942" lon="0.14603">
        <ele>2201.08</ele>
        <time>2022-06-02T13:23:04Z</time>
      </trkpt>
      <trkpt lat="42.9294" lon="0.14593">
        <ele>2203</ele>
        <time>2022-06-02T13:23:23Z</time>
      </trkpt>
      <trkpt lat="42.92939" lon="0.14582">
        <ele>2203.96</ele>
        <time>2022-06-02T13:23:36Z</time>
      </trkpt>
      <trkpt lat="42.92938" lon="0.14571">
        <ele>2206.84</ele>
        <time>2022-06-02T13:23:53Z</time>
      </trkpt>
      <trkpt lat="42.92941" lon="0.14562">
        <ele>2208.77</ele>
        <time>2022-06-02T13:24:04Z</time>
      </trkpt>
      <trkpt lat="42.92942" lon="0.14547">
        <ele>2210.21</ele>
        <time>2022-06-02T13:24:19Z</time>
      </trkpt>
      <trkpt lat="42.92939" lon="0.14532">
        <ele>2210.21</ele>
        <time>2022-06-02T13:24:34Z</time>
      </trkpt>
      <trkpt lat="42.9294" lon="0.14517">
        <ele>2209.25</ele>
        <time>2022-06-02T13:24:48Z</time>
      </trkpt>
      <trkpt lat="42.9294" lon="0.14507">
        <ele>2211.65</ele>
        <time>2022-06-02T13:25:01Z</time>
      </trkpt>
      <trkpt lat="42.92938" lon="0.14496">
        <ele>2212.61</ele>
        <time>2022-06-02T13:25:11Z</time>
      </trkpt>
      <trkpt lat="42.92938" lon="0.14484">
        <ele>2214.05</ele>
        <time>2022-06-02T13:25:24Z</time>
      </trkpt>
      <trkpt lat="42.9294" lon="0.14484">
        <ele>2214.53</ele>
        <time>2022-06-02T13:25:46Z</time>
      </trkpt>
      <trkpt lat="42.92943" lon="0.14483">
        <ele>2213.57</ele>
        <time>2022-06-02T13:26:10Z</time>
      </trkpt>
      <trkpt lat="42.92939" lon="0.14475">
        <ele>2214.53</ele>
        <time>2022-06-02T13:26:28Z</time>
      </trkpt>
      <trkpt lat="42.92937" lon="0.14468">
        <ele>2215.5</ele>
        <time>2022-06-02T13:26:40Z</time>
      </trkpt>
      <trkpt lat="42.92938" lon="0.14459">
        <ele>2216.46</ele>
        <time>2022-06-02T13:26:53Z</time>
      </trkpt>
      <trkpt lat="42.92943" lon="0.14452">
        <ele>2219.82</ele>
        <time>2022-06-02T13:27:05Z</time>
      </trkpt>
      <trkpt lat="42.92944" lon="0.14441">
        <ele>2222.22</ele>
        <time>2022-06-02T13:27:19Z</time>
      </trkpt>
      <trkpt lat="42.92947" lon="0.14435">
        <ele>2225.59</ele>
        <time>2022-06-02T13:27:32Z</time>
      </trkpt>
      <trkpt lat="42.92942" lon="0.14432">
        <ele>2225.11</ele>
        <time>2022-06-02T13:27:58Z</time>
      </trkpt>
      <trkpt lat="42.9294" lon="0.14425">
        <ele>2225.59</ele>
        <time>2022-06-02T13:28:16Z</time>
      </trkpt>
      <trkpt lat="42.92937" lon="0.14416">
        <ele>2227.99</ele>
        <time>2022-06-02T13:28:31Z</time>
      </trkpt>
      <trkpt lat="42.92936" lon="0.1441">
        <ele>2230.88</ele>
        <time>2022-06-02T13:28:42Z</time>
      </trkpt>
      <trkpt lat="42.92946" lon="0.14406">
        <ele>2231.36</ele>
        <time>2022-06-02T13:28:54Z</time>
      </trkpt>
      <trkpt lat="42.92947" lon="0.14401">
        <ele>2231.36</ele>
        <time>2022-06-02T13:29:04Z</time>
      </trkpt>
      <trkpt lat="42.92941" lon="0.14391">
        <ele>2233.28</ele>
        <time>2022-06-02T13:29:16Z</time>
      </trkpt>
      <trkpt lat="42.92938" lon="0.14387">
        <ele>2234.72</ele>
        <time>2022-06-02T13:29:36Z</time>
      </trkpt>
      <trkpt lat="42.9294" lon="0.14382">
        <ele>2235.68</ele>
        <time>2022-06-02T13:30:00Z</time>
      </trkpt>
      <trkpt lat="42.92945" lon="0.14378">
        <ele>2238.09</ele>
        <time>2022-06-02T13:30:17Z</time>
      </trkpt>
      <trkpt lat="42.9294" lon="0.14366">
        <ele>2239.53</ele>
        <time>2022-06-02T13:30:29Z</time>
      </trkpt>
      <trkpt lat="42.92936" lon="0.14358">
        <ele>2242.41</ele>
        <time>2022-06-02T13:30:45Z</time>
      </trkpt>
      <trkpt lat="42.92932" lon="0.14352">
        <ele>2244.82</ele>
        <time>2022-06-02T13:31:00Z</time>
      </trkpt>
      <trkpt lat="42.92928" lon="0.14344">
        <ele>2245.78</ele>
        <time>2022-06-02T13:31:13Z</time>
      </trkpt>
      <trkpt lat="42.92926" lon="0.14341">
        <ele>2246.74</ele>
        <time>2022-06-02T13:31:28Z</time>
      </trkpt>
      <trkpt lat="42.92924" lon="0.14338">
        <ele>2248.66</ele>
        <time>2022-06-02T13:32:02Z</time>
      </trkpt>
      <trkpt lat="42.92928" lon="0.14337">
        <ele>2248.66</ele>
        <time>2022-06-02T13:32:14Z</time>
      </trkpt>
      <trkpt lat="42.92933" lon="0.14334">
        <ele>2246.74</ele>
        <time>2022-06-02T13:32:24Z</time>
      </trkpt>
      <trkpt lat="42.92938" lon="0.14332">
        <ele>2250.1</ele>
        <time>2022-06-02T13:32:33Z</time>
      </trkpt>
      <trkpt lat="42.92939" lon="0.14328">
        <ele>2252.03</ele>
        <time>2022-06-02T13:32:49Z</time>
      </trkpt>
      <trkpt lat="42.92933" lon="0.14321">
        <ele>2253.95</ele>
        <time>2022-06-02T13:33:06Z</time>
      </trkpt>
      <trkpt lat="42.92934" lon="0.14319">
        <ele>2254.91</ele>
        <time>2022-06-02T13:33:25Z</time>
      </trkpt>
      <trkpt lat="42.92938" lon="0.1432">
        <ele>2255.39</ele>
        <time>2022-06-02T13:33:43Z</time>
      </trkpt>
      <trkpt lat="42.92936" lon="0.14317">
        <ele>2258.27</ele>
        <time>2022-06-02T13:33:55Z</time>
      </trkpt>
      <trkpt lat="42.92932" lon="0.14315">
        <ele>2258.27</ele>
        <time>2022-06-02T13:34:21Z</time>
      </trkpt>
      <trkpt lat="42.92932" lon="0.14315">
        <ele>2258.75</ele>
        <time>2022-06-02T13:34:22Z</time>
      </trkpt>
      <trkpt lat="42.92933" lon="0.14311">
        <ele>2257.31</ele>
        <time>2022-06-02T13:34:35Z</time>
      </trkpt>
      <trkpt lat="42.92939" lon="0.14308">
        <ele>2259.24</ele>
        <time>2022-06-02T13:34:48Z</time>
      </trkpt>
      <trkpt lat="42.9294" lon="0.14306">
        <ele>2262.6</ele>
        <time>2022-06-02T13:35:02Z</time>
      </trkpt>
      <trkpt lat="42.92938" lon="0.14301">
        <ele>2264.04</ele>
        <time>2022-06-02T13:35:16Z</time>
      </trkpt>
      <trkpt lat="42.9294" lon="0.14297">
        <ele>2265</ele>
        <time>2022-06-02T13:35:33Z</time>
      </trkpt>
      <trkpt lat="42.92946" lon="0.14295">
        <ele>2266.45</ele>
        <time>2022-06-02T13:35:54Z</time>
      </trkpt>
      <trkpt lat="42.92947" lon="0.14297">
        <ele>2267.89</ele>
        <time>2022-06-02T13:36:05Z</time>
      </trkpt>
      <trkpt lat="42.92944" lon="0.1429">
        <ele>2269.33</ele>
        <time>2022-06-02T13:36:16Z</time>
      </trkpt>
      <trkpt lat="42.92941" lon="0.14284">
        <ele>2270.77</ele>
        <time>2022-06-02T13:36:36Z</time>
      </trkpt>
      <trkpt lat="42.92937" lon="0.14281">
        <ele>2271.25</ele>
        <time>2022-06-02T13:36:58Z</time>
      </trkpt>
      <trkpt lat="42.92942" lon="0.14285">
        <ele>2272.21</ele>
        <time>2022-06-02T13:37:10Z</time>
      </trkpt>
      <trkpt lat="42.92947" lon="0.14288">
        <ele>2271.25</ele>
        <time>2022-06-02T13:37:30Z</time>
      </trkpt>
      <trkpt lat="42.92947" lon="0.14286">
        <ele>2272.21</ele>
        <time>2022-06-02T13:37:44Z</time>
      </trkpt>
      <trkpt lat="42.92945" lon="0.14283">
        <ele>2272.69</ele>
        <time>2022-06-02T13:38:02Z</time>
      </trkpt>
      <trkpt lat="42.92945" lon="0.14282">
        <ele>2273.66</ele>
        <time>2022-06-02T13:38:18Z</time>
      </trkpt>
      <trkpt lat="42.92948" lon="0.14284">
        <ele>2274.62</ele>
        <time>2022-06-02T13:38:36Z</time>
      </trkpt>
      <trkpt lat="42.92947" lon="0.14279">
        <ele>2276.54</ele>
        <time>2022-06-02T13:38:52Z</time>
      </trkpt>
      <trkpt lat="42.92946" lon="0.14275">
        <ele>2277.5</ele>
        <time>2022-06-02T13:39:05Z</time>
      </trkpt>
      <trkpt lat="42.92944" lon="0.14273">
        <ele>2278.46</ele>
        <time>2022-06-02T13:39:18Z</time>
      </trkpt>
      <trkpt lat="42.92944" lon="0.14269">
        <ele>2278.94</ele>
        <time>2022-06-02T13:39:33Z</time>
      </trkpt>
      <trkpt lat="42.92946" lon="0.14273">
        <ele>2277.5</ele>
        <time>2022-06-02T13:39:51Z</time>
      </trkpt>
      <trkpt lat="42.92949" lon="0.14271">
        <ele>2279.42</ele>
        <time>2022-06-02T13:40:07Z</time>
      </trkpt>
      <trkpt lat="42.92951" lon="0.14269">
        <ele>2281.83</ele>
        <time>2022-06-02T13:40:21Z</time>
      </trkpt>
      <trkpt lat="42.92949" lon="0.14268">
        <ele>2282.31</ele>
        <time>2022-06-02T13:40:44Z</time>
      </trkpt>
      <trkpt lat="42.92947" lon="0.14266">
        <ele>2284.23</ele>
        <time>2022-06-02T13:40:59Z</time>
      </trkpt>
      <trkpt lat="42.92948" lon="0.14263">
        <ele>2283.75</ele>
        <time>2022-06-02T13:41:12Z</time>
      </trkpt>
      <trkpt lat="42.92949" lon="0.14264">
        <ele>2285.19</ele>
        <time>2022-06-02T13:41:15Z</time>
      </trkpt>
      <trkpt lat="42.92948" lon="0.14265">
        <ele>2281.83</ele>
        <time>2022-06-02T13:41:21Z</time>
      </trkpt>
      <trkpt lat="42.9295" lon="0.14263">
        <ele>2284.23</ele>
        <time>2022-06-02T13:41:35Z</time>
      </trkpt>
      <trkpt lat="42.92954" lon="0.1426">
        <ele>2286.63</ele>
        <time>2022-06-02T13:41:51Z</time>
      </trkpt>
      <trkpt lat="42.92954" lon="0.14261">
        <ele>2288.56</ele>
        <time>2022-06-02T13:42:06Z</time>
      </trkpt>
      <trkpt lat="42.92953" lon="0.14259">
        <ele>2288.08</ele>
        <time>2022-06-02T13:42:25Z</time>
      </trkpt>
      <trkpt lat="42.92953" lon="0.14256">
        <ele>2290.48</ele>
        <time>2022-06-02T13:42:38Z</time>
      </trkpt>
      <trkpt lat="42.92956" lon="0.14254">
        <ele>2290.48</ele>
        <time>2022-06-02T13:43:00Z</time>
      </trkpt>
      <trkpt lat="42.92957" lon="0.14255">
        <ele>2291.44</ele>
        <time>2022-06-02T13:43:21Z</time>
      </trkpt>
      <trkpt lat="42.9296" lon="0.14252">
        <ele>2292.4</ele>
        <time>2022-06-02T13:43:29Z</time>
      </trkpt>
      <trkpt lat="42.92962" lon="0.14253">
        <ele>2293.84</ele>
        <time>2022-06-02T13:43:44Z</time>
      </trkpt>
      <trkpt lat="42.92966" lon="0.14255">
        <ele>2295.28</ele>
        <time>2022-06-02T13:43:59Z</time>
      </trkpt>
      <trkpt lat="42.92965" lon="0.14252">
        <ele>2296.25</ele>
        <time>2022-06-02T13:44:12Z</time>
      </trkpt>
      <trkpt lat="42.9296" lon="0.14242">
        <ele>2296.73</ele>
        <time>2022-06-02T13:44:34Z</time>
      </trkpt>
      <trkpt lat="42.9296" lon="0.14239">
        <ele>2299.13</ele>
        <time>2022-06-02T13:44:48Z</time>
      </trkpt>
      <trkpt lat="42.92962" lon="0.14239">
        <ele>2299.13</ele>
        <time>2022-06-02T13:45:03Z</time>
      </trkpt>
      <trkpt lat="42.9297" lon="0.14241">
        <ele>2299.13</ele>
        <time>2022-06-02T13:45:19Z</time>
      </trkpt>
      <trkpt lat="42.92972" lon="0.14241">
        <ele>2299.61</ele>
        <time>2022-06-02T13:45:21Z</time>
      </trkpt>
      <trkpt lat="42.92975" lon="0.14241">
        <ele>2301.53</ele>
        <time>2022-06-02T13:45:25Z</time>
      </trkpt>
      <trkpt lat="42.92981" lon="0.14243">
        <ele>2301.53</ele>
        <time>2022-06-02T13:45:37Z</time>
      </trkpt>
      <trkpt lat="42.92977" lon="0.14235">
        <ele>2304.9</ele>
        <time>2022-06-02T13:45:48Z</time>
      </trkpt>
      <trkpt lat="42.92972" lon="0.14224">
        <ele>2305.86</ele>
        <time>2022-06-02T13:46:02Z</time>
      </trkpt>
      <trkpt lat="42.92971" lon="0.14222">
        <ele>2307.78</ele>
        <time>2022-06-02T13:46:23Z</time>
      </trkpt>
      <trkpt lat="42.92971" lon="0.14222">
        <ele>2304.42</ele>
        <time>2022-06-02T13:46:33Z</time>
      </trkpt>
      <trkpt lat="42.92971" lon="0.14221">
        <ele>2304.9</ele>
        <time>2022-06-02T13:46:34Z</time>
      </trkpt>
      <trkpt lat="42.92972" lon="0.14219">
        <ele>2307.3</ele>
        <time>2022-06-02T13:46:38Z</time>
      </trkpt>
      <trkpt lat="42.92979" lon="0.14219">
        <ele>2307.78</ele>
        <time>2022-06-02T13:46:58Z</time>
      </trkpt>
      <trkpt lat="42.92988" lon="0.14218">
        <ele>2307.78</ele>
        <time>2022-06-02T13:47:12Z</time>
      </trkpt>
      <trkpt lat="42.92997" lon="0.1422">
        <ele>2310.67</ele>
        <time>2022-06-02T13:47:26Z</time>
      </trkpt>
      <trkpt lat="42.92995" lon="0.14216">
        <ele>2312.11</ele>
        <time>2022-06-02T13:47:39Z</time>
      </trkpt>
      <trkpt lat="42.92992" lon="0.14218">
        <ele>2314.03</ele>
        <time>2022-06-02T13:48:03Z</time>
      </trkpt>
      <trkpt lat="42.92991" lon="0.14207">
        <ele>2315.95</ele>
        <time>2022-06-02T13:48:16Z</time>
      </trkpt>
      <trkpt lat="42.92987" lon="0.14198">
        <ele>2318.36</ele>
        <time>2022-06-02T13:48:31Z</time>
      </trkpt>
      <trkpt lat="42.92986" lon="0.14192">
        <ele>2319.8</ele>
        <time>2022-06-02T13:48:50Z</time>
      </trkpt>
      <trkpt lat="42.92992" lon="0.14189">
        <ele>2321.72</ele>
        <time>2022-06-02T13:49:04Z</time>
      </trkpt>
      <trkpt lat="42.92997" lon="0.1418">
        <ele>2323.16</ele>
        <time>2022-06-02T13:49:20Z</time>
      </trkpt>
      <trkpt lat="42.93003" lon="0.14171">
        <ele>2324.61</ele>
        <time>2022-06-02T13:49:35Z</time>
      </trkpt>
      <trkpt lat="42.93008" lon="0.14158">
        <ele>2325.09</ele>
        <time>2022-06-02T13:49:49Z</time>
      </trkpt>
      <trkpt lat="42.93011" lon="0.14155">
        <ele>2327.97</ele>
        <time>2022-06-02T13:49:53Z</time>
      </trkpt>
      <trkpt lat="42.9301" lon="0.14156">
        <ele>2329.89</ele>
        <time>2022-06-02T13:49:57Z</time>
      </trkpt>
      <trkpt lat="42.93013" lon="0.14155">
        <ele>2326.53</ele>
        <time>2022-06-02T13:50:05Z</time>
      </trkpt>
      <trkpt lat="42.93024" lon="0.14152">
        <ele>2327.49</ele>
        <time>2022-06-02T13:50:23Z</time>
      </trkpt>
      <trkpt lat="42.93029" lon="0.14151">
        <ele>2328.93</ele>
        <time>2022-06-02T13:50:33Z</time>
      </trkpt>
      <trkpt lat="42.93034" lon="0.14145">
        <ele>2331.81</ele>
        <time>2022-06-02T13:50:51Z</time>
      </trkpt>
      <trkpt lat="42.93038" lon="0.14136">
        <ele>2333.26</ele>
        <time>2022-06-02T13:51:04Z</time>
      </trkpt>
      <trkpt lat="42.93038" lon="0.14122">
        <ele>2333.74</ele>
        <time>2022-06-02T13:51:19Z</time>
      </trkpt>
      <trkpt lat="42.9304" lon="0.14121">
        <ele>2334.22</ele>
        <time>2022-06-02T13:51:35Z</time>
      </trkpt>
      <trkpt lat="42.93043" lon="0.14115">
        <ele>2336.14</ele>
        <time>2022-06-02T13:51:47Z</time>
      </trkpt>
      <trkpt lat="42.93044" lon="0.14108">
        <ele>2338.06</ele>
        <time>2022-06-02T13:52:00Z</time>
      </trkpt>
      <trkpt lat="42.93043" lon="0.14107">
        <ele>2337.1</ele>
        <time>2022-06-02T13:52:02Z</time>
      </trkpt>
      <trkpt lat="42.93045" lon="0.14101">
        <ele>2338.06</ele>
        <time>2022-06-02T13:52:10Z</time>
      </trkpt>
      <trkpt lat="42.93049" lon="0.14088">
        <ele>2339.51</ele>
        <time>2022-06-02T13:52:23Z</time>
      </trkpt>
      <trkpt lat="42.93052" lon="0.14078">
        <ele>2340.47</ele>
        <time>2022-06-02T13:52:36Z</time>
      </trkpt>
      <trkpt lat="42.93051" lon="0.14068">
        <ele>2344.31</ele>
        <time>2022-06-02T13:52:47Z</time>
      </trkpt>
      <trkpt lat="42.93051" lon="0.14064">
        <ele>2346.23</ele>
        <time>2022-06-02T13:53:06Z</time>
      </trkpt>
      <trkpt lat="42.93051" lon="0.14063">
        <ele>2346.72</ele>
        <time>2022-06-02T13:53:08Z</time>
      </trkpt>
      <trkpt lat="42.93052" lon="0.14062">
        <ele>2344.31</ele>
        <time>2022-06-02T13:53:10Z</time>
      </trkpt>
      <trkpt lat="42.93051" lon="0.14057">
        <ele>2344.31</ele>
        <time>2022-06-02T13:53:17Z</time>
      </trkpt>
      <trkpt lat="42.9305" lon="0.14042">
        <ele>2346.23</ele>
        <time>2022-06-02T13:53:32Z</time>
      </trkpt>
      <trkpt lat="42.93048" lon="0.14037">
        <ele>2347.2</ele>
        <time>2022-06-02T13:53:38Z</time>
      </trkpt>
      <trkpt lat="42.93045" lon="0.14029">
        <ele>2347.2</ele>
        <time>2022-06-02T13:53:48Z</time>
      </trkpt>
      <trkpt lat="42.93043" lon="0.14016">
        <ele>2351.04</ele>
        <time>2022-06-02T13:54:00Z</time>
      </trkpt>
      <trkpt lat="42.93042" lon="0.14015">
        <ele>2350.56</ele>
        <time>2022-06-02T13:54:01Z</time>
      </trkpt>
      <trkpt lat="42.93042" lon="0.14013">
        <ele>2349.6</ele>
        <time>2022-06-02T13:54:03Z</time>
      </trkpt>
      <trkpt lat="42.93041" lon="0.13999">
        <ele>2349.6</ele>
        <time>2022-06-02T13:54:18Z</time>
      </trkpt>
      <trkpt lat="42.93039" lon="0.13995">
        <ele>2349.6</ele>
        <time>2022-06-02T13:54:22Z</time>
      </trkpt>
      <trkpt lat="42.93036" lon="0.13986">
        <ele>2352.96</ele>
        <time>2022-06-02T13:54:30Z</time>
      </trkpt>
      <trkpt lat="42.93035" lon="0.13973">
        <ele>2352.96</ele>
        <time>2022-06-02T13:54:45Z</time>
      </trkpt>
      <trkpt lat="42.93035" lon="0.13961">
        <ele>2353.93</ele>
        <time>2022-06-02T13:55:01Z</time>
      </trkpt>
      <trkpt lat="42.93037" lon="0.13956">
        <ele>2355.37</ele>
        <time>2022-06-02T13:55:18Z</time>
      </trkpt>
      <trkpt lat="42.93038" lon="0.13952">
        <ele>2355.37</ele>
        <time>2022-06-02T13:55:38Z</time>
      </trkpt>
      <trkpt lat="42.93044" lon="0.13942">
        <ele>2358.73</ele>
        <time>2022-06-02T13:55:51Z</time>
      </trkpt>
      <trkpt lat="42.93044" lon="0.13933">
        <ele>2359.69</ele>
        <time>2022-06-02T13:56:03Z</time>
      </trkpt>
      <trkpt lat="42.93044" lon="0.13925">
        <ele>2363.06</ele>
        <time>2022-06-02T13:56:17Z</time>
      </trkpt>
      <trkpt lat="42.93045" lon="0.13924">
        <ele>2363.06</ele>
        <time>2022-06-02T13:56:18Z</time>
      </trkpt>
      <trkpt lat="42.93045" lon="0.13918">
        <ele>2366.42</ele>
        <time>2022-06-02T13:56:28Z</time>
      </trkpt>
      <trkpt lat="42.93042" lon="0.1391">
        <ele>2369.79</ele>
        <time>2022-06-02T13:56:38Z</time>
      </trkpt>
      <trkpt lat="42.93042" lon="0.13908">
        <ele>2369.79</ele>
        <time>2022-06-02T13:56:40Z</time>
      </trkpt>
      <trkpt lat="42.93043" lon="0.13902">
        <ele>2372.67</ele>
        <time>2022-06-02T13:56:47Z</time>
      </trkpt>
      <trkpt lat="42.9304" lon="0.13893">
        <ele>2374.11</ele>
        <time>2022-06-02T13:56:57Z</time>
      </trkpt>
      <trkpt lat="42.9304" lon="0.13888">
        <ele>2373.63</ele>
        <time>2022-06-02T13:57:02Z</time>
      </trkpt>
      <trkpt lat="42.93035" lon="0.13874">
        <ele>2375.07</ele>
        <time>2022-06-02T13:57:17Z</time>
      </trkpt>
      <trkpt lat="42.93037" lon="0.13862">
        <ele>2376.04</ele>
        <time>2022-06-02T13:57:33Z</time>
      </trkpt>
      <trkpt lat="42.93039" lon="0.13865">
        <ele>2375.55</ele>
        <time>2022-06-02T13:57:52Z</time>
      </trkpt>
      <trkpt lat="42.93041" lon="0.13864">
        <ele>2371.71</ele>
        <time>2022-06-02T13:57:58Z</time>
      </trkpt>
      <trkpt lat="42.93042" lon="0.13862">
        <ele>2373.63</ele>
        <time>2022-06-02T13:58:22Z</time>
      </trkpt>
      <trkpt lat="42.93038" lon="0.13865">
        <ele>2374.11</ele>
        <time>2022-06-02T13:58:54Z</time>
      </trkpt>
      <trkpt lat="42.93035" lon="0.13861">
        <ele>2374.59</ele>
        <time>2022-06-02T13:59:27Z</time>
      </trkpt>
      <trkpt lat="42.93033" lon="0.13861">
        <ele>2372.67</ele>
        <time>2022-06-02T13:59:59Z</time>
      </trkpt>
      <trkpt lat="42.93038" lon="0.13865">
        <ele>2372.19</ele>
        <time>2022-06-02T14:00:33Z</time>
      </trkpt>
      <trkpt lat="42.93041" lon="0.13863">
        <ele>2371.71</ele>
        <time>2022-06-02T14:00:57Z</time>
      </trkpt>
      <trkpt lat="42.93041" lon="0.13862">
        <ele>2371.23</ele>
        <time>2022-06-02T14:01:18Z</time>
      </trkpt>
      <trkpt lat="42.9304" lon="0.13863">
        <ele>2373.63</ele>
        <time>2022-06-02T14:01:54Z</time>
      </trkpt>
      <trkpt lat="42.93041" lon="0.13864">
        <ele>2376.52</ele>
        <time>2022-06-02T14:02:08Z</time>
      </trkpt>
      <trkpt lat="42.93038" lon="0.13865">
        <ele>2376.04</ele>
        <time>2022-06-02T14:02:26Z</time>
      </trkpt>
      <trkpt lat="42.93038" lon="0.13865">
        <ele>2377</ele>
        <time>2022-06-02T14:02:38Z</time>
      </trkpt>
      <trkpt lat="42.93035" lon="0.13862">
        <ele>2377.48</ele>
        <time>2022-06-02T14:02:49Z</time>
      </trkpt>
      <trkpt lat="42.93034" lon="0.13863">
        <ele>2376.04</ele>
        <time>2022-06-02T14:02:57Z</time>
      </trkpt>
      <trkpt lat="42.93034" lon="0.13866">
        <ele>2377.96</ele>
        <time>2022-06-02T14:03:21Z</time>
      </trkpt>
      <trkpt lat="42.93033" lon="0.13866">
        <ele>2380.36</ele>
        <time>2022-06-02T14:03:36Z</time>
      </trkpt>
      <trkpt lat="42.93033" lon="0.13865">
        <ele>2378.44</ele>
        <time>2022-06-02T14:03:41Z</time>
      </trkpt>
      <trkpt lat="42.93034" lon="0.1386">
        <ele>2379.88</ele>
        <time>2022-06-02T14:03:55Z</time>
      </trkpt>
      <trkpt lat="42.93034" lon="0.13862">
        <ele>2376.04</ele>
        <time>2022-06-02T14:03:57Z</time>
      </trkpt>
      <trkpt lat="42.93034" lon="0.13862">
        <ele>2379.4</ele>
        <time>2022-06-02T14:04:00Z</time>
      </trkpt>
      <trkpt lat="42.93034" lon="0.13858">
        <ele>2380.36</ele>
        <time>2022-06-02T14:04:08Z</time>
      </trkpt>
      <trkpt lat="42.93034" lon="0.13858">
        <ele>2376.52</ele>
        <time>2022-06-02T14:04:10Z</time>
      </trkpt>
      <trkpt lat="42.93033" lon="0.13858">
        <ele>2371.71</ele>
        <time>2022-06-02T14:04:18Z</time>
      </trkpt>
      <trkpt lat="42.93033" lon="0.13857">
        <ele>2374.59</ele>
        <time>2022-06-02T14:04:24Z</time>
      </trkpt>
      <trkpt lat="42.93035" lon="0.13856">
        <ele>2373.15</ele>
        <time>2022-06-02T14:04:42Z</time>
      </trkpt>
      <trkpt lat="42.93034" lon="0.13854">
        <ele>2379.4</ele>
        <time>2022-06-02T14:04:44Z</time>
      </trkpt>
      <trkpt lat="42.93031" lon="0.13848">
        <ele>2376.52</ele>
        <time>2022-06-02T14:04:48Z</time>
      </trkpt>
      <trkpt lat="42.93034" lon="0.13852">
        <ele>2374.59</ele>
        <time>2022-06-02T14:04:56Z</time>
      </trkpt>
      <trkpt lat="42.93033" lon="0.13851">
        <ele>2375.55</ele>
        <time>2022-06-02T14:04:58Z</time>
      </trkpt>
      <trkpt lat="42.9303" lon="0.13844">
        <ele>2370.75</ele>
        <time>2022-06-02T14:05:02Z</time>
      </trkpt>
      <trkpt lat="42.93029" lon="0.13843">
        <ele>2368.83</ele>
        <time>2022-06-02T14:05:05Z</time>
      </trkpt>
      <trkpt lat="42.93029" lon="0.13843">
        <ele>2372.19</ele>
        <time>2022-06-02T14:05:08Z</time>
      </trkpt>
      <trkpt lat="42.93029" lon="0.13843">
        <ele>2372.19</ele>
        <time>2022-06-02T14:05:09Z</time>
      </trkpt>
      <trkpt lat="42.93028" lon="0.13845">
        <ele>2370.27</ele>
        <time>2022-06-02T14:05:18Z</time>
      </trkpt>
      <trkpt lat="42.93017" lon="0.13837">
        <ele>2366.42</ele>
        <time>2022-06-02T14:05:30Z</time>
      </trkpt>
      <trkpt lat="42.93011" lon="0.13835">
        <ele>2364.5</ele>
        <time>2022-06-02T14:05:33Z</time>
      </trkpt>
      <trkpt lat="42.92996" lon="0.13832">
        <ele>2362.1</ele>
        <time>2022-06-02T14:05:39Z</time>
      </trkpt>
      <trkpt lat="42.92978" lon="0.13833">
        <ele>2360.65</ele>
        <time>2022-06-02T14:05:51Z</time>
      </trkpt>
      <trkpt lat="42.92962" lon="0.13833">
        <ele>2357.77</ele>
        <time>2022-06-02T14:06:01Z</time>
      </trkpt>
      <trkpt lat="42.92949" lon="0.13842">
        <ele>2354.41</ele>
        <time>2022-06-02T14:06:14Z</time>
      </trkpt>
      <trkpt lat="42.92935" lon="0.13848">
        <ele>2354.89</ele>
        <time>2022-06-02T14:06:27Z</time>
      </trkpt>
      <trkpt lat="42.92927" lon="0.13849">
        <ele>2355.37</ele>
        <time>2022-06-02T14:06:31Z</time>
      </trkpt>
      <trkpt lat="42.9292" lon="0.13849">
        <ele>2352.48</ele>
        <time>2022-06-02T14:06:35Z</time>
      </trkpt>
      <trkpt lat="42.92904" lon="0.13844">
        <ele>2352</ele>
        <time>2022-06-02T14:06:45Z</time>
      </trkpt>
      <trkpt lat="42.92895" lon="0.13849">
        <ele>2352</ele>
        <time>2022-06-02T14:06:56Z</time>
      </trkpt>
      <trkpt lat="42.92889" lon="0.13858">
        <ele>2352</ele>
        <time>2022-06-02T14:07:08Z</time>
      </trkpt>
      <trkpt lat="42.9286" lon="0.13854">
        <ele>2350.56</ele>
        <time>2022-06-02T14:07:22Z</time>
      </trkpt>
      <trkpt lat="42.92841" lon="0.13845">
        <ele>2349.6</ele>
        <time>2022-06-02T14:07:33Z</time>
      </trkpt>
      <trkpt lat="42.92825" lon="0.13834">
        <ele>2348.16</ele>
        <time>2022-06-02T14:07:43Z</time>
      </trkpt>
      <trkpt lat="42.92816" lon="0.13826">
        <ele>2345.75</ele>
        <time>2022-06-02T14:07:49Z</time>
      </trkpt>
      <trkpt lat="42.92811" lon="0.13826">
        <ele>2345.75</ele>
        <time>2022-06-02T14:08:03Z</time>
      </trkpt>
      <trkpt lat="42.92806" lon="0.13819">
        <ele>2346.23</ele>
        <time>2022-06-02T14:08:16Z</time>
      </trkpt>
      <trkpt lat="42.92782" lon="0.13804">
        <ele>2342.87</ele>
        <time>2022-06-02T14:08:28Z</time>
      </trkpt>
      <trkpt lat="42.9278" lon="0.13808">
        <ele>2342.39</ele>
        <time>2022-06-02T14:08:40Z</time>
      </trkpt>
      <trkpt lat="42.92776" lon="0.13803">
        <ele>2341.91</ele>
        <time>2022-06-02T14:08:54Z</time>
      </trkpt>
      <trkpt lat="42.92761" lon="0.13795">
        <ele>2338.54</ele>
        <time>2022-06-02T14:09:03Z</time>
      </trkpt>
      <trkpt lat="42.92758" lon="0.13794">
        <ele>2338.06</ele>
        <time>2022-06-02T14:09:05Z</time>
      </trkpt>
      <trkpt lat="42.92736" lon="0.13788">
        <ele>2338.54</ele>
        <time>2022-06-02T14:09:19Z</time>
      </trkpt>
      <trkpt lat="42.92731" lon="0.13786">
        <ele>2337.1</ele>
        <time>2022-06-02T14:09:22Z</time>
      </trkpt>
      <trkpt lat="42.92717" lon="0.13783">
        <ele>2337.1</ele>
        <time>2022-06-02T14:09:37Z</time>
      </trkpt>
      <trkpt lat="42.92715" lon="0.13783">
        <ele>2337.1</ele>
        <time>2022-06-02T14:09:40Z</time>
      </trkpt>
      <trkpt lat="42.92713" lon="0.13782">
        <ele>2336.14</ele>
        <time>2022-06-02T14:09:44Z</time>
      </trkpt>
      <trkpt lat="42.92698" lon="0.13776">
        <ele>2335.18</ele>
        <time>2022-06-02T14:09:57Z</time>
      </trkpt>
      <trkpt lat="42.92693" lon="0.13775">
        <ele>2335.18</ele>
        <time>2022-06-02T14:10:13Z</time>
      </trkpt>
      <trkpt lat="42.9269" lon="0.13772">
        <ele>2334.7</ele>
        <time>2022-06-02T14:10:40Z</time>
      </trkpt>
      <trkpt lat="42.92676" lon="0.13773">
        <ele>2332.3</ele>
        <time>2022-06-02T14:10:54Z</time>
      </trkpt>
      <trkpt lat="42.92675" lon="0.13776">
        <ele>2331.33</ele>
        <time>2022-06-02T14:10:59Z</time>
      </trkpt>
      <trkpt lat="42.92653" lon="0.13775">
        <ele>2327.49</ele>
        <time>2022-06-02T14:11:11Z</time>
      </trkpt>
      <trkpt lat="42.92651" lon="0.13774">
        <ele>2327.97</ele>
        <time>2022-06-02T14:11:12Z</time>
      </trkpt>
      <trkpt lat="42.92624" lon="0.13763">
        <ele>2327.49</ele>
        <time>2022-06-02T14:11:26Z</time>
      </trkpt>
      <trkpt lat="42.92597" lon="0.13748">
        <ele>2324.61</ele>
        <time>2022-06-02T14:11:39Z</time>
      </trkpt>
      <trkpt lat="42.92593" lon="0.13748">
        <ele>2327.01</ele>
        <time>2022-06-02T14:11:57Z</time>
      </trkpt>
      <trkpt lat="42.92586" lon="0.13745">
        <ele>2328.45</ele>
        <time>2022-06-02T14:12:10Z</time>
      </trkpt>
      <trkpt lat="42.92575" lon="0.13738">
        <ele>2327.97</ele>
        <time>2022-06-02T14:12:23Z</time>
      </trkpt>
      <trkpt lat="42.92555" lon="0.13721">
        <ele>2325.09</ele>
        <time>2022-06-02T14:12:37Z</time>
      </trkpt>
      <trkpt lat="42.92552" lon="0.13717">
        <ele>2323.16</ele>
        <time>2022-06-02T14:12:41Z</time>
      </trkpt>
      <trkpt lat="42.92549" lon="0.13715">
        <ele>2322.2</ele>
        <time>2022-06-02T14:12:44Z</time>
      </trkpt>
      <trkpt lat="42.92543" lon="0.13712">
        <ele>2323.16</ele>
        <time>2022-06-02T14:12:48Z</time>
      </trkpt>
      <trkpt lat="42.92508" lon="0.13691">
        <ele>2320.28</ele>
        <time>2022-06-02T14:13:06Z</time>
      </trkpt>
      <trkpt lat="42.92493" lon="0.13675">
        <ele>2316.91</ele>
        <time>2022-06-02T14:13:15Z</time>
      </trkpt>
      <trkpt lat="42.92495" lon="0.13676">
        <ele>2318.36</ele>
        <time>2022-06-02T14:13:38Z</time>
      </trkpt>
      <trkpt lat="42.92493" lon="0.13681">
        <ele>2318.84</ele>
        <time>2022-06-02T14:13:55Z</time>
      </trkpt>
      <trkpt lat="42.92494" lon="0.13666">
        <ele>2314.99</ele>
        <time>2022-06-02T14:14:00Z</time>
      </trkpt>
      <trkpt lat="42.92497" lon="0.13661">
        <ele>2311.15</ele>
        <time>2022-06-02T14:14:02Z</time>
      </trkpt>
      <trkpt lat="42.92497" lon="0.13649">
        <ele>2305.86</ele>
        <time>2022-06-02T14:14:04Z</time>
      </trkpt>
      <trkpt lat="42.92501" lon="0.13644">
        <ele>2301.53</ele>
        <time>2022-06-02T14:14:06Z</time>
      </trkpt>
      <trkpt lat="42.92502" lon="0.1364">
        <ele>2298.65</ele>
        <time>2022-06-02T14:14:07Z</time>
      </trkpt>
      <trkpt lat="42.92501" lon="0.13636">
        <ele>2294.32</ele>
        <time>2022-06-02T14:14:08Z</time>
      </trkpt>
      <trkpt lat="42.92504" lon="0.13625">
        <ele>2291.44</ele>
        <time>2022-06-02T14:14:10Z</time>
      </trkpt>
      <trkpt lat="42.92505" lon="0.13622">
        <ele>2287.11</ele>
        <time>2022-06-02T14:14:11Z</time>
      </trkpt>
      <trkpt lat="42.92507" lon="0.13617">
        <ele>2285.67</ele>
        <time>2022-06-02T14:14:12Z</time>
      </trkpt>
      <trkpt lat="42.92509" lon="0.13613">
        <ele>2281.83</ele>
        <time>2022-06-02T14:14:13Z</time>
      </trkpt>
      <trkpt lat="42.92509" lon="0.13596">
        <ele>2276.54</ele>
        <time>2022-06-02T14:14:15Z</time>
      </trkpt>
      <trkpt lat="42.92508" lon="0.13583">
        <ele>2272.69</ele>
        <time>2022-06-02T14:14:17Z</time>
      </trkpt>
      <trkpt lat="42.92503" lon="0.13574">
        <ele>2272.69</ele>
        <time>2022-06-02T14:14:18Z</time>
      </trkpt>
      <trkpt lat="42.92489" lon="0.13553">
        <ele>2268.37</ele>
        <time>2022-06-02T14:14:21Z</time>
      </trkpt>
      <trkpt lat="42.92466" lon="0.1353">
        <ele>2263.08</ele>
        <time>2022-06-02T14:14:26Z</time>
      </trkpt>
      <trkpt lat="42.92462" lon="0.13518">
        <ele>2256.35</ele>
        <time>2022-06-02T14:14:30Z</time>
      </trkpt>
      <trkpt lat="42.92488" lon="0.13532">
        <ele>2255.39</ele>
        <time>2022-06-02T14:14:42Z</time>
      </trkpt>
      <trkpt lat="42.92497" lon="0.13538">
        <ele>2255.39</ele>
        <time>2022-06-02T14:14:58Z</time>
      </trkpt>
      <trkpt lat="42.92504" lon="0.13537">
        <ele>2255.39</ele>
        <time>2022-06-02T14:15:17Z</time>
      </trkpt>
      <trkpt lat="42.92502" lon="0.13535">
        <ele>2255.87</ele>
        <time>2022-06-02T14:15:34Z</time>
      </trkpt>
      <trkpt lat="42.92498" lon="0.13537">
        <ele>2254.91</ele>
        <time>2022-06-02T14:15:48Z</time>
      </trkpt>
      <trkpt lat="42.92486" lon="0.13518">
        <ele>2252.03</ele>
        <time>2022-06-02T14:15:53Z</time>
      </trkpt>
      <trkpt lat="42.92471" lon="0.13496">
        <ele>2248.66</ele>
        <time>2022-06-02T14:15:57Z</time>
      </trkpt>
      <trkpt lat="42.92464" lon="0.13487">
        <ele>2245.3</ele>
        <time>2022-06-02T14:15:59Z</time>
      </trkpt>
      <trkpt lat="42.92454" lon="0.13477">
        <ele>2241.93</ele>
        <time>2022-06-02T14:16:02Z</time>
      </trkpt>
      <trkpt lat="42.92451" lon="0.13474">
        <ele>2240.97</ele>
        <time>2022-06-02T14:16:03Z</time>
      </trkpt>
      <trkpt lat="42.92436" lon="0.1346">
        <ele>2237.13</ele>
        <time>2022-06-02T14:16:07Z</time>
      </trkpt>
      <trkpt lat="42.92429" lon="0.13452">
        <ele>2235.68</ele>
        <time>2022-06-02T14:16:09Z</time>
      </trkpt>
      <trkpt lat="42.92423" lon="0.13436">
        <ele>2230.88</ele>
        <time>2022-06-02T14:16:13Z</time>
      </trkpt>
      <trkpt lat="42.92427" lon="0.13437">
        <ele>2229.92</ele>
        <time>2022-06-02T14:16:15Z</time>
      </trkpt>
      <trkpt lat="42.92443" lon="0.13416">
        <ele>2227.03</ele>
        <time>2022-06-02T14:16:22Z</time>
      </trkpt>
      <trkpt lat="42.92441" lon="0.13412">
        <ele>2227.51</ele>
        <time>2022-06-02T14:16:23Z</time>
      </trkpt>
      <trkpt lat="42.92434" lon="0.13402">
        <ele>2225.59</ele>
        <time>2022-06-02T14:16:26Z</time>
      </trkpt>
      <trkpt lat="42.92423" lon="0.1339">
        <ele>2223.19</ele>
        <time>2022-06-02T14:16:30Z</time>
      </trkpt>
      <trkpt lat="42.9241" lon="0.13375">
        <ele>2221.74</ele>
        <time>2022-06-02T14:16:35Z</time>
      </trkpt>
      <trkpt lat="42.92378" lon="0.13345">
        <ele>2217.9</ele>
        <time>2022-06-02T14:16:50Z</time>
      </trkpt>
      <trkpt lat="42.92364" lon="0.13331">
        <ele>2215.98</ele>
        <time>2022-06-02T14:16:58Z</time>
      </trkpt>
      <trkpt lat="42.92364" lon="0.13327">
        <ele>2216.94</ele>
        <time>2022-06-02T14:17:08Z</time>
      </trkpt>
      <trkpt lat="42.92364" lon="0.13327">
        <ele>2216.94</ele>
        <time>2022-06-02T14:17:25Z</time>
      </trkpt>
      <trkpt lat="42.92365" lon="0.13329">
        <ele>2216.46</ele>
        <time>2022-06-02T14:17:46Z</time>
      </trkpt>
      <trkpt lat="42.92365" lon="0.13329">
        <ele>2216.94</ele>
        <time>2022-06-02T14:17:58Z</time>
      </trkpt>
      <trkpt lat="42.92366" lon="0.13333">
        <ele>2216.94</ele>
        <time>2022-06-02T14:18:16Z</time>
      </trkpt>
      <trkpt lat="42.92369" lon="0.13331">
        <ele>2214.53</ele>
        <time>2022-06-02T14:18:50Z</time>
      </trkpt>
      <trkpt lat="42.92369" lon="0.13331">
        <ele>2215.01</ele>
        <time>2022-06-02T14:19:18Z</time>
      </trkpt>
      <trkpt lat="42.92368" lon="0.13332">
        <ele>2214.05</ele>
        <time>2022-06-02T14:19:47Z</time>
      </trkpt>
      <trkpt lat="42.92368" lon="0.13331">
        <ele>2214.53</ele>
        <time>2022-06-02T14:20:23Z</time>
      </trkpt>
      <trkpt lat="42.92368" lon="0.13331">
        <ele>2215.01</ele>
        <time>2022-06-02T14:20:55Z</time>
      </trkpt>
      <trkpt lat="42.92368" lon="0.1333">
        <ele>2214.53</ele>
        <time>2022-06-02T14:21:26Z</time>
      </trkpt>
      <trkpt lat="42.92368" lon="0.13331">
        <ele>2215.5</ele>
        <time>2022-06-02T14:21:59Z</time>
      </trkpt>
      <trkpt lat="42.92368" lon="0.13332">
        <ele>2214.05</ele>
        <time>2022-06-02T14:22:34Z</time>
      </trkpt>
      <trkpt lat="42.92368" lon="0.13332">
        <ele>2213.57</ele>
        <time>2022-06-02T14:23:13Z</time>
      </trkpt>
      <trkpt lat="42.92368" lon="0.13331">
        <ele>2214.05</ele>
        <time>2022-06-02T14:23:52Z</time>
      </trkpt>
      <trkpt lat="42.92368" lon="0.13332">
        <ele>2215.01</ele>
        <time>2022-06-02T14:24:33Z</time>
      </trkpt>
      <trkpt lat="42.92368" lon="0.13334">
        <ele>2214.53</ele>
        <time>2022-06-02T14:24:59Z</time>
      </trkpt>
      <trkpt lat="42.92367" lon="0.13334">
        <ele>2214.53</ele>
        <time>2022-06-02T14:25:36Z</time>
      </trkpt>
      <trkpt lat="42.92366" lon="0.13332">
        <ele>2215.5</ele>
        <time>2022-06-02T14:26:05Z</time>
      </trkpt>
      <trkpt lat="42.9237" lon="0.13332">
        <ele>2214.53</ele>
        <time>2022-06-02T14:26:47Z</time>
      </trkpt>
      <trkpt lat="42.92367" lon="0.13331">
        <ele>2214.53</ele>
        <time>2022-06-02T14:27:14Z</time>
      </trkpt>
      <trkpt lat="42.92366" lon="0.13331">
        <ele>2215.01</ele>
        <time>2022-06-02T14:27:35Z</time>
      </trkpt>
      <trkpt lat="42.92368" lon="0.1333">
        <ele>2215.5</ele>
        <time>2022-06-02T14:28:03Z</time>
      </trkpt>
      <trkpt lat="42.92367" lon="0.1333">
        <ele>2215.98</ele>
        <time>2022-06-02T14:28:36Z</time>
      </trkpt>
      <trkpt lat="42.92366" lon="0.13332">
        <ele>2215.01</ele>
        <time>2022-06-02T14:29:00Z</time>
      </trkpt>
      <trkpt lat="42.92367" lon="0.13331">
        <ele>2215.5</ele>
        <time>2022-06-02T14:29:10Z</time>
      </trkpt>
      <trkpt lat="42.92369" lon="0.13334">
        <ele>2215.01</ele>
        <time>2022-06-02T14:29:38Z</time>
      </trkpt>
      <trkpt lat="42.92367" lon="0.13331">
        <ele>2216.94</ele>
        <time>2022-06-02T14:29:49Z</time>
      </trkpt>
      <trkpt lat="42.92366" lon="0.13328">
        <ele>2216.46</ele>
        <time>2022-06-02T14:30:08Z</time>
      </trkpt>
      <trkpt lat="42.92366" lon="0.13326">
        <ele>2217.42</ele>
        <time>2022-06-02T14:30:15Z</time>
      </trkpt>
      <trkpt lat="42.92365" lon="0.13324">
        <ele>2216.94</ele>
        <time>2022-06-02T14:30:21Z</time>
      </trkpt>
      <trkpt lat="42.92358" lon="0.13317">
        <ele>2215.01</ele>
        <time>2022-06-02T14:30:28Z</time>
      </trkpt>
      <trkpt lat="42.92356" lon="0.13315">
        <ele>2215.5</ele>
        <time>2022-06-02T14:30:30Z</time>
      </trkpt>
      <trkpt lat="42.92353" lon="0.13316">
        <ele>2215.5</ele>
        <time>2022-06-02T14:30:33Z</time>
      </trkpt>
      <trkpt lat="42.92338" lon="0.13309">
        <ele>2213.57</ele>
        <time>2022-06-02T14:30:49Z</time>
      </trkpt>
      <trkpt lat="42.92325" lon="0.13302">
        <ele>2214.53</ele>
        <time>2022-06-02T14:31:04Z</time>
      </trkpt>
      <trkpt lat="42.92312" lon="0.13298">
        <ele>2211.17</ele>
        <time>2022-06-02T14:31:18Z</time>
      </trkpt>
      <trkpt lat="42.92307" lon="0.13293">
        <ele>2212.13</ele>
        <time>2022-06-02T14:31:24Z</time>
      </trkpt>
      <trkpt lat="42.92297" lon="0.13291">
        <ele>2210.21</ele>
        <time>2022-06-02T14:31:34Z</time>
      </trkpt>
      <trkpt lat="42.92293" lon="0.1329">
        <ele>2211.17</ele>
        <time>2022-06-02T14:31:37Z</time>
      </trkpt>
      <trkpt lat="42.92279" lon="0.1329">
        <ele>2207.81</ele>
        <time>2022-06-02T14:31:52Z</time>
      </trkpt>
      <trkpt lat="42.92274" lon="0.13289">
        <ele>2205.88</ele>
        <time>2022-06-02T14:31:57Z</time>
      </trkpt>
      <trkpt lat="42.92263" lon="0.13282">
        <ele>2203.96</ele>
        <time>2022-06-02T14:32:11Z</time>
      </trkpt>
      <trkpt lat="42.92256" lon="0.13281">
        <ele>2202.52</ele>
        <time>2022-06-02T14:32:18Z</time>
      </trkpt>
      <trkpt lat="42.92242" lon="0.13283">
        <ele>2200.59</ele>
        <time>2022-06-02T14:32:30Z</time>
      </trkpt>
      <trkpt lat="42.92225" lon="0.13285">
        <ele>2198.67</ele>
        <time>2022-06-02T14:32:47Z</time>
      </trkpt>
      <trkpt lat="42.92213" lon="0.13287">
        <ele>2196.75</ele>
        <time>2022-06-02T14:33:02Z</time>
      </trkpt>
      <trkpt lat="42.92203" lon="0.13285">
        <ele>2193.39</ele>
        <time>2022-06-02T14:33:12Z</time>
      </trkpt>
      <trkpt lat="42.92202" lon="0.13285">
        <ele>2193.39</ele>
        <time>2022-06-02T14:33:13Z</time>
      </trkpt>
      <trkpt lat="42.92189" lon="0.13281">
        <ele>2191.46</ele>
        <time>2022-06-02T14:33:26Z</time>
      </trkpt>
      <trkpt lat="42.92187" lon="0.1328">
        <ele>2191.94</ele>
        <time>2022-06-02T14:33:29Z</time>
      </trkpt>
      <trkpt lat="42.92177" lon="0.13281">
        <ele>2190.98</ele>
        <time>2022-06-02T14:33:40Z</time>
      </trkpt>
      <trkpt lat="42.92167" lon="0.13281">
        <ele>2188.58</ele>
        <time>2022-06-02T14:33:56Z</time>
      </trkpt>
      <trkpt lat="42.92168" lon="0.13287">
        <ele>2188.58</ele>
        <time>2022-06-02T14:34:23Z</time>
      </trkpt>
      <trkpt lat="42.92163" lon="0.1328">
        <ele>2188.58</ele>
        <time>2022-06-02T14:34:43Z</time>
      </trkpt>
      <trkpt lat="42.92153" lon="0.13276">
        <ele>2186.18</ele>
        <time>2022-06-02T14:34:58Z</time>
      </trkpt>
      <trkpt lat="42.92138" lon="0.13274">
        <ele>2184.25</ele>
        <time>2022-06-02T14:35:12Z</time>
      </trkpt>
      <trkpt lat="42.92123" lon="0.13267">
        <ele>2183.29</ele>
        <time>2022-06-02T14:35:26Z</time>
      </trkpt>
      <trkpt lat="42.92115" lon="0.13264">
        <ele>2182.81</ele>
        <time>2022-06-02T14:35:37Z</time>
      </trkpt>
      <trkpt lat="42.92108" lon="0.13263">
        <ele>2183.29</ele>
        <time>2022-06-02T14:35:44Z</time>
      </trkpt>
      <trkpt lat="42.92104" lon="0.1326">
        <ele>2183.77</ele>
        <time>2022-06-02T14:35:49Z</time>
      </trkpt>
      <trkpt lat="42.9209" lon="0.13251">
        <ele>2183.29</ele>
        <time>2022-06-02T14:36:03Z</time>
      </trkpt>
      <trkpt lat="42.92086" lon="0.13248">
        <ele>2184.73</ele>
        <time>2022-06-02T14:36:09Z</time>
      </trkpt>
      <trkpt lat="42.92078" lon="0.13242">
        <ele>2181.85</ele>
        <time>2022-06-02T14:36:20Z</time>
      </trkpt>
      <trkpt lat="42.92075" lon="0.1324">
        <ele>2183.77</ele>
        <time>2022-06-02T14:36:23Z</time>
      </trkpt>
      <trkpt lat="42.92073" lon="0.13239">
        <ele>2186.18</ele>
        <time>2022-06-02T14:36:25Z</time>
      </trkpt>
      <trkpt lat="42.92069" lon="0.13238">
        <ele>2187.14</ele>
        <time>2022-06-02T14:36:28Z</time>
      </trkpt>
      <trkpt lat="42.92051" lon="0.1323">
        <ele>2186.18</ele>
        <time>2022-06-02T14:36:45Z</time>
      </trkpt>
      <trkpt lat="42.9205" lon="0.13229">
        <ele>2185.21</ele>
        <time>2022-06-02T14:36:46Z</time>
      </trkpt>
      <trkpt lat="42.92048" lon="0.13225">
        <ele>2185.69</ele>
        <time>2022-06-02T14:36:49Z</time>
      </trkpt>
      <trkpt lat="42.9204" lon="0.13219">
        <ele>2185.69</ele>
        <time>2022-06-02T14:37:03Z</time>
      </trkpt>
      <trkpt lat="42.92026" lon="0.13218">
        <ele>2183.29</ele>
        <time>2022-06-02T14:37:17Z</time>
      </trkpt>
      <trkpt lat="42.92024" lon="0.13217">
        <ele>2182.81</ele>
        <time>2022-06-02T14:37:19Z</time>
      </trkpt>
      <trkpt lat="42.92017" lon="0.13218">
        <ele>2181.37</ele>
        <time>2022-06-02T14:37:25Z</time>
      </trkpt>
      <trkpt lat="42.92005" lon="0.13218">
        <ele>2179.45</ele>
        <time>2022-06-02T14:37:38Z</time>
      </trkpt>
      <trkpt lat="42.92004" lon="0.13218">
        <ele>2178</ele>
        <time>2022-06-02T14:37:40Z</time>
      </trkpt>
      <trkpt lat="42.91998" lon="0.1322">
        <ele>2178</ele>
        <time>2022-06-02T14:37:47Z</time>
      </trkpt>
      <trkpt lat="42.91984" lon="0.13216">
        <ele>2175.6</ele>
        <time>2022-06-02T14:37:58Z</time>
      </trkpt>
      <trkpt lat="42.9198" lon="0.13213">
        <ele>2176.56</ele>
        <time>2022-06-02T14:38:02Z</time>
      </trkpt>
      <trkpt lat="42.91972" lon="0.13215">
        <ele>2175.12</ele>
        <time>2022-06-02T14:38:13Z</time>
      </trkpt>
      <trkpt lat="42.91966" lon="0.1322">
        <ele>2173.68</ele>
        <time>2022-06-02T14:38:19Z</time>
      </trkpt>
      <trkpt lat="42.91962" lon="0.13229">
        <ele>2172.72</ele>
        <time>2022-06-02T14:38:26Z</time>
      </trkpt>
      <trkpt lat="42.9196" lon="0.13233">
        <ele>2170.79</ele>
        <time>2022-06-02T14:38:29Z</time>
      </trkpt>
      <trkpt lat="42.91943" lon="0.13233">
        <ele>2168.87</ele>
        <time>2022-06-02T14:38:44Z</time>
      </trkpt>
      <trkpt lat="42.91928" lon="0.13225">
        <ele>2166.95</ele>
        <time>2022-06-02T14:38:58Z</time>
      </trkpt>
      <trkpt lat="42.91916" lon="0.13214">
        <ele>2165.99</ele>
        <time>2022-06-02T14:39:09Z</time>
      </trkpt>
      <trkpt lat="42.91912" lon="0.13206">
        <ele>2163.1</ele>
        <time>2022-06-02T14:39:15Z</time>
      </trkpt>
      <trkpt lat="42.91906" lon="0.13193">
        <ele>2163.1</ele>
        <time>2022-06-02T14:39:24Z</time>
      </trkpt>
      <trkpt lat="42.91893" lon="0.1318">
        <ele>2162.62</ele>
        <time>2022-06-02T14:39:39Z</time>
      </trkpt>
      <trkpt lat="42.91888" lon="0.13185">
        <ele>2161.66</ele>
        <time>2022-06-02T14:39:47Z</time>
      </trkpt>
      <trkpt lat="42.91886" lon="0.13184">
        <ele>2160.7</ele>
        <time>2022-06-02T14:39:49Z</time>
      </trkpt>
      <trkpt lat="42.91883" lon="0.13181">
        <ele>2160.22</ele>
        <time>2022-06-02T14:39:53Z</time>
      </trkpt>
      <trkpt lat="42.9188" lon="0.13179">
        <ele>2161.66</ele>
        <time>2022-06-02T14:39:56Z</time>
      </trkpt>
      <trkpt lat="42.91872" lon="0.13185">
        <ele>2159.74</ele>
        <time>2022-06-02T14:40:05Z</time>
      </trkpt>
      <trkpt lat="42.91867" lon="0.13187">
        <ele>2157.82</ele>
        <time>2022-06-02T14:40:10Z</time>
      </trkpt>
      <trkpt lat="42.91864" lon="0.13187">
        <ele>2158.3</ele>
        <time>2022-06-02T14:40:13Z</time>
      </trkpt>
      <trkpt lat="42.91862" lon="0.13188">
        <ele>2158.3</ele>
        <time>2022-06-02T14:40:15Z</time>
      </trkpt>
      <trkpt lat="42.91851" lon="0.13183">
        <ele>2156.37</ele>
        <time>2022-06-02T14:40:26Z</time>
      </trkpt>
      <trkpt lat="42.91837" lon="0.13185">
        <ele>2153.97</ele>
        <time>2022-06-02T14:40:42Z</time>
      </trkpt>
      <trkpt lat="42.91831" lon="0.13183">
        <ele>2152.53</ele>
        <time>2022-06-02T14:40:49Z</time>
      </trkpt>
      <trkpt lat="42.91825" lon="0.13181">
        <ele>2150.13</ele>
        <time>2022-06-02T14:40:55Z</time>
      </trkpt>
      <trkpt lat="42.91815" lon="0.13185">
        <ele>2153.01</ele>
        <time>2022-06-02T14:41:10Z</time>
      </trkpt>
      <trkpt lat="42.91814" lon="0.13186">
        <ele>2150.13</ele>
        <time>2022-06-02T14:41:11Z</time>
      </trkpt>
      <trkpt lat="42.91812" lon="0.13183">
        <ele>2149.16</ele>
        <time>2022-06-02T14:41:14Z</time>
      </trkpt>
      <trkpt lat="42.9181" lon="0.13176">
        <ele>2150.13</ele>
        <time>2022-06-02T14:41:19Z</time>
      </trkpt>
      <trkpt lat="42.91806" lon="0.13168">
        <ele>2147.72</ele>
        <time>2022-06-02T14:41:24Z</time>
      </trkpt>
      <trkpt lat="42.91806" lon="0.13165">
        <ele>2148.2</ele>
        <time>2022-06-02T14:41:26Z</time>
      </trkpt>
      <trkpt lat="42.91808" lon="0.1315">
        <ele>2146.76</ele>
        <time>2022-06-02T14:41:36Z</time>
      </trkpt>
      <trkpt lat="42.91814" lon="0.1313">
        <ele>2143.4</ele>
        <time>2022-06-02T14:41:50Z</time>
      </trkpt>
      <trkpt lat="42.91809" lon="0.13129">
        <ele>2142.44</ele>
        <time>2022-06-02T14:41:59Z</time>
      </trkpt>
      <trkpt lat="42.91807" lon="0.1313">
        <ele>2141.95</ele>
        <time>2022-06-02T14:42:01Z</time>
      </trkpt>
      <trkpt lat="42.91798" lon="0.13143">
        <ele>2139.07</ele>
        <time>2022-06-02T14:42:15Z</time>
      </trkpt>
      <trkpt lat="42.91788" lon="0.13152">
        <ele>2137.15</ele>
        <time>2022-06-02T14:42:28Z</time>
      </trkpt>
      <trkpt lat="42.91783" lon="0.13155">
        <ele>2136.19</ele>
        <time>2022-06-02T14:42:35Z</time>
      </trkpt>
      <trkpt lat="42.91782" lon="0.13175">
        <ele>2133.78</ele>
        <time>2022-06-02T14:42:49Z</time>
      </trkpt>
      <trkpt lat="42.91784" lon="0.13193">
        <ele>2132.34</ele>
        <time>2022-06-02T14:43:02Z</time>
      </trkpt>
      <trkpt lat="42.91783" lon="0.13198">
        <ele>2131.86</ele>
        <time>2022-06-02T14:43:05Z</time>
      </trkpt>
      <trkpt lat="42.91781" lon="0.13206">
        <ele>2130.9</ele>
        <time>2022-06-02T14:43:10Z</time>
      </trkpt>
      <trkpt lat="42.91778" lon="0.13211">
        <ele>2130.42</ele>
        <time>2022-06-02T14:43:14Z</time>
      </trkpt>
      <trkpt lat="42.91766" lon="0.13221">
        <ele>2126.57</ele>
        <time>2022-06-02T14:43:30Z</time>
      </trkpt>
      <trkpt lat="42.91765" lon="0.13221">
        <ele>2126.09</ele>
        <time>2022-06-02T14:43:31Z</time>
      </trkpt>
      <trkpt lat="42.91748" lon="0.13223">
        <ele>2124.65</ele>
        <time>2022-06-02T14:43:45Z</time>
      </trkpt>
      <trkpt lat="42.91733" lon="0.13228">
        <ele>2122.25</ele>
        <time>2022-06-02T14:44:01Z</time>
      </trkpt>
      <trkpt lat="42.91731" lon="0.13229">
        <ele>2120.32</ele>
        <time>2022-06-02T14:44:05Z</time>
      </trkpt>
      <trkpt lat="42.91732" lon="0.13224">
        <ele>2119.84</ele>
        <time>2022-06-02T14:44:18Z</time>
      </trkpt>
      <trkpt lat="42.91729" lon="0.13226">
        <ele>2119.84</ele>
        <time>2022-06-02T14:44:34Z</time>
      </trkpt>
      <trkpt lat="42.91734" lon="0.13212">
        <ele>2118.4</ele>
        <time>2022-06-02T14:44:48Z</time>
      </trkpt>
      <trkpt lat="42.91743" lon="0.13201">
        <ele>2115.04</ele>
        <time>2022-06-02T14:45:04Z</time>
      </trkpt>
      <trkpt lat="42.91744" lon="0.13189">
        <ele>2112.63</ele>
        <time>2022-06-02T14:45:17Z</time>
      </trkpt>
      <trkpt lat="42.91742" lon="0.13182">
        <ele>2111.67</ele>
        <time>2022-06-02T14:45:23Z</time>
      </trkpt>
      <trkpt lat="42.91738" lon="0.13168">
        <ele>2107.83</ele>
        <time>2022-06-02T14:45:35Z</time>
      </trkpt>
      <trkpt lat="42.91729" lon="0.13154">
        <ele>2104.94</ele>
        <time>2022-06-02T14:45:52Z</time>
      </trkpt>
      <trkpt lat="42.91725" lon="0.1315">
        <ele>2103.98</ele>
        <time>2022-06-02T14:45:56Z</time>
      </trkpt>
      <trkpt lat="42.9172" lon="0.13145">
        <ele>2103.02</ele>
        <time>2022-06-02T14:46:02Z</time>
      </trkpt>
      <trkpt lat="42.91711" lon="0.13134">
        <ele>2099.18</ele>
        <time>2022-06-02T14:46:16Z</time>
      </trkpt>
      <trkpt lat="42.91709" lon="0.13133">
        <ele>2098.21</ele>
        <time>2022-06-02T14:46:18Z</time>
      </trkpt>
      <trkpt lat="42.91697" lon="0.13124">
        <ele>2094.37</ele>
        <time>2022-06-02T14:46:32Z</time>
      </trkpt>
      <trkpt lat="42.91682" lon="0.13109">
        <ele>2092.93</ele>
        <time>2022-06-02T14:46:48Z</time>
      </trkpt>
      <trkpt lat="42.91674" lon="0.13103">
        <ele>2091.97</ele>
        <time>2022-06-02T14:47:00Z</time>
      </trkpt>
      <trkpt lat="42.91663" lon="0.13102">
        <ele>2089.08</ele>
        <time>2022-06-02T14:47:12Z</time>
      </trkpt>
      <trkpt lat="42.91645" lon="0.13103">
        <ele>2087.64</ele>
        <time>2022-06-02T14:47:28Z</time>
      </trkpt>
      <trkpt lat="42.9164" lon="0.13094">
        <ele>2085.72</ele>
        <time>2022-06-02T14:47:36Z</time>
      </trkpt>
      <trkpt lat="42.9163" lon="0.13082">
        <ele>2082.35</ele>
        <time>2022-06-02T14:47:49Z</time>
      </trkpt>
      <trkpt lat="42.91616" lon="0.1307">
        <ele>2079.95</ele>
        <time>2022-06-02T14:48:05Z</time>
      </trkpt>
      <trkpt lat="42.91606" lon="0.13057">
        <ele>2077.55</ele>
        <time>2022-06-02T14:48:19Z</time>
      </trkpt>
      <trkpt lat="42.91592" lon="0.13047">
        <ele>2075.14</ele>
        <time>2022-06-02T14:48:33Z</time>
      </trkpt>
      <trkpt lat="42.91575" lon="0.13035">
        <ele>2072.26</ele>
        <time>2022-06-02T14:48:51Z</time>
      </trkpt>
      <trkpt lat="42.91564" lon="0.13024">
        <ele>2069.86</ele>
        <time>2022-06-02T14:49:04Z</time>
      </trkpt>
      <trkpt lat="42.91563" lon="0.13025">
        <ele>2069.86</ele>
        <time>2022-06-02T14:49:06Z</time>
      </trkpt>
      <trkpt lat="42.91548" lon="0.13012">
        <ele>2067.45</ele>
        <time>2022-06-02T14:49:21Z</time>
      </trkpt>
      <trkpt lat="42.91538" lon="0.13004">
        <ele>2065.05</ele>
        <time>2022-06-02T14:49:31Z</time>
      </trkpt>
      <trkpt lat="42.91531" lon="0.12994">
        <ele>2063.13</ele>
        <time>2022-06-02T14:49:40Z</time>
      </trkpt>
      <trkpt lat="42.91516" lon="0.12979">
        <ele>2061.2</ele>
        <time>2022-06-02T14:49:57Z</time>
      </trkpt>
      <trkpt lat="42.91511" lon="0.12977">
        <ele>2060.24</ele>
        <time>2022-06-02T14:50:02Z</time>
      </trkpt>
      <trkpt lat="42.91505" lon="0.12975">
        <ele>2058.8</ele>
        <time>2022-06-02T14:50:08Z</time>
      </trkpt>
      <trkpt lat="42.91494" lon="0.12966">
        <ele>2055.92</ele>
        <time>2022-06-02T14:50:23Z</time>
      </trkpt>
      <trkpt lat="42.91488" lon="0.1297">
        <ele>2057.36</ele>
        <time>2022-06-02T14:50:34Z</time>
      </trkpt>
      <trkpt lat="42.91478" lon="0.12958">
        <ele>2053.99</ele>
        <time>2022-06-02T14:50:46Z</time>
      </trkpt>
      <trkpt lat="42.91465" lon="0.12952">
        <ele>2050.63</ele>
        <time>2022-06-02T14:50:59Z</time>
      </trkpt>
      <trkpt lat="42.91449" lon="0.12941">
        <ele>2048.71</ele>
        <time>2022-06-02T14:51:16Z</time>
      </trkpt>
      <trkpt lat="42.91445" lon="0.12938">
        <ele>2047.26</ele>
        <time>2022-06-02T14:51:32Z</time>
      </trkpt>
      <trkpt lat="42.91439" lon="0.12935">
        <ele>2045.82</ele>
        <time>2022-06-02T14:51:46Z</time>
      </trkpt>
      <trkpt lat="42.91441" lon="0.12937">
        <ele>2045.34</ele>
        <time>2022-06-02T14:52:13Z</time>
      </trkpt>
      <trkpt lat="42.91434" lon="0.12923">
        <ele>2043.9</ele>
        <time>2022-06-02T14:52:27Z</time>
      </trkpt>
      <trkpt lat="42.9142" lon="0.12906">
        <ele>2041.98</ele>
        <time>2022-06-02T14:52:43Z</time>
      </trkpt>
      <trkpt lat="42.9141" lon="0.12893">
        <ele>2038.61</ele>
        <time>2022-06-02T14:52:58Z</time>
      </trkpt>
      <trkpt lat="42.91401" lon="0.12877">
        <ele>2037.65</ele>
        <time>2022-06-02T14:53:11Z</time>
      </trkpt>
      <trkpt lat="42.91395" lon="0.12869">
        <ele>2034.29</ele>
        <time>2022-06-02T14:53:17Z</time>
      </trkpt>
      <trkpt lat="42.91395" lon="0.12867">
        <ele>2034.77</ele>
        <time>2022-06-02T14:53:18Z</time>
      </trkpt>
      <trkpt lat="42.91387" lon="0.12841">
        <ele>2031.88</ele>
        <time>2022-06-02T14:53:35Z</time>
      </trkpt>
      <trkpt lat="42.91387" lon="0.12838">
        <ele>2032.84</ele>
        <time>2022-06-02T14:53:37Z</time>
      </trkpt>
      <trkpt lat="42.91378" lon="0.12817">
        <ele>2029.96</ele>
        <time>2022-06-02T14:53:54Z</time>
      </trkpt>
      <trkpt lat="42.91376" lon="0.12811">
        <ele>2029</ele>
        <time>2022-06-02T14:53:59Z</time>
      </trkpt>
      <trkpt lat="42.91374" lon="0.12805">
        <ele>2027.56</ele>
        <time>2022-06-02T14:54:05Z</time>
      </trkpt>
      <trkpt lat="42.91369" lon="0.12789">
        <ele>2025.15</ele>
        <time>2022-06-02T14:54:18Z</time>
      </trkpt>
      <trkpt lat="42.91364" lon="0.1276">
        <ele>2022.27</ele>
        <time>2022-06-02T14:54:35Z</time>
      </trkpt>
      <trkpt lat="42.91364" lon="0.1275">
        <ele>2019.39</ele>
        <time>2022-06-02T14:54:45Z</time>
      </trkpt>
      <trkpt lat="42.91364" lon="0.12749">
        <ele>2018.91</ele>
        <time>2022-06-02T14:54:48Z</time>
      </trkpt>
      <trkpt lat="42.9136" lon="0.12746">
        <ele>2016.98</ele>
        <time>2022-06-02T14:54:52Z</time>
      </trkpt>
      <trkpt lat="42.91355" lon="0.12719">
        <ele>2016.5</ele>
        <time>2022-06-02T14:55:08Z</time>
      </trkpt>
      <trkpt lat="42.91355" lon="0.12713">
        <ele>2015.06</ele>
        <time>2022-06-02T14:55:12Z</time>
      </trkpt>
      <trkpt lat="42.91352" lon="0.12716">
        <ele>2013.62</ele>
        <time>2022-06-02T14:55:24Z</time>
      </trkpt>
      <trkpt lat="42.91349" lon="0.12728">
        <ele>2012.18</ele>
        <time>2022-06-02T14:55:32Z</time>
      </trkpt>
      <trkpt lat="42.9135" lon="0.12747">
        <ele>2010.73</ele>
        <time>2022-06-02T14:55:46Z</time>
      </trkpt>
      <trkpt lat="42.91349" lon="0.12748">
        <ele>2010.25</ele>
        <time>2022-06-02T14:55:47Z</time>
      </trkpt>
      <trkpt lat="42.91344" lon="0.12761">
        <ele>2009.29</ele>
        <time>2022-06-02T14:55:56Z</time>
      </trkpt>
      <trkpt lat="42.91341" lon="0.12774">
        <ele>2006.89</ele>
        <time>2022-06-02T14:56:07Z</time>
      </trkpt>
      <trkpt lat="42.91341" lon="0.12783">
        <ele>2005.93</ele>
        <time>2022-06-02T14:56:13Z</time>
      </trkpt>
      <trkpt lat="42.91343" lon="0.1279">
        <ele>2004.49</ele>
        <time>2022-06-02T14:56:18Z</time>
      </trkpt>
      <trkpt lat="42.91344" lon="0.12813">
        <ele>2001.6</ele>
        <time>2022-06-02T14:56:34Z</time>
      </trkpt>
      <trkpt lat="42.91341" lon="0.12831">
        <ele>1999.2</ele>
        <time>2022-06-02T14:56:51Z</time>
      </trkpt>
      <trkpt lat="42.91341" lon="0.12833">
        <ele>1999.68</ele>
        <time>2022-06-02T14:57:14Z</time>
      </trkpt>
      <trkpt lat="42.91339" lon="0.12837">
        <ele>1999.2</ele>
        <time>2022-06-02T14:57:18Z</time>
      </trkpt>
      <trkpt lat="42.91337" lon="0.12851">
        <ele>1997.28</ele>
        <time>2022-06-02T14:57:30Z</time>
      </trkpt>
      <trkpt lat="42.91333" lon="0.1287">
        <ele>1993.43</ele>
        <time>2022-06-02T14:57:45Z</time>
      </trkpt>
      <trkpt lat="42.91331" lon="0.129">
        <ele>1990.55</ele>
        <time>2022-06-02T14:58:04Z</time>
      </trkpt>
      <trkpt lat="42.91331" lon="0.12922">
        <ele>1989.1</ele>
        <time>2022-06-02T14:58:18Z</time>
      </trkpt>
      <trkpt lat="42.91335" lon="0.1295">
        <ele>1987.18</ele>
        <time>2022-06-02T14:58:34Z</time>
      </trkpt>
      <trkpt lat="42.91335" lon="0.12975">
        <ele>1986.22</ele>
        <time>2022-06-02T14:58:49Z</time>
      </trkpt>
      <trkpt lat="42.91341" lon="0.13005">
        <ele>1984.3</ele>
        <time>2022-06-02T14:59:08Z</time>
      </trkpt>
      <trkpt lat="42.91346" lon="0.13025">
        <ele>1982.38</ele>
        <time>2022-06-02T14:59:22Z</time>
      </trkpt>
      <trkpt lat="42.91356" lon="0.13054">
        <ele>1980.93</ele>
        <time>2022-06-02T14:59:41Z</time>
      </trkpt>
      <trkpt lat="42.91359" lon="0.13076">
        <ele>1979.49</ele>
        <time>2022-06-02T14:59:56Z</time>
      </trkpt>
      <trkpt lat="42.9136" lon="0.13092">
        <ele>1978.53</ele>
        <time>2022-06-02T15:00:06Z</time>
      </trkpt>
      <trkpt lat="42.91363" lon="0.13113">
        <ele>1976.13</ele>
        <time>2022-06-02T15:00:20Z</time>
      </trkpt>
      <trkpt lat="42.91364" lon="0.13125">
        <ele>1975.65</ele>
        <time>2022-06-02T15:00:30Z</time>
      </trkpt>
      <trkpt lat="42.91374" lon="0.13151">
        <ele>1974.2</ele>
        <time>2022-06-02T15:00:48Z</time>
      </trkpt>
      <trkpt lat="42.91372" lon="0.13172">
        <ele>1972.76</ele>
        <time>2022-06-02T15:01:01Z</time>
      </trkpt>
      <trkpt lat="42.91372" lon="0.13179">
        <ele>1971.8</ele>
        <time>2022-06-02T15:01:05Z</time>
      </trkpt>
      <trkpt lat="42.91375" lon="0.13206">
        <ele>1970.84</ele>
        <time>2022-06-02T15:01:23Z</time>
      </trkpt>
      <trkpt lat="42.9138" lon="0.13217">
        <ele>1969.4</ele>
        <time>2022-06-02T15:01:37Z</time>
      </trkpt>
      <trkpt lat="42.91383" lon="0.1322">
        <ele>1968.44</ele>
        <time>2022-06-02T15:01:41Z</time>
      </trkpt>
      <trkpt lat="42.91388" lon="0.13239">
        <ele>1966.99</ele>
        <time>2022-06-02T15:01:56Z</time>
      </trkpt>
      <trkpt lat="42.91388" lon="0.1324">
        <ele>1967.48</ele>
        <time>2022-06-02T15:02:00Z</time>
      </trkpt>
      <trkpt lat="42.9139" lon="0.13244">
        <ele>1968.44</ele>
        <time>2022-06-02T15:02:05Z</time>
      </trkpt>
      <trkpt lat="42.91395" lon="0.13251">
        <ele>1967.48</ele>
        <time>2022-06-02T15:02:14Z</time>
      </trkpt>
      <trkpt lat="42.91407" lon="0.13278">
        <ele>1966.51</ele>
        <time>2022-06-02T15:02:31Z</time>
      </trkpt>
      <trkpt lat="42.91402" lon="0.13285">
        <ele>1966.51</ele>
        <time>2022-06-02T15:02:41Z</time>
      </trkpt>
      <trkpt lat="42.91401" lon="0.13305">
        <ele>1964.59</ele>
        <time>2022-06-02T15:02:57Z</time>
      </trkpt>
      <trkpt lat="42.914" lon="0.13322">
        <ele>1964.59</ele>
        <time>2022-06-02T15:03:12Z</time>
      </trkpt>
      <trkpt lat="42.91405" lon="0.13332">
        <ele>1964.11</ele>
        <time>2022-06-02T15:03:24Z</time>
      </trkpt>
      <trkpt lat="42.91408" lon="0.13334">
        <ele>1964.11</ele>
        <time>2022-06-02T15:03:29Z</time>
      </trkpt>
      <trkpt lat="42.91425" lon="0.13343">
        <ele>1964.11</ele>
        <time>2022-06-02T15:03:47Z</time>
      </trkpt>
      <trkpt lat="42.91444" lon="0.13337">
        <ele>1964.59</ele>
        <time>2022-06-02T15:04:04Z</time>
      </trkpt>
      <trkpt lat="42.91466" lon="0.13331">
        <ele>1964.59</ele>
        <time>2022-06-02T15:04:22Z</time>
      </trkpt>
      <trkpt lat="42.91486" lon="0.13336">
        <ele>1967.48</ele>
        <time>2022-06-02T15:04:39Z</time>
      </trkpt>
      <trkpt lat="42.91489" lon="0.13339">
        <ele>1967.48</ele>
        <time>2022-06-02T15:04:42Z</time>
      </trkpt>
      <trkpt lat="42.91496" lon="0.13344">
        <ele>1967.48</ele>
        <time>2022-06-02T15:04:53Z</time>
      </trkpt>
      <trkpt lat="42.91497" lon="0.13352">
        <ele>1967.48</ele>
        <time>2022-06-02T15:05:00Z</time>
      </trkpt>
      <trkpt lat="42.91496" lon="0.13364">
        <ele>1967.48</ele>
        <time>2022-06-02T15:05:12Z</time>
      </trkpt>
      <trkpt lat="42.91492" lon="0.13372">
        <ele>1967.48</ele>
        <time>2022-06-02T15:05:20Z</time>
      </trkpt>
      <trkpt lat="42.91488" lon="0.13393">
        <ele>1966.99</ele>
        <time>2022-06-02T15:05:35Z</time>
      </trkpt>
      <trkpt lat="42.91479" lon="0.13415">
        <ele>1965.55</ele>
        <time>2022-06-02T15:05:50Z</time>
      </trkpt>
      <trkpt lat="42.91479" lon="0.13418">
        <ele>1965.55</ele>
        <time>2022-06-02T15:05:52Z</time>
      </trkpt>
      <trkpt lat="42.91471" lon="0.13435">
        <ele>1964.59</ele>
        <time>2022-06-02T15:06:07Z</time>
      </trkpt>
      <trkpt lat="42.91463" lon="0.13455">
        <ele>1963.63</ele>
        <time>2022-06-02T15:06:21Z</time>
      </trkpt>
      <trkpt lat="42.9146" lon="0.13473">
        <ele>1964.11</ele>
        <time>2022-06-02T15:06:35Z</time>
      </trkpt>
      <trkpt lat="42.91467" lon="0.13472">
        <ele>1964.11</ele>
        <time>2022-06-02T15:06:50Z</time>
      </trkpt>
      <trkpt lat="42.91468" lon="0.13481">
        <ele>1963.63</ele>
        <time>2022-06-02T15:07:04Z</time>
      </trkpt>
      <trkpt lat="42.91465" lon="0.13488">
        <ele>1963.63</ele>
        <time>2022-06-02T15:07:15Z</time>
      </trkpt>
      <trkpt lat="42.91456" lon="0.135">
        <ele>1962.67</ele>
        <time>2022-06-02T15:07:30Z</time>
      </trkpt>
      <trkpt lat="42.91454" lon="0.13518">
        <ele>1962.19</ele>
        <time>2022-06-02T15:07:45Z</time>
      </trkpt>
      <trkpt lat="42.91453" lon="0.1352">
        <ele>1961.23</ele>
        <time>2022-06-02T15:07:48Z</time>
      </trkpt>
      <trkpt lat="42.91455" lon="0.13528">
        <ele>1960.75</ele>
        <time>2022-06-02T15:08:00Z</time>
      </trkpt>
      <trkpt lat="42.91469" lon="0.13533">
        <ele>1959.78</ele>
        <time>2022-06-02T15:08:16Z</time>
      </trkpt>
      <trkpt lat="42.91479" lon="0.1354">
        <ele>1960.27</ele>
        <time>2022-06-02T15:08:31Z</time>
      </trkpt>
      <trkpt lat="42.91478" lon="0.1354">
        <ele>1961.23</ele>
        <time>2022-06-02T15:08:47Z</time>
      </trkpt>
      <trkpt lat="42.91481" lon="0.13541">
        <ele>1961.23</ele>
        <time>2022-06-02T15:09:03Z</time>
      </trkpt>
      <trkpt lat="42.91483" lon="0.1355">
        <ele>1961.23</ele>
        <time>2022-06-02T15:09:19Z</time>
      </trkpt>
      <trkpt lat="42.91483" lon="0.13551">
        <ele>1961.23</ele>
        <time>2022-06-02T15:09:20Z</time>
      </trkpt>
      <trkpt lat="42.91478" lon="0.13562">
        <ele>1959.78</ele>
        <time>2022-06-02T15:09:34Z</time>
      </trkpt>
      <trkpt lat="42.91471" lon="0.13569">
        <ele>1960.27</ele>
        <time>2022-06-02T15:09:48Z</time>
      </trkpt>
      <trkpt lat="42.91464" lon="0.13574">
        <ele>1959.78</ele>
        <time>2022-06-02T15:09:57Z</time>
      </trkpt>
      <trkpt lat="42.91448" lon="0.13585">
        <ele>1958.82</ele>
        <time>2022-06-02T15:10:13Z</time>
      </trkpt>
      <trkpt lat="42.91429" lon="0.13592">
        <ele>1958.34</ele>
        <time>2022-06-02T15:10:30Z</time>
      </trkpt>
      <trkpt lat="42.91421" lon="0.13597">
        <ele>1958.82</ele>
        <time>2022-06-02T15:10:43Z</time>
      </trkpt>
      <trkpt lat="42.91421" lon="0.13597">
        <ele>1958.34</ele>
        <time>2022-06-02T15:10:44Z</time>
      </trkpt>
      <trkpt lat="42.91413" lon="0.13617">
        <ele>1958.82</ele>
        <time>2022-06-02T15:10:59Z</time>
      </trkpt>
      <trkpt lat="42.9141" lon="0.13632">
        <ele>1958.82</ele>
        <time>2022-06-02T15:11:09Z</time>
      </trkpt>
      <trkpt lat="42.9141" lon="0.13648">
        <ele>1958.34</ele>
        <time>2022-06-02T15:11:19Z</time>
      </trkpt>
      <trkpt lat="42.91413" lon="0.13659">
        <ele>1958.82</ele>
        <time>2022-06-02T15:11:26Z</time>
      </trkpt>
      <trkpt lat="42.91411" lon="0.13667">
        <ele>1958.34</ele>
        <time>2022-06-02T15:11:31Z</time>
      </trkpt>
      <trkpt lat="42.91409" lon="0.13673">
        <ele>1958.34</ele>
        <time>2022-06-02T15:11:35Z</time>
      </trkpt>
      <trkpt lat="42.914" lon="0.1369">
        <ele>1958.34</ele>
        <time>2022-06-02T15:11:46Z</time>
      </trkpt>
      <trkpt lat="42.91391" lon="0.13702">
        <ele>1956.9</ele>
        <time>2022-06-02T15:11:58Z</time>
      </trkpt>
      <trkpt lat="42.91378" lon="0.13709">
        <ele>1956.9</ele>
        <time>2022-06-02T15:12:12Z</time>
      </trkpt>
      <trkpt lat="42.91364" lon="0.13713">
        <ele>1957.38</ele>
        <time>2022-06-02T15:12:27Z</time>
      </trkpt>
      <trkpt lat="42.91352" lon="0.13713">
        <ele>1957.38</ele>
        <time>2022-06-02T15:12:41Z</time>
      </trkpt>
      <trkpt lat="42.9135" lon="0.13709">
        <ele>1958.82</ele>
        <time>2022-06-02T15:12:48Z</time>
      </trkpt>
      <trkpt lat="42.9135" lon="0.13698">
        <ele>1958.82</ele>
        <time>2022-06-02T15:13:02Z</time>
      </trkpt>
      <trkpt lat="42.9135" lon="0.13698">
        <ele>1957.86</ele>
        <time>2022-06-02T15:13:16Z</time>
      </trkpt>
      <trkpt lat="42.91352" lon="0.13698">
        <ele>1957.38</ele>
        <time>2022-06-02T15:13:39Z</time>
      </trkpt>
      <trkpt lat="42.91351" lon="0.13699">
        <ele>1957.38</ele>
        <time>2022-06-02T15:13:50Z</time>
      </trkpt>
      <trkpt lat="42.91349" lon="0.137">
        <ele>1957.38</ele>
        <time>2022-06-02T15:14:19Z</time>
      </trkpt>
      <trkpt lat="42.91351" lon="0.13699">
        <ele>1957.38</ele>
        <time>2022-06-02T15:14:46Z</time>
      </trkpt>
      <trkpt lat="42.91352" lon="0.13699">
        <ele>1956.9</ele>
        <time>2022-06-02T15:15:19Z</time>
      </trkpt>
      <trkpt lat="42.91352" lon="0.13699">
        <ele>1956.9</ele>
        <time>2022-06-02T15:15:52Z</time>
      </trkpt>
      <trkpt lat="42.91351" lon="0.13698">
        <ele>1956.9</ele>
        <time>2022-06-02T15:16:31Z</time>
      </trkpt>
      <trkpt lat="42.91351" lon="0.13698">
        <ele>1956.42</ele>
        <time>2022-06-02T15:17:16Z</time>
      </trkpt>
      <trkpt lat="42.91351" lon="0.13698">
        <ele>1956.42</ele>
        <time>2022-06-02T15:17:59Z</time>
      </trkpt>
      <trkpt lat="42.91351" lon="0.13698">
        <ele>1956.42</ele>
        <time>2022-06-02T15:18:30Z</time>
      </trkpt>
      <trkpt lat="42.91352" lon="0.13697">
        <ele>1956.42</ele>
        <time>2022-06-02T15:19:08Z</time>
      </trkpt>
      <trkpt lat="42.91351" lon="0.13698">
        <ele>1955.46</ele>
        <time>2022-06-02T15:19:45Z</time>
      </trkpt>
      <trkpt lat="42.91351" lon="0.13698">
        <ele>1954.98</ele>
        <time>2022-06-02T15:20:18Z</time>
      </trkpt>
      <trkpt lat="42.91352" lon="0.13699">
        <ele>1954.98</ele>
        <time>2022-06-02T15:20:40Z</time>
      </trkpt>
      <trkpt lat="42.91352" lon="0.13699">
        <ele>1954.5</ele>
        <time>2022-06-02T15:21:15Z</time>
      </trkpt>
      <trkpt lat="42.91353" lon="0.13699">
        <ele>1954.5</ele>
        <time>2022-06-02T15:21:47Z</time>
      </trkpt>
      <trkpt lat="42.91353" lon="0.13698">
        <ele>1954.5</ele>
        <time>2022-06-02T15:22:14Z</time>
      </trkpt>
      <trkpt lat="42.91353" lon="0.13698">
        <ele>1954.5</ele>
        <time>2022-06-02T15:22:40Z</time>
      </trkpt>
      <trkpt lat="42.91354" lon="0.13697">
        <ele>1954.5</ele>
        <time>2022-06-02T15:23:13Z</time>
      </trkpt>
      <trkpt lat="42.91354" lon="0.13698">
        <ele>1956.42</ele>
        <time>2022-06-02T15:23:46Z</time>
      </trkpt>
    </trkseg>
  </trk>
</gpx>